[[{"header":{"parameterUnit":"m.s-1","parameterCategory":1,"la1":30.6,"la2":29.2853,"lo1":-89.7004,"lo2":-87.6739,"dy":0.0162,"dx":0.0183,"nx":112,"ny":82,"refTime":"2023-09-08T18:00:00:Z","depth":0,"parameterNumber":2,"parameterNumberName":"U-component_of_WINDS"},"data":[0.0,0.0,0.0,0.0,0.0,0.0,0.0,0.0,0.0,0.0,0.0,0.0,0.0,0.0,0.0,0.0,0.0,0.0,0.0,0.0,0.0,0.0,0.0,0.0,0.0,0.0,0.0,0.0,0.0,0.0,0.0,0.0,0.0,0.0,0.0,0.0,0.0,0.0,0.0,0.0,0.0,0.0,0.0,0.0,0.0,0.0,0.0,0.0,0.0,0.0,0.0,0.0,0.0,0.0,0.0,0.0,0.0,0.0,0.0,0.0,0.0,0.0,0.0,0.0,0.0,0.0,0.0,0.0,0.0,0.0,0.0,0.0,0.0,0.0,0.0,0.0,0.0,0.0,0.0,0.0,0.0,0.0,0.0,0.0,0.0,0.0,0.0,0.0,0.0,0.0,0.537,0.5217,0.4518,0.409,0.409,0.4036,0.426,0.4833,0.0,0.0,0.0,0.0,0.0,0.0,0.0,0.0,0.0,0.0,0.0,0.0,0.0,0.0,0.0,0.0,0.0,0.0,0.0,0.0,0.0,0.0,0.0,0.0,0.0,0.0,0.0,0.0,0.0,0.0,0.0,0.0,0.0,0.0,0.0,0.0,0.0,0.0,0.0,0.0,0.0,0.0,0.0,0.0,0.0,0.0,0.0,0.0,0.0,0.0,0.0,0.0,0.0,0.0,0.0,0.0,0.0,0.0,0.0,0.0,0.0,0.0,0.0,0.0,0.0,0.0,0.0,0.0,0.0,0.0,0.0,0.0,0.0,0.0,0.0,0.0,0.0,0.0,0.0,0.0,0.0,0.0,0.0,0.0,0.0,0.0,0.0,0.0,0.0,0.0,0.0,0.0,0.0,0.0,0.0,0.0,0.0,0.0,0.0,0.0,0.0,0.0,0.0,0.0,0.5828,0.4754,0.4518,0.445,0.445,0.428,0.4599,0.5556,0.0,0.0,0.0,0.0,0.0,0.0,0.0,0.0,0.0,0.0,0.0,0.0,0.0,0.0,0.0,0.0,0.0,0.0,0.0,0.0,0.0,0.0,0.0,0.0,0.0,0.0,0.0,0.0,0.0,0.0,0.0,0.0,0.0,0.0,0.0,0.0,0.0,0.0,0.0,0.0,0.0,0.0,0.0,0.0,0.0,0.0,0.0,0.0,0.0,0.0,0.0,0.0,0.0,0.0,0.0,0.0,0.0,0.0,0.0,0.0,0.0,0.0,0.0,0.0,0.0,0.0,0.0,0.0,0.0,0.0,0.0,0.0,0.0,0.0,0.0,0.0,0.0,0.0,0.0,0.0,0.0,0.0,0.0,0.0,0.0,0.0,0.0,0.0,0.0,0.0,0.0,0.0,0.0,0.0,0.0,0.0,0.0,0.0,0.0,0.0,0.0,0.0,0.0,0.5538,0.478,0.4515,0.4184,0.4128,0.446,0.4405,0.4567,0.5066,0.5068,0.0,0.0,0.0,0.0,0.0,0.0,0.0,0.0,0.0,0.0,0.0,0.0,0.0,0.0,0.0,0.0,0.0,0.0,0.0,0.0,0.0,0.0,0.0,0.0,0.0,0.0,0.0,0.0,0.0,0.0,0.0,0.0,0.0,0.0,0.0,0.0,0.0,0.0,0.0,0.0,0.0,0.0,0.0,0.0,0.0,0.0,0.0,0.0,0.0,0.0,0.0,0.0,0.0,0.0,0.0,0.0,0.0,0.0,0.0,0.0,0.0,0.0,0.0,0.0,0.0,0.0,0.0,0.0,0.0,0.0,0.0,0.0,0.0,0.0,0.0,0.0,0.0,0.0,0.0,0.0,0.0,0.0,0.0,0.0,0.0,0.0,0.0,0.0,0.0,0.0,0.0,0.0,0.0,0.0,0.0,0.0,0.0,0.0,0.0,0.0,0.0,0.0,0.4386,0.3769,0.4053,0.3801,0.3786,0.4251,0.4435,0.4629,0.4904,0.4937,0.0,0.0,0.0,0.0,0.0,0.0,0.0,0.0,0.0,0.0,0.0,0.0,0.0,0.0,0.0,0.0,0.0,0.0,0.0,0.0,0.0,0.0,0.0,0.0,0.0,0.0,0.0,0.0,0.0,0.0,0.0,0.0,0.0,0.0,0.0,0.0,0.0,0.0,0.0,0.0,0.0,0.0,0.0,0.0,0.0,0.0,0.0,0.0,0.0,0.0,0.0,0.0,0.0,0.0,0.0,0.0,0.0,0.0,0.0,0.0,0.0,0.0,0.0,0.0,0.0,0.0,0.0,0.0,0.0,0.0,0.0,0.0,0.0,0.0,0.0,0.0,0.0,0.0,0.0,0.0,0.0,0.0,0.0,0.0,0.0,0.0,0.0,0.0,0.0,0.0,0.0,0.0,0.0,0.0,0.0,0.0,0.0,0.0,0.0,0.0,0.0,0.0,0.4324,0.3542,0.2995,0.333,0.3637,0.3679,0.4172,0.4959,0.6009,0.5559,0.0,0.0,0.0,0.0,0.0,0.0,0.0,0.0,0.0,0.0,0.0,0.0,0.0,0.0,0.0,0.0,0.0,0.0,0.0,0.0,0.0,0.0,0.0,0.0,0.0,0.0,0.0,0.0,0.0,0.0,0.0,0.0,0.0,0.0,0.0,0.0,0.0,0.0,0.0,0.0,0.0,0.0,0.0,0.0,0.0,0.0,0.0,0.0,0.0,0.0,0.0,0.0,0.0,0.0,0.0,0.0,0.0,0.0,0.0,0.0,0.0,0.0,0.0,0.0,0.0,0.0,0.0,0.0,0.0,0.0,0.0,0.0,0.0,0.0,0.0,0.0,0.0,0.0,0.0,0.0,0.0,0.0,0.0,0.0,0.0,0.0,0.0,0.0,0.0,0.0,0.0,0.0,0.0,0.0,0.0,0.0,0.0,0.0,0.0,0.0,0.0,0.0,0.3557,0.2646,0.2768,0.2645,0.2671,0.3098,0.369,0.4201,0.4562,0.0,0.0,0.0,0.0,0.0,0.0,0.0,0.0,0.0,0.0,0.0,0.0,0.0,0.0,0.0,0.0,0.0,0.0,0.0,0.0,0.0,0.0,0.0,0.0,0.0,0.0,0.0,0.0,0.0,0.0,0.0,0.0,0.0,0.0,0.0,0.0,0.0,0.0,0.0,0.0,0.0,0.0,0.0,0.0,0.0,0.0,0.0,0.0,0.0,0.0,0.0,0.0,0.0,0.0,0.0,0.0,0.0,0.0,0.0,0.0,0.0,0.0,0.0,0.0,0.0,0.0,0.0,0.0,0.0,0.0,0.0,0.0,0.0,0.0,0.0,0.0,0.0,0.0,0.0,0.0,0.0,0.0,0.0,0.0,0.0,0.0,0.0,0.0,0.0,0.0,0.0,0.0,0.0,0.0,0.0,0.0,0.0,0.0,0.0,0.0,0.0,0.0,0.4463,0.2969,0.2026,0.2216,0.2047,0.2087,0.2478,0.3099,0.3635,0.3904,0.0,0.0,0.0,0.0,0.0,0.0,0.0,0.0,0.0,0.0,0.0,0.0,0.0,0.0,0.0,0.0,0.0,0.0,0.0,0.0,0.0,0.0,0.0,0.0,0.0,0.0,0.0,0.0,0.0,0.0,0.0,0.0,0.0,0.0,0.0,0.0,0.0,0.0,0.0,0.0,0.0,0.0,0.0,0.0,0.0,0.0,0.0,0.0,0.0,0.0,0.0,0.0,0.0,0.0,0.0,0.0,0.0,0.0,0.0,0.0,0.0,0.0,0.0,0.0,0.0,0.0,0.0,0.0,0.0,0.0,0.0,0.0,0.0,0.0,0.0,0.0,0.0,0.0,0.0,0.0,0.0,0.0,0.0,0.0,0.0,0.0,0.0,0.0,0.0,0.0,0.0,0.0,0.0,0.0,0.0,0.0,0.0,0.0,0.0,0.0,0.0,0.0,0.3606,0.2683,0.1812,0.1143,0.1574,0.1892,0.1879,0.2423,0.3345,0.0,0.0,0.0,0.0,0.0,0.0,0.0,0.0,0.0,0.0,0.0,0.0,0.0,0.0,0.0,0.0,0.0,0.0,0.0,0.0,0.0,0.0,0.0,0.0,0.0,0.0,0.0,0.0,0.0,0.0,0.0,0.0,0.0,0.0,0.0,0.0,0.0,0.0,0.0,0.0,0.0,0.0,0.0,0.0,0.0,0.0,0.0,0.0,0.0,0.0,0.0,0.0,0.0,0.0,0.0,0.0,0.0,0.0,0.0,0.0,0.0,0.0,0.0,0.0,0.0,0.0,0.0,0.0,0.0,0.0,0.0,0.0,0.0,0.0,0.0,0.0,0.0,0.0,0.0,0.0,0.0,0.0,0.0,0.0,0.0,0.0,0.0,0.0,0.0,0.0,0.0,0.0,0.0,0.0,0.0,0.0,0.0,0.0,0.0,0.0,0.0,0.0,0.0,0.3347,0.2147,0.1344,0.1143,0.1267,0.1333,0.1346,0.2119,0.269,0.2902,0.0,0.0,0.0,0.0,0.0,0.0,0.0,0.0,0.0,0.0,0.0,0.0,0.0,0.0,0.0,0.0,0.0,0.0,0.0,0.0,0.0,0.0,0.0,0.0,0.0,0.0,0.0,0.0,0.0,0.0,0.0,0.0,0.0,0.0,0.0,0.0,0.0,0.0,0.0,0.0,0.0,0.0,0.0,0.0,0.0,0.0,0.0,0.0,0.0,0.0,0.0,0.0,0.0,0.0,0.0,0.0,0.0,0.0,0.0,0.0,0.0,0.0,0.0,0.0,0.0,0.0,0.0,0.0,0.0,0.0,0.0,0.0,0.0,0.0,0.0,0.0,0.0,0.0,0.0,0.0,0.0,0.0,0.0,0.0,0.0,0.0,0.0,0.0,0.0,0.0,0.0,0.0,0.0,0.0,0.0,0.0,0.0,0.0,0.0,0.0,0.0,0.0,0.3215,0.1947,0.1077,0.1077,0.1077,0.1078,0.1079,0.1481,0.168,0.1545,0.0,0.0,0.0,0.0,0.0,0.0,0.0,0.0,0.0,0.0,0.0,0.0,0.0,0.0,0.0,0.0,0.0,0.0,0.0,0.0,0.0,0.0,0.0,0.0,0.0,0.0,0.0,0.0,0.0,0.0,0.0,0.0,0.0,0.0,0.0,0.0,0.0,0.0,0.0,0.0,0.0,0.0,0.0,0.0,0.0,0.0,0.0,0.0,0.0,0.0,0.0,0.0,0.0,0.0,0.0,0.0,0.0,0.0,0.0,0.0,0.0,0.0,0.0,0.0,0.0,0.0,0.0,0.0,0.0,0.0,0.0,0.0,0.0,0.0,0.0,0.0,0.0,0.0,0.0,0.0,0.0,0.0,0.0,0.0,0.0,0.0,0.0,0.0,0.0,0.0,0.0,0.0,0.0,0.0,0.0,0.0,0.0,0.0,0.0,0.0,0.0,0.0,0.3082,0.195,0.1079,0.1079,0.1079,0.1079,0.1079,0.0742,0.0539,0.0469,0.0,0.0,0.0,0.0,0.0,0.0,0.0,0.0,0.0,0.0,0.0,0.0,0.0,0.0,0.0,0.0,0.0,0.0,0.0,0.0,0.0,0.0,0.0,0.0,0.0,0.0,0.0,0.0,0.0,0.0,0.0,0.0,0.0,0.0,0.0,0.0,0.0,0.0,0.0,0.0,0.0,0.0,0.0,0.0,0.0,0.0,0.0,0.0,0.0,0.0,0.0,0.0,0.0,0.0,0.0,0.0,0.0,0.0,0.0,0.0,0.3477,0.4238,0.0,0.0,0.0,0.0,0.0,0.0,0.0,0.0,0.0,0.0,0.0,0.0,0.0,0.0,0.0,0.0,0.0,0.0,0.0,0.0,0.0,0.0,0.0,0.0,0.0,0.0,0.0,0.0,0.0,0.0,0.0,0.0,0.0,0.0,0.0,0.0,0.0,0.0,0.0,0.0,0.2414,0.1612,0.1077,0.1079,0.1079,0.1079,0.1079,0.1012,0.0741,0.0134,0.0402,0.0,0.0,0.0,0.0,0.0,0.0,0.0,0.0,0.0,0.0,0.0,0.0,0.0,0.0,0.0,0.0,0.0,0.0,0.0,0.0,0.0,0.0,0.0,0.0,0.0,0.0,0.0,0.0,0.0,0.0,0.0,0.0,0.0,0.0,0.0,0.0,0.0,0.0,0.0,0.0,0.0,0.0,0.0,0.0,0.0,0.0,0.0,0.0,0.0,0.0,0.0,0.0,0.0,0.0,0.0,0.0,0.0,0.0,0.0,0.2925,0.3315,0.0,0.0,0.0,0.0,0.0,0.0,0.0,0.0,0.0,0.0,0.0,0.0,0.0,0.0,0.0,0.0,0.0,0.0,0.0,0.0,0.0,0.0,0.0,0.0,0.0,0.0,0.0,0.0,0.0,0.0,0.0,0.0,0.0,0.0,0.0,0.0,0.0,0.0,0.0,0.0,0.2374,0.1047,-0.0,-0.0206,-0.0343,-0.0409,-0.0471,-0.0471,-0.0336,-0.0,-0.0604,0.0,0.0,0.0,0.0,0.0,0.0,0.0,0.0,0.0,0.0,0.0,0.0,0.0,0.0,0.0,0.0,0.0,0.0,0.0,0.0,0.0,0.0,0.0,0.0,0.0,0.0,0.0,0.0,0.0,0.0,0.0,0.0,0.0,0.0,0.0,0.0,0.0,0.0,0.0,0.0,0.0,0.0,0.0,0.0,0.0,0.0,0.0,0.0,0.0,0.0,0.0,0.0,0.0,0.2204,0.2235,0.2856,0.272,0.2313,0.1765,0.2074,0.2084,0.2001,0.2501,0.0,0.0,0.0,0.0,0.0,0.0,0.0,0.0,0.0,0.0,0.0,0.0,0.0,0.0,0.0,0.0,0.0,0.0,0.0,0.0,0.0,0.0,0.4977,0.5353,0.4611,0.4414,0.6351,0.0,0.0,0.0,0.0,0.0,0.0,0.0,0.0,0.0,0.0,0.0,0.1818,0.0073,-0.1371,-0.1767,-0.2044,-0.2304,-0.2525,-0.2512,-0.1965,-0.0812,-0.1615,-0.1677,0.0,0.0,0.0,0.0,0.0,0.0,0.0,0.0,0.0,0.0,0.0,0.0,0.0,0.0,0.0,0.0,0.0,0.0,0.0,0.0,0.0,0.0,0.0,0.0,0.0,0.0,0.0,0.0,0.0,0.0,0.0,0.0,0.091,0.0883,0.0,0.0,0.0,0.0,0.0,0.0,0.0,0.0,0.0,0.0,0.0,0.0,0.0,0.1395,0.1395,0.1267,0.1285,0.1385,0.1252,0.134,0.1442,0.0865,0.0577,0.0432,-0.0072,0.0,0.2124,0.2389,0.0,0.0,0.0,0.0,0.0,0.0,0.0,0.0,0.0,0.0,0.0,0.0,0.0,0.0,0.0,0.0,0.0,0.0,0.0,0.0,0.0,0.0,0.2533,0.2599,0.252,0.278,0.4381,0.4974,0.4812,0.3476,0.4518,0.5306,0.0,0.0,0.0,0.0,0.0,0.0,-0.1236,-0.1672,-0.2107,-0.2754,-0.268,-0.3112,-0.4267,-0.4177,-0.3911,-0.3767,-0.2722,-0.2618,-0.3703,-0.208,0.0,0.0,0.0,0.0,0.0,0.0,0.0,0.0,0.0,0.0,0.0,0.0,0.0,0.0,0.0,0.0,0.0,0.0,0.0,0.0,0.0,0.0,0.0,0.0,0.0,0.0,0.0,0.0,0.0,0.0884,0.0908,0.0922,0.095,0.0969,0.0,0.0,0.0,0.0,0.0,0.0,0.0,0.0,0.0,0.1082,0.0753,0.0624,0.0563,0.0282,0.0071,0.0072,0.0072,-0.0,-0.0218,-0.0509,-0.08,-0.1019,-0.131,-0.0933,-0.014,0.0211,0.07,0.1258,0.0,0.0,0.0,0.0,0.193,0.1968,0.2664,0.246,0.1811,0.1035,0.0,0.0,0.0,0.0,0.0,0.0,0.0,0.4182,0.5021,0.428,0.2904,0.1331,-0.0497,-0.1718,-0.1074,-0.0071,0.0769,0.1121,0.1061,0.1432,0.2989,0.1986,0.0,0.0,0.0,-0.1286,-0.2351,-0.2652,-0.3093,-0.395,-0.3941,-0.4139,-0.467,-0.4616,-0.4512,-0.4446,-0.3837,-0.371,-0.4277,-0.3659,-0.2482,0.0,0.0,0.0,0.0,0.0,0.0,0.0,0.0,0.0,0.0,0.0,0.0,0.0,0.0,0.0,0.0,0.0,0.0,0.0,0.0,0.0,0.0,0.0,0.0,0.0,0.0,0.0,0.0,0.0935,0.0954,0.0954,0.0982,0.1,0.0,0.0,0.0,0.0,0.0,0.0,0.0679,0.0615,0.0624,0.0637,0.0212,-0.0,-0.0,-0.0587,-0.0886,-0.0891,-0.0897,-0.1128,-0.151,-0.1586,-0.1889,-0.2343,-0.2495,-0.2569,-0.264,-0.1985,-0.1597,-0.152,-0.1958,-0.1791,-0.1194,-0.1335,-0.1318,-0.1024,-0.0,0.0616,0.0753,-0.0274,0.0069,0.0892,0.089,0.0,0.0,0.0,0.0,0.117,0.2253,0.2551,0.1992,-0.0145,-0.2566,-0.4509,-0.4885,-0.4004,-0.266,-0.0947,-0.1679,-0.1695,0.0827,-0.0151,0.0,-0.1795,-0.2347,-0.2893,-0.3366,-0.3677,-0.4042,-0.4746,-0.4885,-0.4844,-0.4754,-0.4716,-0.47,-0.4559,-0.4586,-0.451,-0.4348,-0.4327,-0.4333,-0.4311,0.0,0.0,0.0,0.0,0.0,0.0,0.0,0.0,0.0,0.0,0.0,0.0,0.0,0.0,0.0,0.0,0.0,0.0,0.0,0.0,0.0,0.0,0.0,0.0,0.0,0.0,0.0,0.0,0.0,0.0986,0.1013,0.0,0.0,0.0,0.0,0.0402,0.0275,-0.0,-0.0489,-0.0573,-0.0581,-0.0582,-0.0655,-0.0655,-0.0656,-0.1193,-0.145,-0.1484,-0.1518,-0.1797,-0.2166,-0.2332,-0.2668,-0.317,-0.375,-0.4251,-0.4474,-0.3408,-0.2913,-0.2985,-0.431,-0.4751,-0.4742,-0.4522,-0.4445,-0.4439,-0.4367,-0.3413,-0.2247,-0.232,-0.2319,-0.2247,-0.2247,-0.2247,0.0,0.0,-0.2247,-0.2248,-0.2178,-0.2178,-0.2179,-0.2328,-0.2519,-0.3088,-0.4686,-0.4931,-0.4399,-0.2718,-0.2446,-0.2561,-0.2639,0.0,-0.2655,-0.3203,-0.4148,-0.4859,-0.4859,-0.4937,-0.4935,-0.501,-0.501,-0.5007,-0.4999,-0.4893,-0.4825,-0.475,-0.4711,-0.4662,-0.4474,-0.4463,-0.4412,-0.4303,-0.4233,0.0,0.0,0.0,0.0,0.0,0.0,0.0,0.0,0.0,0.0,0.0,0.0,0.0,0.0,0.0,0.0,0.0,0.0,0.0,0.0,0.0,0.0,0.0,0.0,0.0,0.0,0.0,0.0,0.1018,0.106,0.0,0.109,0.0768,0.0425,0.0283,-0.0143,-0.0575,-0.1004,-0.0883,-0.0902,-0.1145,-0.1319,-0.1576,-0.1839,-0.2418,-0.2844,-0.3193,-0.322,-0.3414,-0.3777,-0.3861,-0.4195,-0.4615,-0.4866,-0.5035,-0.5105,-0.47,-0.4516,-0.4453,-0.4927,-0.4991,-0.4856,-0.4781,-0.473,-0.4737,-0.4742,-0.445,-0.4007,-0.4087,-0.4089,-0.4089,-0.4089,-0.4089,-0.4089,-0.4089,-0.4089,-0.4104,-0.4091,-0.4108,-0.4124,-0.4116,-0.4076,-0.4253,-0.4878,-0.4993,-0.4838,-0.4215,-0.4074,-0.4176,-0.426,-0.4208,-0.4151,-0.4384,-0.4779,-0.5018,-0.5018,-0.5018,-0.5018,-0.5018,-0.5018,-0.5018,-0.5018,-0.4977,-0.4953,-0.4953,-0.4838,-0.4751,-0.4705,-0.4629,-0.4531,-0.4412,-0.4409,-0.4376,0.0,0.0,0.0,0.0,0.0,0.0,0.0,0.0,0.0,0.0,0.0,0.0,0.0,0.0,0.0,0.0,0.0,0.0,0.0,0.0,0.0,0.0,0.0,0.0,0.0,0.0,0.0465,0.0465,0.0484,0.0497,0.0497,0.0144,-0.0219,-0.0369,-0.0818,-0.1349,-0.1963,-0.178,-0.1896,-0.2324,-0.2442,-0.2728,-0.3019,-0.3635,-0.4073,-0.4411,-0.4357,-0.4633,-0.5064,-0.4891,-0.5082,-0.5548,-0.5548,-0.5572,-0.5608,-0.5567,-0.5477,-0.5363,-0.5281,-0.5151,-0.5015,-0.5015,-0.4963,-0.4966,-0.493,-0.4919,-0.4914,-0.4958,-0.5021,-0.5021,-0.5021,-0.5021,-0.5021,-0.5021,-0.5021,-0.4963,-0.4966,-0.4983,-0.5005,-0.5007,-0.5021,-0.5018,-0.5018,-0.5018,-0.5018,-0.5018,-0.5018,-0.5018,-0.5026,-0.5021,-0.5018,-0.5018,-0.5018,-0.5018,-0.5018,-0.5018,-0.5018,-0.5018,-0.5018,-0.5018,-0.5018,-0.5018,-0.5018,-0.5018,-0.4942,-0.4876,-0.4836,-0.4757,-0.4656,-0.4604,-0.449,-0.4433,-0.4292,0.0,0.0,0.0,0.0,0.0,0.0,0.0,0.0,0.0,0.0,0.0,0.0,0.0,0.0,0.0,0.0,0.0,0.0,0.0,0.0,0.0,0.0,0.0,-0.0583,-0.061,-0.063,-0.0631,-0.0647,-0.0731,-0.0731,-0.0732,-0.0962,-0.1593,-0.1707,-0.2221,-0.3246,-0.3404,-0.3613,-0.4114,-0.4118,-0.4118,-0.4118,-0.4637,-0.4947,-0.4949,-0.4968,-0.529,-0.5654,-0.5201,-0.5345,-0.5909,-0.5909,-0.5975,-0.6075,-0.5958,-0.5844,-0.5719,-0.5472,-0.5371,-0.5368,-0.5368,-0.5368,-0.5352,-0.5233,-0.5192,-0.5173,-0.5064,-0.5029,-0.5029,-0.5029,-0.5029,-0.5029,-0.5029,-0.5029,-0.5029,-0.5029,-0.5029,-0.5029,-0.5029,-0.5029,-0.5029,-0.5029,-0.5029,-0.5026,-0.5023,-0.5023,-0.5021,-0.5018,-0.5018,-0.5018,-0.5018,-0.5018,0.0,-0.5018,-0.5018,-0.5018,-0.5018,-0.5018,-0.5018,-0.5018,-0.5018,-0.5018,-0.5018,-0.5018,-0.4963,-0.4844,-0.4838,-0.4781,-0.4734,-0.4607,-0.4407,-0.4341,0.0,0.0,0.0,0.0,0.0,0.0,0.0,0.0,0.0,0.0,0.0,0.0,0.0,0.0,0.0,0.0,0.0,0.0,0.0,0.0,0.0,0.0,-0.1864,-0.0754,-0.0624,-0.0635,-0.0647,-0.075,-0.077,-0.077,-0.1507,-0.1946,-0.1716,-0.2792,-0.3551,-0.3822,-0.3908,-0.4212,-0.4558,-0.4365,-0.4399,-0.4747,-0.5029,-0.5262,-0.5623,-0.5744,-0.5893,-0.5988,-0.5893,-0.5909,-0.6034,-0.6034,-0.6053,-0.6083,-0.6048,-0.6015,-0.5956,-0.5629,-0.5447,-0.5368,-0.5368,-0.5368,-0.5366,-0.533,-0.532,-0.5314,-0.5281,-0.5273,-0.5273,-0.5273,-0.5273,-0.5273,-0.5273,-0.5273,-0.5273,-0.5273,-0.5273,-0.5273,-0.5273,-0.5273,-0.5273,-0.5273,-0.5273,-0.5246,-0.5156,-0.514,-0.5113,-0.5031,-0.5018,-0.5018,-0.5018,-0.5018,-0.5018,-0.5018,-0.5018,-0.5018,-0.5018,-0.5018,-0.5018,-0.5018,-0.5018,-0.5018,-0.5018,-0.5018,-0.5002,-0.4969,-0.4966,-0.4909,-0.4787,-0.4664,-0.4558,0.0,0.0,0.0,0.0,0.0,0.0,0.0,0.0,0.0,0.0,0.0,0.0,0.0,0.0,0.0,0.0,0.0,0.0,0.0,0.0,0.0,0.0,-0.3178,-0.2976,-0.2128,-0.1985,-0.1848,-0.1501,-0.1884,-0.2099,-0.1939,-0.2646,-0.3033,-0.2807,-0.3574,-0.4185,-0.4394,-0.445,-0.4766,-0.5252,-0.5046,-0.5099,-0.5415,-0.5575,-0.5701,-0.598,-0.6051,-0.6086,-0.6086,-0.6086,-0.63,-0.6727,-0.6727,-0.6855,-0.7193,-0.7133,-0.7108,-0.708,0.0,0.0,0.0,0.0,-0.5521,-0.5515,-0.5464,-0.5445,-0.5436,-0.5385,-0.5368,-0.5368,-0.5368,-0.5368,-0.5368,-0.5368,-0.5368,-0.5368,-0.5368,-0.5368,-0.5368,-0.5368,-0.5368,-0.5368,-0.5368,-0.5368,-0.5349,-0.5276,-0.5262,0.0,-0.5175,-0.5083,-0.5018,-0.5018,-0.5018,-0.5018,-0.5018,-0.5018,-0.5018,-0.5018,-0.5018,-0.5018,-0.5018,-0.5249,0.0,0.0,0.0,-0.5249,-0.5018,-0.5018,0.0,0.0,0.0,-0.4694,-0.4624,-0.4504,0.0,0.0,-0.3919,-0.3832,0.0,0.0,0.0,0.0,0.0,0.0,0.0,0.0,0.0,0.0,0.0,0.0,0.0,0.0,0.0,0.0,-0.3681,-0.3904,-0.4001,-0.4034,-0.3726,-0.2767,-0.3447,-0.3874,-0.354,-0.3882,-0.4176,-0.4173,-0.4353,-0.4563,-0.5003,-0.5022,0.0,0.0,0.0,-0.5975,-0.6083,-0.61,-0.6108,-0.6108,-0.6119,-0.6124,-0.6124,-0.6124,-0.6658,-0.7537,-0.7537,-0.8004,-0.8814,-0.8665,-0.8601,-0.8486,-0.6988,-0.6205,-0.6004,-0.5899,-0.5863,-0.5757,-0.5632,0.0,0.0,-0.545,-0.5409,-0.5409,-0.5409,-0.5409,-0.5409,-0.5409,-0.5409,-0.5409,-0.5409,-0.5409,-0.5409,-0.5409,-0.5409,-0.5409,-0.5409,-0.5409,-0.5407,-0.5393,-0.5471,-0.5552,-0.5538,-0.5264,-0.5115,-0.5115,-0.5179,-0.5249,-0.5249,-0.5249,-0.5249,-0.5249,-0.5249,0.0,-0.5249,-0.5709,-0.5786,-0.5249,-0.5631,-0.5631,-0.5015,-0.5018,-0.5018,-0.5018,-0.4909,-0.4849,-0.4833,-0.4724,-0.461,-0.4488,-0.4382,-0.4319,0.0,0.0,0.0,0.0,0.0,0.0,0.0,0.0,0.0,0.0,0.0,0.0,0.0,0.0,0.0,-0.408,-0.4273,-0.4392,-0.4419,-0.4909,-0.4818,-0.39,-0.3648,-0.3709,-0.405,-0.455,-0.4694,-0.4271,-0.4984,-0.526,-0.5008,-0.5453,-0.5788,-0.5901,-0.5999,-0.6062,-0.6086,-0.6184,-0.6233,-0.6236,-0.6325,0.0,-0.6369,-0.6369,-0.6776,-0.7588,-0.7588,-0.8001,-0.8821,-0.8788,-0.8776,-0.8747,-0.8255,-0.7657,-0.6982,-0.6957,-0.6575,-0.5999,-0.5877,-0.5836,-0.5814,-0.57,-0.5662,-0.5662,-0.5662,-0.5662,0.0,-0.5662,-0.5662,-0.5662,-0.5662,-0.5662,-0.5662,-0.5662,-0.5662,-0.5662,-0.5662,-0.5662,-0.5635,-0.5534,-0.594,-0.6329,-0.6216,-0.6062,-0.5879,-0.5879,-0.625,-0.6556,-0.6556,-0.6556,-0.6556,-0.6556,-0.6556,-0.6556,-0.6556,-0.6633,-0.6633,-0.6556,-0.617,-0.5631,-0.5015,-0.5018,-0.5018,-0.5018,-0.4993,-0.4934,-0.4833,-0.4811,-0.4735,-0.4687,-0.4496,-0.439,0.0,0.0,0.0,0.0,0.0,0.0,0.0,0.0,0.0,0.0,0.0,-0.4912,0.0,0.0,-0.4553,-0.4607,-0.4885,-0.5054,-0.5027,-0.518,-0.4981,-0.4276,-0.4437,-0.4586,-0.4581,-0.507,-0.5282,-0.5015,-0.5515,-0.5727,-0.545,-0.5836,-0.6024,-0.6083,-0.6146,-0.6203,-0.626,-0.6323,-0.6352,-0.6352,-0.641,-0.6437,-0.6437,-0.6437,-0.7033,-0.8226,-0.8226,-0.892,-1.001,-1.001,-1.001,-0.9989,-0.99,-0.91,-0.7974,-0.7893,-0.7677,-0.7292,-0.7217,-0.6916,-0.6632,-0.7021,-0.6545,-0.599,-0.6289,-0.6088,-0.5806,-0.5749,-0.5733,-0.5733,-0.5733,-0.5733,-0.5733,-0.5733,-0.5733,-0.5733,-0.5733,-0.5733,-0.5716,-0.5654,-0.5903,-0.6228,-0.6583,-0.6706,-0.6808,-0.6652,-0.6878,-0.7032,-0.6949,-0.6865,-0.6865,-0.6865,-0.6865,-0.6865,-0.6865,-0.6865,-0.7015,-0.7322,-0.6402,-0.5786,-0.5479,-0.5171,-0.5018,-0.5018,-0.5018,-0.4988,-0.4925,-0.4925,-0.4863,-0.4743,-0.4681,-0.4588,0.0,0.0,0.0,0.0,0.0,0.0,0.0,0.0,-0.6244,-0.5623,-0.5691,-0.5666,-0.5015,-0.5149,-0.5249,-0.5118,-0.5363,-0.548,-0.5613,-0.5343,-0.5018,-0.4601,-0.5164,-0.5463,-0.5191,-0.5463,-0.5733,-0.5733,-0.5839,-0.5904,-0.5904,-0.6043,-0.6165,-0.6265,-0.629,-0.6344,-0.6434,-0.6437,-0.6437,-0.6437,-0.6534,-0.6634,-0.6634,-0.6833,-0.763,-0.9023,-0.9221,-1.001,-1.1194,-1.1292,-1.1389,-1.1389,-1.1487,-1.0697,-0.9372,-0.8946,-0.8706,-0.8513,-0.8573,-0.8095,-0.7624,-0.834,-0.758,-0.6626,-0.7165,-0.6945,-0.6374,-0.6096,-0.5981,-0.5981,-0.5801,-0.5784,-0.5765,-0.5765,-0.5749,-0.5733,-0.5733,-0.5733,-0.5733,-0.5908,-0.5997,-0.6346,-0.7044,-0.7639,-0.7877,-0.7485,-0.7568,-0.7565,-0.732,-0.7297,-0.7285,-0.7249,-0.7246,-0.7246,-0.7246,-0.7246,-0.7399,-0.7783,-0.6861,-0.617,-0.5941,-0.5401,-0.5093,-0.5018,-0.5018,-0.5018,-0.5018,-0.5018,-0.4966,-0.4868,-0.4868,-0.4792,-0.7069,-0.7272,-0.741,-0.7558,-0.7609,-0.7519,0.0,0.0,-0.7057,-0.6493,-0.6596,-0.6656,-0.5893,-0.6045,-0.6108,-0.5557,-0.5438,-0.5624,-0.5833,-0.5783,-0.5826,-0.5919,-0.539,-0.5191,-0.5552,-0.5644,-0.5733,-0.5733,-0.5839,-0.5904,-0.5904,-0.6121,-0.6255,-0.6268,-0.6366,-0.6423,-0.6437,-0.6437,-0.6437,-0.6437,-0.7132,-0.7431,-0.7531,-0.8226,-0.9023,-0.992,-1.0605,-1.0998,-1.1194,-1.1683,-1.1878,-1.198,-1.2467,-1.2452,-1.2129,-1.0449,-0.9363,-0.8747,-0.8598,-0.8545,-0.8427,-0.8468,-0.8419,-0.8228,-0.8303,-0.8299,-0.8016,-0.7356,-0.7169,-0.6982,-0.6233,-0.5966,-0.5885,-0.5885,-0.5806,-0.5733,-0.5733,-0.5733,-0.5908,-0.6517,-0.7132,-0.7834,-0.854,-0.9226,-0.9402,-0.859,-0.883,-0.8972,-0.8774,-0.8751,-0.8677,-0.8493,-0.847,-0.847,-0.847,-0.847,-0.8318,-0.7859,-0.7629,-0.7092,-0.5938,-0.586,-0.5556,-0.5018,-0.5018,-0.5018,-0.5018,-0.5018,-0.501,-0.4996,-0.4996,-0.4874,-0.734,-0.755,0.0,0.0,-0.7867,-0.7906,-0.7778,-0.7979,-0.7925,-0.7405,-0.7541,-0.7468,-0.6425,-0.635,-0.6254,0.0,-0.5523,-0.5692,-0.579,-0.586,-0.5923,-0.5972,-0.5765,-0.5723,-0.5839,-0.5771,-0.576,-0.5828,-0.5942,-0.604,-0.6113,-0.6276,-0.6366,-0.6366,-0.6412,-0.6437,-0.6437,-0.6437,-0.6437,-0.6437,-0.7232,-0.7675,-0.7759,-0.856,-0.9524,-1.0344,-1.1152,-1.1557,-1.1557,-1.2168,-1.2289,-1.2267,-1.2766,-1.2981,-1.2662,-1.159,-1.0993,-1.0587,-1.021,-0.9795,-0.9494,-0.9895,-0.9485,-0.879,-0.9172,-0.8946,-0.8452,-0.8074,-0.7959,-0.7959,-0.758,-0.7439,-0.7393,-0.7393,-0.7349,-0.7305,-0.7305,-0.7242,-0.7272,-0.7538,-0.7723,-0.8009,-0.8803,-0.9152,-0.9392,-0.9402,-0.9475,-0.9393,-0.9067,-0.9025,-0.8944,-0.8722,-0.8703,-0.8703,-0.8703,-0.8703,-0.8623,-0.8318,-0.8012,-0.7553,-0.7015,-0.6325,-0.5786,-0.5556,-0.5171,-0.5018,-0.5018,-0.5018,-0.5018,-0.5018,-0.5018,-0.4963,-0.7574,0.0,0.0,-0.7938,-0.8103,-0.8264,-0.8325,-0.8618,-0.8718,-0.8325,-0.8354,-0.8085,-0.692,-0.6705,-0.6375,-0.5686,-0.5676,-0.5744,-0.5776,-0.588,-0.5966,-0.5999,-0.6081,-0.6102,-0.6013,-0.5899,-0.5863,-0.5947,-0.6067,-0.6173,-0.6265,-0.6374,-0.6534,-0.6736,-0.6734,-0.6833,-0.7033,-0.7033,-0.7033,-0.7033,-0.7969,-0.8449,-0.8561,-0.9418,-1.0228,-1.0993,-1.1714,-1.2024,-1.2127,-1.2848,-1.3057,-1.2899,-1.3507,-1.3562,-1.3252,-1.2758,-1.2325,-1.1975,-1.1585,-1.09,-1.0413,-1.0998,-1.0404,-0.9592,-1.0048,-0.9807,-0.9292,-0.8973,-0.8938,-0.8843,-0.8653,-0.8524,-0.8491,-0.8491,-0.8547,-0.8512,-0.8512,-0.8421,-0.8326,-0.8461,-0.8349,-0.842,-0.9078,-0.9244,-0.9419,-0.9951,-0.9823,-0.9601,-0.9242,-0.9096,-0.8944,-0.8722,-0.8703,-0.8703,-0.8703,-0.8703,-0.8703,-0.8703,-0.8165,-0.7706,-0.7553,-0.6479,-0.5786,-0.5631,-0.5249,-0.5018,-0.5018,-0.5018,-0.5018,-0.5018,-0.5018,-0.5018,-0.7768,0.0,-0.8122,-0.833,-0.8533,-0.8737,-0.8949,-0.9157,-0.9304,-0.9222,-0.8897,-0.8357,-0.7588,-0.7111,-0.6511,-0.5816,-0.573,-0.5771,-0.5882,-0.6002,-0.6124,-0.6244,-0.626,-0.6263,0.0,-0.6146,-0.6075,-0.6081,-0.6195,-0.6265,-0.6268,-0.6374,-0.6734,-0.7531,-0.7531,-0.7928,-0.8722,-0.8726,-0.8726,-0.8726,-0.9791,-1.018,-1.0294,-1.1298,-1.1709,-1.1817,-1.2442,-1.2653,-1.2751,-1.3771,-1.4276,-1.427,-1.4784,-1.4831,-1.4604,-1.4004,-1.3051,-1.198,-1.1975,-1.159,-1.1194,-1.1194,-1.1194,-1.1096,-1.1189,-1.1184,-1.0988,-1.0199,-1.0002,-0.9805,-0.9008,-0.8687,-0.8564,-0.8564,-0.8536,-0.8512,-0.8512,-0.8509,-0.8644,-0.9121,-0.9173,-0.9293,-0.9897,-0.9951,-0.9951,-1.0038,-1.0033,-0.9866,-0.9653,-0.9275,-0.8944,-0.8722,-0.8703,-0.8703,-0.8703,-0.8703,-0.8703,-0.8703,-0.8165,-0.7553,-0.6942,-0.6247,-0.5631,-0.5015,-0.5018,-0.5018,-0.5018,-0.5018,-0.5018,-0.5018,-0.5018,-0.5018,-0.7943,-0.8132,-0.8344,-0.8548,-0.876,-0.8968,-0.9176,-0.9275,-0.9322,-0.9322,-0.9133,-0.8848,-0.818,-0.765,-0.7073,-0.63,-0.5943,-0.5746,-0.5784,-0.5961,-0.6102,-0.6143,-0.6285,0.0,0.0,0.0,0.0,-0.62,-0.6244,-0.6301,-0.6377,-0.6913,-0.7332,-0.763,-0.8127,-0.8528,-0.8825,-0.8825,-0.8877,-0.8985,-1.0195,-1.0976,-1.1513,-1.2028,-1.2447,-1.2768,-1.2986,-1.3301,-1.372,-1.4462,-1.4687,-1.4539,-1.516,-1.5203,-1.4956,-1.4576,-1.3958,-1.3166,-1.2715,-1.237,-1.2175,-1.1883,-1.1688,-1.1683,-1.1292,-1.1194,-1.1096,-1.09,-1.0801,-1.0703,-1.0502,-1.0356,-1.0303,-1.0303,-1.0351,-1.0303,-1.0303,-1.0205,-1.0099,-1.0318,-1.009,-0.9979,-1.0178,-1.0133,-1.0038,-1.0038,-0.9838,-0.9724,-0.9653,-0.9285,-0.8996,-0.8921,-0.8789,-0.8703,-0.8703,-0.8703,-0.8703,-0.8703,-0.847,-0.8089,-0.7553,-0.6865,-0.6247,-0.5631,-0.5171,-0.5018,-0.5018,-0.5018,-0.5018,-0.5018,-0.5018,-0.5018,-0.816,-0.8406,-0.8656,-0.8784,-0.9034,-0.9261,-0.9313,-0.9384,-0.9417,-0.9337,-0.9078,-0.8828,-0.8414,-0.7602,-0.6919,-0.6496,-0.6019,-0.5667,-0.5667,-0.5909,-0.6086,-0.6086,-0.6293,-0.6437,0.0,0.0,0.0,-0.6323,-0.6328,-0.6361,-0.6431,-0.7132,-0.773,-0.8028,-0.8825,-0.932,-0.9612,-0.9612,-0.9834,-1.0076,-1.1111,-1.1949,-1.2573,-1.292,-1.3197,-1.3635,-1.3851,-1.4175,-1.4493,-1.5143,-1.5264,-1.5112,-1.5533,-1.5481,-1.5228,-1.5059,-1.4672,-1.4074,-1.3333,-1.2958,-1.2759,-1.237,-1.2175,-1.198,-1.1585,-1.1389,-1.1194,-1.1194,-1.1194,-1.1194,-1.1194,-1.1194,-1.1194,-1.1194,-1.1194,-1.1194,-1.1194,-1.1094,-1.0981,-1.091,-1.0617,-1.0357,-1.0286,-1.0093,-1.0038,-1.0038,-0.9838,-0.9729,-0.9573,-0.9412,-0.919,-0.9039,-0.8902,-0.8784,-0.8708,-0.8703,-0.8703,-0.8703,-0.847,-0.8089,-0.7476,-0.6861,-0.6247,-0.5556,-0.5171,-0.5018,-0.5018,-0.5018,-0.5018,-0.5018,-0.5018,-0.5018,-0.8415,-0.8713,-0.9025,-0.9039,-0.9337,-0.9494,-0.9384,-0.9483,-0.9559,-0.9351,-0.8805,-0.8307,0.0,0.0,-0.6347,-0.6347,-0.5887,-0.5464,-0.5464,-0.5855,-0.6078,0.0,0.0,0.0,0.0,0.0,0.0,-0.6437,-0.6437,-0.6437,-0.6437,-0.7232,-0.8028,-0.8825,-0.962,-1.0413,-1.1194,-1.1217,-1.153,-1.194,-1.267,-1.3209,-1.3423,-1.3954,-1.4169,-1.4277,-1.4821,-1.5035,-1.5035,-1.5678,-1.5891,-1.5891,-1.5891,-1.5734,-1.5517,-1.5505,-1.5185,-1.4616,-1.3848,-1.326,-1.2861,-1.2861,-1.2467,-1.2078,-1.198,-1.1585,-1.1194,-1.1194,-1.1194,-1.1194,-1.1194,-1.1194,-1.1194,-1.1194,-1.1194,-1.1194,-1.1194,-1.1194,-1.1137,-1.0948,-1.0726,-1.0508,-1.031,-1.0093,-1.0038,-1.0038,-1.0038,-0.988,-0.9686,-0.9569,-0.9493,-0.91,-0.9034,-0.8944,-0.8737,-0.8708,-0.8703,-0.8703,-0.8165,-0.7553,-0.6938,-0.6325,-0.5634,-0.5018,-0.5018,-0.5018,-0.5018,-0.5018,-0.5018,-0.5018,-0.5018,-0.5018,-0.8585,-0.8822,-0.9058,-0.9209,-0.9327,-0.9431,-0.954,-0.9365,-0.9167,-0.911,-0.8816,-0.8627,0.0,0.0,0.0,-0.6848,-0.608,0.0,-0.5464,-0.5779,0.0,-0.6075,0.0,-0.6344,-0.6429,-0.6437,0.0,0.0,-0.7332,-0.7332,-0.7332,-0.8627,-0.9521,-0.9719,-1.0507,-1.0998,-1.1194,-1.1908,-1.2617,-1.332,-1.3752,-1.3895,-1.3954,-1.4169,-1.4385,-1.4821,-1.4928,-1.525,-1.5678,-1.5891,-1.5891,-1.5891,-1.5891,-1.5849,-1.5765,-1.5572,-1.5415,-1.5234,-1.4576,-1.4181,-1.3817,-1.3437,-1.2958,-1.2565,-1.2078,-1.1585,-1.1194,-1.1194,-1.1194,-1.1194,-1.1194,-1.1194,-1.1194,-1.1194,-1.1194,-1.1194,-1.1194,-1.1194,-1.1179,-1.1127,-1.0825,-1.0508,-1.031,-1.0093,-1.0038,-1.0038,-1.0038,-0.9932,-0.988,-0.9738,-0.9522,-0.9497,-0.9209,-0.9001,-0.8949,-0.8793,-0.8703,-0.8703,-0.8546,-0.8012,-0.6938,-0.6707,-0.6093,-0.5018,-0.5018,-0.5018,-0.5018,-0.5018,-0.5018,-0.5018,-0.5018,-0.5018,-0.867,-0.8859,-0.9053,-0.9162,-0.9256,-0.9332,-0.9365,-0.9195,-0.8973,-0.8789,-0.8652,0.0,-0.8152,-0.7391,0.0,0.0,0.0,0.0,-0.5464,-0.5678,-0.5893,0.0,-0.6195,0.0,-0.6426,-0.6736,-0.7132,0.0,-0.763,-0.773,-0.8127,-0.932,-1.0019,-1.0019,-1.0801,-1.1334,-1.1727,-1.2577,-1.3386,-1.3935,-1.4382,-1.46,-1.46,-1.4815,-1.5137,-1.5357,-1.5357,-1.5571,-1.5891,-1.5891,-1.5891,-1.5891,-1.5891,-1.5891,-1.5873,-1.5722,-1.5596,-1.5439,-1.5028,-1.4708,-1.4364,-1.396,-1.334,-1.2759,-1.2467,-1.1785,-1.1194,-1.1194,-1.1194,-1.1194,-1.1194,-1.1194,-1.1194,-1.1194,-1.1194,-1.1194,-1.1194,-1.1194,-1.117,-1.108,-1.0801,-1.0508,-1.031,-1.0093,-1.0038,-1.0038,-1.0038,-1.0038,-1.0038,-0.9852,-0.9743,-0.9573,-0.9436,-0.9223,-0.9039,-0.8911,-0.8803,-0.8708,-0.8703,-0.8241,-0.7322,-0.7015,-0.6402,-0.5401,-0.5171,-0.5018,-0.5018,-0.5018,-0.5018,-0.5018,-0.5018,-0.5018,-0.8703,-0.8859,-0.9025,-0.9025,-0.9152,-0.9237,-0.9063,-0.8982,-0.8841,-0.8477,0.0,-0.8157,-0.7544,-0.6933,-0.6452,-0.5949,0.0,-0.5211,-0.5349,-0.5564,-0.5803,-0.6056,-0.6181,-0.6295,-0.6423,-0.7033,-0.7531,-0.773,-0.773,-0.8127,-0.8924,-0.9719,-1.0216,-1.0216,-1.09,-1.1702,-1.2646,-1.3266,-1.3817,-1.419,-1.4826,-1.5143,-1.5143,-1.5678,-1.5891,-1.5891,-1.5891,-1.5891,-1.5891,-1.5891,-1.5891,-1.5891,-1.5891,-1.5891,-1.5891,-1.5891,-1.5747,-1.5511,-1.5252,-1.4986,-1.4714,-1.4401,-1.3624,-1.2861,-1.2861,-1.2175,-1.1292,-1.1292,-1.1292,-1.1194,-1.1194,-1.1194,-1.1194,-1.1194,-1.1194,-1.1194,-1.1194,-1.1194,-1.1142,-1.0967,-1.074,-1.0518,-1.0343,-1.0112,-1.0038,-1.0038,-1.0038,-1.0038,-1.0038,-1.0038,-0.9885,-0.9705,-0.9663,-0.9497,-0.9138,-0.9058,-0.8944,-0.8755,-0.8641,-0.8318,-0.7859,-0.7169,-0.6479,-0.5941,-0.5323,-0.5018,-0.5018,-0.5018,-0.5018,-0.5018,-0.5018,-0.5018,-0.8703,-0.8859,-0.9025,-0.9025,-0.9048,-0.9067,-0.903,-0.876,0.0,0.0,-0.8259,-0.8127,-0.8014,-0.7115,-0.6466,-0.6455,-0.564,-0.5121,-0.5339,-0.5491,-0.5706,0.0,-0.6105,-0.62,-0.6415,-0.6537,0.0,0.0,-0.8623,-0.8924,-0.9719,-1.0507,-1.1194,-1.1683,-1.178,-1.2569,-1.4005,-1.4055,-1.4614,-1.55,-1.5654,-1.5785,-1.5785,-1.5891,-1.5891,-1.5891,-1.5891,-1.5891,-1.5891,-1.5891,-1.5891,-1.5891,-1.5891,-1.5891,-1.5891,-1.5891,-1.5861,-1.5783,-1.5523,-1.5264,-1.4956,-1.4461,-1.3919,-1.3346,-1.3346,-1.2662,-1.1878,-1.1878,-1.1585,-1.1194,-1.1194,-1.1194,-1.1194,-1.1194,-1.1194,-1.1194,-1.1194,-1.1194,-1.1184,-1.1151,-1.0834,-1.0565,-1.0527,-1.0206,-1.0038,-1.0038,-1.0038,-1.0038,-1.0038,-1.0038,-1.0024,-0.9904,-0.9748,-0.9531,-0.9461,-0.9223,-0.9011,-0.8968,-0.8335,-0.7936,-0.7783,-0.671,-0.6018,-0.5941,-0.5323,-0.5018,-0.5018,-0.5018,-0.5018,-0.5018,-0.5018,-0.5018,-0.8703,-0.8779,-0.8855,-0.8855,-0.8855,-0.8826,-0.8722,0.0,0.0,0.0,-0.7995,-0.7822,-0.7437,-0.6952,0.0,-0.6033,-0.5588,-0.5309,-0.5322,-0.5379,0.0,-0.5869,-0.601,-0.6154,0.0,-0.7096,-0.8127,-0.9118,-1.0006,-1.06,-1.0998,-1.1683,-1.2175,-1.237,-1.2662,-1.3281,-1.4276,-1.4587,-1.516,-1.5891,-1.5891,-1.5891,-1.5891,-1.5891,-1.5891,-1.5891,-1.5891,-1.5891,-1.5891,-1.5891,-1.5891,-1.5891,-1.5891,-1.5891,-1.5891,-1.5891,-1.5891,-1.5849,-1.559,-1.5324,-1.504,-1.4642,-1.4037,-1.3539,-1.3539,-1.2958,-1.237,-1.2078,-1.1785,-1.159,-1.159,-1.159,-1.159,-1.159,-1.1389,-1.1194,-1.1194,-1.1194,-1.1194,-1.1194,-1.0858,-1.0575,-1.0575,-1.023,-1.0038,-1.0294,-1.0294,-1.0294,-1.0294,-1.0294,-1.0207,-1.0038,-0.9861,-0.9762,-0.9573,-0.9464,-0.9256,-0.9039,-0.8613,-0.8353,-0.8246,-0.7092,-0.6402,-0.6402,-0.5479,-0.5018,-0.5018,-0.5018,-0.5018,-0.5018,-0.5018,-0.5018,-0.8309,-0.8318,-0.8309,-0.8263,-0.8254,-0.8205,-0.801,-0.7934,0.0,-0.75,-0.7405,-0.7257,-0.6766,-0.6625,-0.6383,0.0,-0.5539,-0.5433,-0.5357,-0.5358,-0.5461,0.0,-0.5918,0.0,-0.6543,-0.772,0.0,-0.9801,-1.138,-1.2273,-1.2175,-1.257,-1.2861,-1.2958,-1.3346,-1.3779,-1.448,-1.4898,-1.5372,-1.5891,-1.5891,-1.5891,-1.5891,-1.5891,-1.5891,-1.5891,-1.5891,-1.5891,-1.5891,-1.5891,-1.5891,-1.5891,-1.5891,-1.5891,-1.5891,-1.5891,-1.5891,-1.5849,-1.559,-1.5324,-1.5065,-1.4805,-1.424,-1.3636,-1.3636,-1.3346,-1.2861,-1.2273,-1.2078,-1.198,-1.198,-1.198,-1.198,-1.198,-1.1683,-1.1389,-1.1389,-1.1487,-1.1585,-1.1585,-1.1143,-1.076,-1.0847,-1.0493,-1.0294,-1.0722,-1.0722,-1.0722,-1.0722,-1.0636,-1.0463,-1.0125,-1.0038,-0.9885,-0.9724,-0.9672,-0.9424,-0.9181,-0.8913,-0.8714,-0.8544,-0.7342,-0.671,-0.671,-0.5556,-0.5018,-0.5018,-0.5018,-0.5018,-0.5018,-0.5018,-0.5018,-0.713,-0.7092,-0.7053,-0.6895,-0.6857,-0.6814,-0.6729,0.0,-0.6371,-0.6337,-0.6213,-0.6172,-0.6609,-0.6019,-0.5721,-0.6635,0.0,-0.5103,-0.5625,-0.5546,-0.5461,-0.5703,0.0,0.0,-0.7295,-0.7524,-0.8459,-1.0569,-1.2355,-1.3152,-1.2764,-1.2764,-1.2958,-1.3443,-1.3443,-1.3976,-1.4999,-1.5107,-1.5372,-1.5891,-1.5891,-1.5891,-1.5891,-1.5891,-1.5891,-1.5891,-1.5891,-1.5891,-1.5891,-1.5891,-1.5891,-1.5891,-1.5891,-1.5891,-1.5891,-1.5891,-1.5891,-1.5849,-1.559,-1.5324,-1.5065,-1.4805,-1.4527,-1.4202,-1.4202,-1.3823,-1.3346,-1.2861,-1.237,-1.198,-1.198,-1.198,-1.198,-1.198,-1.198,-1.1883,-1.1883,-1.2273,-1.2667,-1.2667,-1.1905,-1.1405,-1.1768,-1.1112,-1.0722,-1.1154,-1.1241,-1.1241,-1.1241,-1.089,-1.0549,-1.0549,-1.0207,-1.0028,-0.9927,-0.9752,-0.9545,-0.9508,-0.8666,-0.8145,-0.8124,-0.6787,-0.6015,-0.6015,-0.5326,-0.5018,-0.5018,-0.5018,-0.5018,-0.5018,-0.5018,-0.5018,-0.6702,-0.6648,-0.6629,-0.6561,-0.6546,-0.6501,-0.6335,0.0,-0.6165,-0.6071,-0.5933,-0.5954,-0.6152,-0.5951,-0.5814,-0.5983,-0.5596,0.0,-0.5303,-0.5314,-0.5322,-0.5494,-0.5684,0.0,0.0,0.0,-0.9694,-1.2237,-1.3431,-1.3913,-1.3721,-1.3721,-1.3817,-1.4016,-1.4016,-1.4368,-1.5101,-1.5107,-1.5372,-1.5891,-1.5891,-1.5891,-1.5891,-1.5891,-1.5891,-1.5891,-1.5891,-1.5891,-1.5891,-1.5891,-1.5891,-1.5891,-1.5891,-1.5891,-1.5891,-1.5891,-1.5789,-1.5638,-1.5535,-1.5228,-1.4853,-1.4751,-1.4527,-1.4298,-1.4298,-1.4106,-1.3823,-1.305,-1.2861,-1.2856,-1.2565,-1.2467,-1.2565,-1.2856,-1.2467,-1.2078,-1.237,-1.2667,-1.2721,-1.2581,-1.2093,-1.1726,-1.1764,-1.1372,-1.1149,-1.1671,-1.1757,-1.1585,-1.1327,-1.1154,-1.0809,-1.0294,-1.0125,-1.0038,-1.0038,-0.9875,-0.9776,-0.9569,-0.9239,-0.8715,-0.8162,-0.7202,-0.6414,-0.5941,-0.5323,-0.5018,-0.5018,-0.5018,-0.5018,-0.5018,-0.5018,-0.5018,-0.5937,-0.5912,-0.5936,-0.5891,-0.5877,-0.5839,0.0,0.0,-0.5616,-0.5449,-0.5428,-0.5495,-0.5624,-0.5719,-0.5734,-0.5654,0.0,-0.5427,-0.526,-0.5252,-0.5395,0.0,0.0,-0.6412,0.0,-0.9569,-1.1404,-1.3329,-1.401,-1.4298,-1.4298,-1.4298,-1.4298,-1.4298,-1.4298,-1.4558,-1.5101,-1.5107,-1.5372,-1.5891,-1.5891,-1.5891,-1.5891,-1.5891,-1.5891,-1.5891,-1.5891,-1.5891,-1.5891,-1.5891,-1.5891,-1.5891,-1.5891,-1.5891,-1.5879,-1.5801,-1.5656,-1.5475,-1.5324,-1.5028,-1.4702,-1.4618,-1.4461,-1.4298,-1.4298,-1.4298,-1.4106,-1.3244,-1.3249,-1.3443,-1.3055,-1.3055,-1.3055,-1.3443,-1.2953,-1.2565,-1.2958,-1.3147,-1.3171,-1.2931,-1.2488,-1.224,-1.2093,-1.175,-1.1671,-1.21,-1.2186,-1.2015,-1.158,-1.1413,-1.0982,-1.0294,-1.0038,-1.0038,-1.0038,-1.0038,-0.9889,-0.9743,-0.9677,-0.9151,-0.8243,-0.7529,-0.6788,-0.5941,-0.5323,-0.5018,-0.5018,-0.5018,-0.5018,-0.5018,-0.5018,-0.5018,-0.4645,-0.4632,-0.4695,-0.4571,-0.4541,-0.4511,0.0,0.0,-0.4303,-0.43,-0.43,-0.4498,-0.502,-0.5047,-0.5259,-0.5946,-0.5657,0.0,-0.5823,-0.5665,-0.5641,0.0,0.0,-0.7095,-0.9397,-1.1898,-1.3443,-1.3539,-1.401,-1.4298,-1.4298,-1.4298,-1.4298,-1.4298,-1.4298,-1.4558,-1.5101,-1.5107,-1.5372,-1.5891,-1.5891,-1.5891,-1.5891,-1.5891,-1.5891,-1.5891,-1.5891,-1.5891,-1.5891,-1.5891,-1.5891,-1.5891,-1.5891,-1.5891,-1.5855,-1.5602,-1.5499,-1.5421,-1.4908,-1.4721,-1.4672,-1.4389,-1.4298,-1.4298,-1.4298,-1.4298,-1.4202,-1.3636,-1.3539,-1.3539,-1.3443,-1.3443,-1.3443,-1.3539,-1.3443,-1.3443,-1.3443,-1.3919,-1.422,-1.3954,-1.332,-1.2881,-1.3081,-1.2452,-1.2186,-1.2619,-1.2705,-1.2528,-1.2015,-1.1585,-1.1149,-1.0636,-1.0207,-1.0038,-1.0038,-1.0038,-1.0038,-1.0038,-0.9757,-0.9215,-0.8427,-0.7592,-0.6788,-0.5941,-0.5323,-0.5018,-0.5018,-0.5018,-0.5018,-0.5018,-0.5018,-0.5018,-0.4157,-0.4132,-0.4153,-0.4113,-0.4234,-0.4421,-0.4384,-0.4438,-0.4561,-0.4631,-0.4434,-0.4431,-0.4827,-0.4981,-0.5075,-0.5454,-0.5501,0.0,0.0,0.0,0.0,-0.6007,-0.7534,-0.898,0.0,0.0,-1.363,-1.4016,-1.4202,-1.4298,-1.4298,-1.4298,-1.4298,-1.4298,-1.4298,-1.4473,-1.4835,-1.5022,-1.5282,-1.5626,-1.5807,-1.5891,-1.5891,-1.5891,-1.5891,-1.5891,-1.5891,-1.5891,-1.5891,-1.5891,-1.5891,-1.5891,-1.5891,-1.5777,-1.5614,-1.5529,-1.527,-1.4944,-1.4775,-1.4594,-1.4419,-1.4328,-1.4298,-1.4298,-1.4298,-1.4298,-1.4298,-1.4106,-1.3823,-1.3539,-1.3919,-1.3727,-1.3636,-1.3919,-1.3727,-1.3636,-1.401,-1.4202,-1.4165,-1.3725,-1.3483,-1.3189,-1.2916,-1.2588,-1.2534,-1.2705,-1.2705,-1.2534,-1.21,-1.1843,-1.158,-1.1154,-1.0982,-1.0641,-1.0038,-1.0207,-1.0115,-0.9331,-0.9443,-0.8828,-0.7112,-0.6894,-0.6425,-0.5479,-0.5321,-0.5168,-0.5168,-0.5093,-0.5018,-0.5018,-0.5018,-0.5018,0.0,-0.3901,-0.3872,-0.3872,-0.4156,0.0,0.0,-0.4537,-0.4694,-0.4764,-0.4631,-0.4564,-0.4764,-0.4942,-0.5101,-0.5219,-0.5414,0.0,0.0,0.0,0.0,-0.6737,0.0,0.0,0.0,-1.2664,-1.3814,-1.4292,-1.4298,-1.4298,-1.4298,-1.4298,-1.4298,-1.4298,-1.4298,-1.4431,-1.4714,-1.4877,-1.5089,-1.5354,-1.5614,-1.5741,-1.5747,-1.5843,-1.5891,-1.5891,-1.5891,-1.5891,0.0,-1.5891,-1.5831,-1.5741,-1.5741,-1.5584,-1.5342,-1.524,-1.4998,-1.4702,-1.4594,-1.4443,-1.4298,-1.4298,-1.4298,-1.4298,-1.4298,-1.4298,-1.4298,-1.4298,-1.401,-1.3919,-1.4202,-1.401,-1.3919,-1.4202,-1.4016,-1.3919,-1.4202,-1.4298,-1.4141,-1.3616,-1.3513,-1.3344,-1.2795,-1.2705,-1.2705,-1.2705,-1.2705,-1.2534,-1.21,-1.2015,-1.1843,-1.1327,-1.1327,-1.0982,-1.0038,-1.0115,-0.9763,-0.8719,-0.8798,-0.8287,-0.6954,-0.6781,-0.6394,-0.5634,-0.5395,-0.5243,-0.5168,-0.5093,-0.5018,-0.5018,-0.5018,-0.5018,0.0,-0.3822,-0.3909,-0.3909,0.0,0.0,0.0,0.0,0.0,-0.4831,-0.4831,-0.4831,-0.4831,-0.5073,-0.5281,-0.5275,-0.5485,0.0,0.0,-0.5957,0.0,0.0,-0.9343,0.0,-1.1882,-1.3171,-1.4008,-1.425,-1.4286,-1.4298,-1.4298,-1.4298,-1.4298,-1.4298,-1.4298,-1.4425,-1.4684,-1.4708,-1.4841,-1.5083,-1.5348,-1.5469,-1.5481,-1.5722,-1.5831,-1.5831,-1.5831,-1.5831,-1.5831,-1.5831,-1.5692,-1.5469,-1.5469,-1.5312,-1.5046,-1.4805,-1.4702,-1.4648,-1.4389,-1.4298,-1.4298,-1.4298,-1.4298,-1.4298,-1.4298,-1.4298,-1.4298,-1.4298,-1.4298,-1.4298,-1.4298,-1.4298,-1.4298,-1.4298,-1.4298,-1.4298,-1.4298,-1.4298,-1.4141,-1.3616,-1.3513,-1.3344,-1.2795,-1.2705,-1.2705,-1.2705,-1.2705,-1.2528,-1.21,-1.2015,-1.1843,-1.1413,-1.1327,-1.0982,-1.0028,-0.9763,-0.9235,-0.8201,-0.7914,-0.7763,-0.7537,-0.7019,-0.6465,-0.617,-0.5628,-0.5168,-0.5018,-0.5018,-0.5018,-0.5018,-0.5018,-0.5018,-0.3893,0.0,-0.3667,-0.3667,-0.4062,-0.447,0.0,0.0,0.0,0.0,0.0,0.0,0.0,0.0,-0.5351,-0.5633,0.0,-0.6006,-0.616,0.0,0.0,-0.7019,-0.9005,-1.0447,-1.0675,-1.2607,-1.393,-1.3996,-1.4183,-1.4298,-1.4298,-1.4298,-1.4298,-1.4298,-1.4298,-1.4328,-1.4395,-1.4612,-1.4745,-1.4811,-1.5077,-1.5197,-1.5203,-1.5264,-1.5288,-1.5288,-1.5288,-1.5288,-1.5288,-1.5288,-1.5252,-1.5197,-1.5197,-1.504,-1.4805,-1.4739,-1.4582,-1.4389,-1.4322,-1.4298,-1.4298,-1.4298,-1.4298,-1.4298,-1.4298,-1.4298,-1.4298,-1.4298,-1.4298,-1.4298,-1.4298,-1.4298,-1.4298,-1.4298,-1.4298,-1.4298,-1.4298,-1.4298,-1.4141,-1.3616,-1.3513,-1.3344,-1.2795,-1.2705,-1.2705,-1.2705,-1.2705,-1.2619,-1.2528,-1.2534,-1.2534,-1.2357,-1.1757,-1.1241,-1.0982,-1.0631,-0.9501,-0.7492,-0.7722,-0.7395,-0.6213,-0.6185,-0.6045,-0.5715,-0.5476,-0.5168,-0.5018,-0.5018,-0.5018,-0.5018,-0.5018,-0.5018,-0.3577,-0.3691,-0.3691,-0.3747,-0.4167,-0.4607,0.0,0.0,0.0,0.0,0.0,0.0,0.0,0.0,0.0,0.0,-0.5871,0.0,0.0,0.0,-0.7026,-0.7843,-0.9266,-1.0494,-1.1494,-1.2842,-1.3773,-1.3894,-1.4153,-1.4298,-1.4298,-1.4298,-1.4298,-1.4298,-1.4298,-1.4298,-1.4298,-1.4449,-1.4521,-1.4527,-1.4799,-1.4932,-1.4932,-1.5052,-1.5107,-1.5107,-1.5107,-1.5107,-1.5107,-1.5107,-1.5034,-1.4932,-1.4932,-1.4763,-1.4521,-1.4521,-1.4431,-1.4298,-1.4298,-1.4298,-1.4298,-1.4298,-1.4298,-1.4298,-1.4298,-1.4298,-1.4298,-1.4298,-1.4298,-1.4298,-1.4298,-1.4298,-1.4298,-1.4298,-1.4298,-1.4298,-1.4298,-1.4201,-1.3996,-1.3592,-1.3417,-1.32,-1.2777,-1.2705,-1.2705,-1.2705,-1.2705,-1.2705,-1.2705,-1.2705,-1.2705,-1.2705,-1.2272,-1.158,-1.0712,-1.0448,-0.9492,-0.7749,-0.7343,-0.6851,-0.6047,-0.6072,-0.5931,-0.564,-0.5401,-0.5321,-0.5401,-0.5401,-0.5556,-0.5864,-0.5556,-0.5401,-0.3188,-0.3522,-0.3685,-0.391,-0.4342,-0.4668,-0.4671,0.0,0.0,0.0,0.0,0.0,0.0,-0.5428,0.0,0.0,0.0,0.0,-0.6224,-0.6673,-0.7518,-0.9064,-0.9757,0.0,-1.268,-1.3207,-1.3562,-1.3827,-1.4087,-1.4256,-1.4292,-1.4298,-1.4298,-1.4298,-1.4298,-1.4298,-1.4298,-1.4298,-1.4298,-1.4298,-1.4539,-1.4654,-1.466,-1.4883,-1.4986,-1.4986,-1.4986,-1.4986,-1.4986,-1.4986,-1.4853,-1.4654,-1.4654,-1.4509,-1.4298,-1.4298,-1.4298,-1.4298,-1.4298,-1.4298,-1.4298,-1.4298,-1.4298,-1.4298,-1.4298,-1.4298,-1.4298,-1.4298,-1.4298,-1.4298,-1.4298,-1.4298,-1.4298,-1.4298,-1.4298,-1.4298,-1.4298,-1.4093,-1.3827,-1.3568,-1.3302,-1.3031,-1.2753,-1.2705,-1.2705,-1.2705,-1.2705,-1.2705,-1.2705,-1.2705,-1.2705,-1.2705,-1.2443,-1.1746,-1.0443,-0.9836,-0.9213,-0.8491,-0.7049,-0.6307,-0.6315,-0.6189,-0.5912,-0.564,-0.5476,-0.5553,-0.5864,-0.5864,-0.6247,-0.6861,-0.6093,-0.5786,-0.3294,-0.313,-0.291,-0.3799,-0.4281,-0.4543,-0.4668,0.0,0.0,0.0,0.0,0.0,0.0,-0.5428,-0.5457,0.0,0.0,-0.6207,0.0,0.0,-0.8,-0.8242,0.0,-1.1251,-1.1548,-1.2581,-1.3296,-1.3556,-1.3815,-1.4063,-1.4286,-1.4298,-1.4298,-1.4298,-1.4298,-1.4298,-1.4298,-1.4298,-1.4298,-1.4298,-1.434,-1.4358,-1.4358,-1.4401,-1.4419,-1.4419,-1.4419,-1.4419,-1.4419,-1.4419,-1.4395,-1.4358,-1.4358,-1.4334,-1.4298,-1.4298,-1.4298,-1.4298,-1.4298,-1.4298,-1.4298,-1.4298,-1.4298,-1.4298,-1.4298,-1.4298,-1.4298,-1.4298,-1.4298,-1.4298,-1.4298,-1.4298,-1.4298,-1.4298,-1.4298,-1.4298,-1.4298,-1.4093,-1.3827,-1.3568,-1.3302,-1.3031,-1.2753,-1.2705,-1.2705,-1.2705,-1.2705,-1.2705,-1.2705,-1.2705,-1.2705,-1.2705,-1.1311,-1.0875,-1.218,-0.9314,-0.8127,-0.9427,-0.7651,-0.6532,-0.6339,-0.6067,-0.5811,-0.5637,-0.5938,-0.6012,-0.5864,-0.5864,-0.6247,-0.6865,-0.5709,-0.5401,-0.2402,-0.2573,-0.2699,-0.3656,-0.4042,-0.432,-0.4827,0.0,0.0,0.0,0.0,0.0,0.0,0.0,-0.5457,-0.5752,0.0,-0.6338,-0.6338,-0.7308,-0.825,-0.8819,-1.0268,-1.1494,-1.2015,-1.2697,-1.3175,-1.3296,-1.3676,-1.396,-1.4081,-1.422,-1.4298,-1.4298,-1.4298,-1.4484,-1.4867,-1.4867,-1.4675,-1.4298,-1.4298,-1.4484,-1.4867,-1.4484,-1.4484,-1.4867,-1.449,-1.4298,-1.4298,-1.4771,-1.4675,-1.4298,-1.4771,-1.4675,-1.4298,-1.4298,-1.4208,-1.4087,-1.4087,-1.3996,-1.3894,-1.4039,-1.4087,-1.4111,-1.4256,-1.4298,-1.4298,-1.4298,-1.4298,-1.4298,-1.4298,-1.4298,-1.4298,-1.4298,-1.4298,-1.4256,-1.4117,-1.3882,-1.3616,-1.3357,-1.3085,-1.2856,-1.2729,-1.2705,-1.2705,-1.2705,-1.2705,-1.2705,-1.2705,-1.2705,-1.2705,-1.2705,-1.1918,-1.1311,-1.1225,-0.957,-0.8406,-0.8062,-0.7151,-0.6481,-0.6271,-0.618,-0.6099,-0.6177,-0.6328,-0.6556,-0.6938,-0.6938,-0.7246,-0.7859,-0.6633,-0.6325,-0.1623,-0.1971,-0.2398,-0.3531,0.0,-0.4335,-0.4971,0.0,0.0,0.0,0.0,0.0,0.0,-0.5416,0.0,-0.5766,-0.6207,-0.6567,-0.6567,-0.7793,-0.8991,-0.972,-1.0863,-1.1929,-1.2619,-1.2898,-1.3055,-1.3121,-1.3495,-1.3749,-1.3809,-1.4002,-1.4141,-1.4201,-1.4392,-1.4804,-1.5432,-1.5629,-1.5439,-1.4867,-1.4867,-1.5153,-1.5629,-1.5057,-1.5153,-1.5629,-1.5057,-1.4867,-1.4867,-1.5439,-1.5248,-1.4675,-1.5439,-1.521,-1.4481,-1.423,-1.3984,-1.3815,-1.3815,-1.3682,-1.355,-1.3749,-1.3815,-1.3851,-1.4051,-1.4117,-1.4129,-1.4189,-1.4208,-1.422,-1.428,-1.4298,-1.4298,-1.4298,-1.425,-1.4153,-1.3948,-1.3652,-1.3363,-1.3163,-1.2898,-1.2705,-1.2705,-1.2705,-1.2705,-1.2705,-1.2705,-1.2705,-1.2705,-1.2705,-1.2619,-1.2363,-1.2186,-1.1289,-0.9338,-0.9498,-0.8883,-0.7062,-0.6823,-0.6684,-0.6574,-0.6641,-0.6795,-0.6868,-0.6945,-0.7249,-0.7783,-0.7783,-0.8089,-0.8703,-0.7476,-0.7246,-0.1623,-0.1432,-0.1478,-0.3467,-0.4296,0.0,-0.5034,-0.525,0.0,-0.5428,0.0,0.0,0.0,-0.5586,-0.5776,-0.5796,-0.6727,-0.7407,-0.7407,-0.9211,-1.0536,-1.0616,-1.179,-1.2619,-1.2705,-1.2723,-1.2843,-1.3103,-1.3157,-1.329,-1.3532,-1.3562,-1.3682,-1.3924,-1.4577,-1.5071,-1.5432,-1.6103,-1.6487,-1.6393,-1.6393,-1.6487,-1.6487,-1.6487,-1.6487,-1.6487,-1.6487,-1.6393,-1.6393,-1.6487,-1.6015,-1.5432,-1.6197,-1.5846,-1.4823,-1.3933,-1.3562,-1.3544,-1.3544,-1.3532,-1.3519,-1.3538,-1.3544,-1.355,-1.3568,-1.3568,-1.3622,-1.387,-1.3936,-1.399,-1.4238,-1.4298,-1.4298,-1.4298,-1.4111,-1.393,-1.3912,-1.3507,-1.3145,-1.3127,-1.2898,-1.2705,-1.2705,-1.2705,-1.2705,-1.2705,-1.2705,-1.2705,-1.2705,-1.2705,-1.2363,-1.1494,-1.0621,-0.9334,-0.7293,-0.863,-0.8999,-0.7688,-0.752,-0.7419,-0.7407,-0.7783,-0.7855,-0.7706,-0.7868,-0.7944,-0.7783,-0.7783,-0.8089,-0.8703,-0.7476,-0.7246,-0.1149,-0.1689,-0.2378,-0.3246,-0.423,0.0,0.0,-0.5318,-0.5428,-0.5428,-0.5428,0.0,0.0,0.0,-0.5833,-0.5928,-0.6795,-0.7484,-0.7484,-0.9179,-1.0534,-1.0681,-1.174,-1.2524,-1.2687,-1.2705,-1.2747,-1.2856,-1.3025,-1.3163,-1.3266,-1.3429,-1.3738,-1.4286,-1.4566,-1.5157,-1.6182,-1.6552,-1.6913,-1.7363,-1.6857,-1.6864,-1.7232,-1.677,-1.6764,-1.6948,-1.6472,-1.6084,-1.5903,-1.6461,-1.6182,-1.5447,-1.5362,-1.4747,-1.4012,-1.3641,-1.3411,-1.3272,-1.3272,-1.3157,-1.3037,-1.3218,-1.3272,-1.3302,-1.3465,-1.3513,-1.3538,-1.3634,-1.3664,-1.3761,-1.4183,-1.4177,-1.4051,-1.4051,-1.3851,-1.3622,-1.3459,-1.3266,-1.3073,-1.2898,-1.2777,-1.2705,-1.2705,-1.2705,-1.2705,-1.2705,-1.2705,-1.2705,-1.2705,-1.2705,-1.2357,-1.1408,-0.99,-0.8556,-0.7716,-0.8106,-0.8158,-0.759,-0.7521,-0.771,-0.8246,-0.8161,-0.8161,-0.8318,-0.8399,-0.8556,-0.8703,-0.8703,-0.8861,-0.9013,-0.7936,-0.7783,-0.1229,-0.2086,-0.3051,0.0,0.0,0.0,-0.5338,-0.5428,-0.5428,-0.5428,-0.5466,0.0,-0.5569,0.0,0.0,0.0,-0.7211,-0.794,-0.8246,-0.9653,-1.0723,-1.0971,-1.1699,-1.2294,-1.2554,-1.2578,-1.2614,-1.2699,-1.288,-1.2988,-1.2988,-1.3163,-1.3558,-1.4352,-1.4619,-1.5376,-1.6727,-1.6903,-1.7334,-1.7779,-1.7266,-1.7202,-1.7743,-1.7202,-1.7091,-1.7333,-1.6779,-1.6468,-1.6264,-1.6808,-1.6712,-1.6073,-1.483,-1.4269,-1.3995,-1.3462,-1.3145,-1.2988,-1.2988,-1.2868,-1.2735,-1.2928,-1.2988,-1.3025,-1.3206,-1.326,-1.3278,-1.3363,-1.3393,-1.3495,-1.3936,-1.3918,-1.3779,-1.3779,-1.3586,-1.3344,-1.3163,-1.3055,-1.2934,-1.2741,-1.2705,-1.2705,-1.2705,-1.2705,-1.2705,-1.2705,-1.2705,-1.2705,-1.2705,-1.2705,-1.2242,-1.0963,-0.928,-0.8178,-0.8028,-0.8049,-0.8212,-0.8259,-0.8246,-0.8475,-0.9084,-0.8922,-0.8922,-0.9084,-0.9084,-0.916,-0.9322,-0.9322,-0.9322,-0.9246,-0.8475,-0.8399,-0.2,-0.2581,0.0,0.0,0.0,0.0,-0.5226,-0.5428,-0.5428,-0.5428,-0.5484,-0.5589,-0.5593,-0.583,0.0,-0.706,-0.8036,-0.9008,-0.9771,-1.0818,-1.1528,-1.1534,-1.1757,-1.2023,-1.2282,-1.2312,-1.2415,-1.2681,-1.2699,-1.2699,-1.2705,-1.2705,-1.3169,-1.4054,-1.4922,-1.5763,-1.6712,-1.7414,-1.7763,-1.7763,-1.7763,-1.7763,-1.7771,-1.7771,-1.7771,-1.7763,-1.7763,-1.7763,-1.7763,-1.7763,-1.7763,-1.7549,-1.5046,-1.4576,-1.5054,-1.331,-1.2705,-1.2705,-1.2705,-1.2705,-1.2705,-1.2705,-1.2705,-1.2705,-1.2705,-1.2705,-1.2765,-1.3043,-1.3121,-1.3181,-1.3441,-1.3507,-1.3507,-1.3513,-1.3308,-1.3121,-1.3121,-1.2904,-1.2705,-1.2705,-1.2705,-1.2705,-1.2705,-1.2705,-1.2705,-1.2705,-1.2705,-1.2705,-1.2699,-1.2699,-1.1912,-0.9897,-0.8861,-0.8122,-0.7764,-0.8607,-0.9306,-0.9857,-0.9922,-0.9922,-0.9922,-1.0293,-1.0293,-0.9922,-0.9922,-0.9695,-0.9322,-0.9322,-0.9322,-0.9322,-0.8856,-0.8932,-0.2596,-0.3306,0.0,-0.4213,0.0,0.0,0.0,-0.5428,0.0,0.0,-0.5951,-0.6444,-0.6557,-0.7194,0.0,-0.8205,-0.8964,-0.9614,-0.9846,-1.0657,-1.131,-1.151,-1.16,-1.1751,-1.2011,-1.2116,-1.2394,-1.2665,-1.285,-1.3021,-1.3209,-1.3795,-1.4412,-1.5175,-1.5777,-1.6422,-1.7215,-1.704,-1.704,-1.704,-1.704,-1.7294,-1.7771,-1.7771,-1.7644,-1.7429,-1.7429,-1.7278,-1.704,-1.704,-1.6789,-1.6178,-1.4986,-1.4365,-1.4012,-1.3076,-1.2705,-1.2705,-1.2705,-1.2705,-1.2705,-1.2705,-1.2705,-1.2705,-1.2705,-1.2705,-1.2723,-1.2807,-1.2831,-1.285,-1.2922,-1.2946,-1.2994,-1.3194,-1.3031,-1.2831,-1.2831,-1.2765,-1.2705,-1.2705,-1.2705,-1.2705,-1.2705,-1.2705,-1.2705,-1.2705,-1.2705,-1.2462,-1.1685,-1.0984,-1.0307,-0.9504,-0.8457,-0.8091,-0.8532,-0.9261,-0.9764,-0.9922,-1.0438,-1.0738,-1.0738,-1.0293,-1.0143,-1.0293,-1.0067,-0.9992,-1.0143,-0.9846,-0.9695,-0.9695,-0.9316,-0.917,-0.3363,0.0,0.0,-0.4737,-0.5093,-0.5491,-0.5752,0.0,0.0,0.0,-0.6403,-0.7024,-0.7341,-0.8093,-0.8702,-0.9135,-0.9614,-0.9992,-1.0293,-1.0812,-1.1178,-1.1417,-1.1441,-1.1621,-1.1975,-1.2006,-1.2196,-1.255,-1.2969,-1.3284,-1.3536,-1.4267,-1.5065,-1.5717,-1.6053,-1.6461,-1.7192,-1.6875,-1.6636,-1.6565,-1.6565,-1.6701,-1.6945,-1.7231,-1.7247,-1.7064,-1.7064,-1.6937,-1.6656,-1.6402,-1.6064,-1.5567,-1.465,-1.4068,-1.3646,-1.296,-1.2705,-1.2705,-1.2705,-1.2705,-1.2705,-1.2705,-1.2705,-1.2705,-1.2705,-1.2705,-1.2705,-1.2705,-1.2705,-1.2705,-1.2705,-1.2705,-1.2747,-1.2916,-1.2825,-1.2705,-1.2705,-1.2705,-1.2705,-1.2705,-1.2705,-1.2674,-1.2566,-1.2548,-1.2512,-1.2409,-1.2397,-1.2171,-1.1512,-1.0579,-0.9911,-0.9687,-0.8754,-0.8492,-0.9199,-0.9693,-1.0067,-1.0368,-1.0812,-1.1111,-1.1111,-1.0663,-1.0443,-1.0513,-1.0443,-1.0443,-1.0513,-1.0067,-0.9992,-1.0143,-0.9544,-0.9473,-0.4296,0.0,0.0,-0.5428,-0.5428,0.0,-0.6268,-0.5947,-0.5752,-0.6334,0.0,-0.7433,-0.808,-0.8567,-0.9155,-0.9916,-0.9992,-1.0293,-1.1037,-1.1111,-1.1186,-1.1409,-1.1409,-1.1583,-1.2005,-1.1877,-1.2067,-1.2574,-1.314,-1.3533,-1.3881,-1.4569,-1.5265,-1.5888,-1.5964,-1.6277,-1.6826,-1.6826,-1.6683,-1.631,-1.6319,-1.6081,-1.5774,-1.6349,-1.6635,-1.6635,-1.6635,-1.6635,-1.6553,-1.589,-1.5644,-1.5479,-1.4156,-1.3652,-1.3574,-1.2886,-1.2632,-1.2632,-1.2632,-1.2632,-1.2632,-1.2632,-1.2632,-1.2632,-1.2632,-1.265,-1.2668,-1.2668,-1.2687,-1.2705,-1.2705,-1.2705,-1.2705,-1.2705,-1.2705,-1.2705,-1.2705,-1.2687,-1.2668,-1.2668,-1.265,-1.256,-1.2318,-1.2276,-1.2198,-1.1956,-1.192,-1.1834,-1.181,-1.0986,-1.0407,-1.0261,-0.9521,-0.9281,-0.9933,-0.9992,-1.0293,-1.1037,-1.1111,-1.1111,-1.1111,-1.1037,-1.0887,-1.0588,-1.0887,-1.0887,-1.0513,-1.0143,-1.0143,-1.0519,-0.9771,-0.9771,-0.4747,-0.5178,0.0,0.0,-0.5815,-0.6203,-0.64,-0.6662,-0.6994,-0.7125,-0.8054,-0.8855,-0.9001,-0.9879,-1.0663,-1.0812,-1.0962,-1.1111,-1.1335,-1.1335,-1.1409,-1.1632,-1.1484,-1.1509,-1.1795,-1.1877,-1.2362,-1.3251,-1.366,-1.4143,-1.5096,-1.5888,-1.6438,-1.659,-1.6977,-1.7212,-1.7371,-1.6977,-1.675,-1.6683,-1.6463,-1.6242,-1.6166,-1.5996,-1.5904,-1.5904,-1.5904,-1.5904,-1.5904,-1.5278,-1.4963,-1.4885,-1.3607,-1.3046,-1.2965,-1.2326,-1.2089,-1.2089,-1.2089,-1.2089,-1.2089,-1.2089,-1.2089,-1.2089,-1.2089,-1.2234,-1.2397,-1.2397,-1.2542,-1.2705,-1.2705,-1.2705,-1.2705,-1.2705,-1.2705,-1.2705,-1.2705,-1.2542,-1.2397,-1.2397,-1.2234,-1.2071,-1.2017,-1.2005,-1.1986,-1.1932,-1.192,-1.1603,-1.0762,-1.0499,-1.025,-1.0019,-0.984,-0.9965,-1.0818,-1.0812,-1.0887,-1.1111,-1.1111,-1.1111,-1.1111,-1.0812,-1.0738,-1.0962,-1.0738,-1.0738,-1.0962,-1.0594,-1.0443,-1.0513,-1.0293,-1.0293,-0.5175,0.0,0.0,-0.5815,0.0,-0.699,-0.7312,-0.7707,-0.8037,-0.8495,-0.8847,-0.9278,-0.9817,-1.0509,-1.1114,-1.1316,-1.1484,-1.1558,-1.1558,-1.1558,-1.1632,-1.1855,-1.1781,-1.1781,-1.2003,-1.2365,-1.2868,-1.3467,-1.4213,-1.4951,-1.5585,-1.6418,-1.6872,-1.6872,-1.7099,-1.718,-1.718,-1.6954,-1.6727,-1.6581,-1.6224,-1.5856,-1.5502,-1.5607,-1.5674,-1.5674,-1.5674,-1.552,-1.5211,-1.4591,-1.4123,-1.3803,-1.2784,-1.2393,-1.2393,-1.2,-1.192,-1.192,-1.192,-1.192,-1.192,-1.192,-1.192,-1.192,-1.192,-1.2017,-1.2125,-1.2125,-1.2228,-1.233,-1.233,-1.233,-1.233,-1.233,-1.2427,-1.2518,-1.2518,-1.2312,-1.2125,-1.2125,-1.2017,-1.1884,-1.1757,-1.1624,-1.1534,-1.1534,-1.1534,-1.1325,-1.0724,-1.0707,-1.0656,-1.0455,-1.0443,-1.0663,-1.1037,-1.1111,-1.1111,-1.1111,-1.1111,-1.1111,-1.1111,-1.0887,-1.0887,-1.1111,-1.0887,-1.0887,-1.1111,-1.0663,-1.0594,-1.0812,-1.0588,-1.0594,-0.5491,0.0,-0.5877,-0.6465,-0.712,0.0,-0.8361,-0.8619,-0.8947,-0.967,-0.9414,-0.9389,-1.0485,-1.0827,-1.1166,-1.1588,-1.1706,-1.1781,-1.1781,-1.1781,-1.1855,-1.2003,-1.2003,-1.215,-1.2445,-1.2952,-1.3455,-1.389,-1.4887,-1.5683,-1.5974,-1.6551,-1.6908,-1.6908,-1.6908,-1.6908,-1.6908,-1.6908,-1.676,-1.6412,-1.5982,-1.5409,-1.4729,-1.5237,-1.5499,-1.5499,-1.5499,-1.5194,-1.4582,-1.3888,-1.326,-1.2713,-1.2012,-1.1781,-1.1781,-1.1781,-1.1781,-1.1781,-1.1781,-1.1781,-1.1781,-1.1781,-1.1781,-1.1781,-1.1781,-1.1817,-1.1854,-1.1854,-1.1884,-1.192,-1.192,-1.192,-1.192,-1.192,-1.2053,-1.2192,-1.2234,-1.2041,-1.1854,-1.1854,-1.1817,-1.1715,-1.1498,-1.1268,-1.1111,-1.1111,-1.1111,-1.1111,-1.1111,-1.1111,-1.1111,-1.1111,-1.1111,-1.1111,-1.1111,-1.1111,-1.1111,-1.1111,-1.1111,-1.1111,-1.1111,-1.1111,-1.1111,-1.1111,-1.1111,-1.1111,-1.1111,-1.0738,-1.0738,-1.1111,-1.0738,-1.0812,0.0,0.0,-0.6465,0.0,-0.7902,-0.8544,0.0,0.0,-0.967,0.0,-0.9753,-1.0013,-1.0692,-1.0968,-1.1166,-1.1588,-1.1855,-1.1929,-1.1929,-1.1929,-1.2003,-1.2224,-1.2077,-1.2372,-1.3244,-1.3382,-1.4034,-1.5401,-1.5692,-1.6044,-1.6691,-1.6839,-1.6908,-1.6908,-1.6908,-1.6908,-1.6908,-1.6908,-1.6908,-1.683,-1.6123,-1.5551,-1.5133,-1.4872,-1.4784,-1.4784,-1.4784,-1.4413,-1.3895,-1.3241,-1.2641,-1.2045,-1.1446,-1.122,-1.122,-1.122,-1.122,-1.122,-1.122,-1.122,-1.122,-1.122,-1.122,-1.122,-1.122,-1.1389,-1.1582,-1.1582,-1.1745,-1.192,-1.192,-1.192,-1.192,-1.192,-1.1775,-1.1697,-1.1926,-1.1769,-1.1582,-1.1582,-1.1389,-1.1208,-1.1172,-1.1135,-1.1111,-1.1111,-1.1111,-1.1111,-1.1111,-1.1111,-1.1111,-1.1111,-1.1111,-1.1111,-1.1111,-1.1111,-1.1111,-1.1111,-1.1111,-1.1111,-1.1111,-1.1111,-1.1111,-1.1111,-1.1111,-1.1111,-1.1111,-1.1037,-1.1037,-1.1111,-1.1037,-1.1037,-0.6465,-0.6793,-0.7312,0.0,-0.8748,-0.9274,-0.921,0.0,-0.9926,-1.0053,-1.002,-1.0168,-1.094,-1.1121,-1.1346,-1.1931,-1.2519,-1.2806,-1.2806,-1.3237,-1.352,-1.3593,-1.3528,-1.3665,-1.4106,-1.4537,-1.5046,-1.5762,-1.6193,-1.6551,-1.6908,-1.6908,-1.6908,-1.6908,-1.6908,-1.6908,-1.6908,-1.6908,-1.6769,-1.6551,-1.6272,-1.5771,-1.5196,-1.4991,-1.4776,-1.4569,-1.4274,-1.3833,-1.3258,-1.2666,-1.2003,-1.1484,-1.1186,-1.1111,-1.1111,-1.1111,-1.1111,-1.1111,-1.1111,-1.1111,-1.1111,-1.1111,-1.1111,-1.1111,-1.1111,-1.1196,-1.1298,-1.1298,-1.1377,-1.1467,-1.1467,-1.1467,-1.1467,-1.1467,-1.1377,-1.1329,-1.1443,-1.1377,-1.1298,-1.1298,-1.1196,-1.1111,-1.1111,-1.1111,-1.1111,-1.1111,-1.1111,-1.1111,-1.1111,-1.1111,-1.1111,-1.1111,-1.1111,-1.1111,-1.1111,-1.1111,-1.1111,-1.1111,-1.1111,-1.1111,-1.1111,-1.1111,-1.1111,-1.1111,-1.1111,-1.1111,-1.1111,-1.1111,-1.1111,-1.1111,-1.1111,-1.1111,0.0,0.0,-0.8221,-0.8871,-0.9466,-0.9926,0.0,0.0,-1.011,0.0,-1.0174,-1.0329,-1.1027,-1.1178,-1.1457,-1.2322,-1.3048,-1.3608,-1.3745,-1.425,-1.4601,-1.4601,-1.4601,-1.4673,-1.4895,-1.5471,-1.5903,-1.6053,-1.6621,-1.6908,-1.6908,-1.6908,-1.6908,-1.6908,-1.6908,-1.6908,-1.6908,-1.6908,-1.67,-1.6272,-1.6272,-1.5921,-1.5204,-1.5204,-1.4991,-1.4569,-1.4201,-1.3542,-1.29,-1.2378,-1.1781,-1.1111,-1.1111,-1.1111,-1.1111,-1.1111,-1.1111,-1.1111,-1.1111,-1.1111,-1.1111,-1.1111,-1.1111,-1.1111,-1.1111,-1.1111,-1.1111,-1.1111,-1.1111,-1.1111,-1.1111,-1.1111,-1.1111,-1.1111,-1.1111,-1.1111,-1.1111,-1.1111,-1.1111,-1.1111,-1.1111,-1.1111,-1.1111,-1.1111,-1.1111,-1.1111,-1.1111,-1.1111,-1.1111,-1.1111,-1.1111,-1.1111,-1.1111,-1.1111,-1.1111,-1.1111,-1.1111,-1.1111,-1.1111,-1.1111,-1.1111,-1.1111,-1.1111,-1.1111,-1.1111,-1.1111,-1.1111,-1.1111,-1.1111,-1.1111,-1.1111,-1.1111,0.0,-0.9064,0.0,-0.9786,-1.011,0.0,0.0,0.0,-1.0301,-1.0301,-1.0301,-1.0456,-1.089,-1.1108,-1.1599,-1.2733,-1.3258,-1.3745,-1.4458,-1.4601,-1.4601,-1.4601,-1.4601,-1.4895,-1.5692,-1.5762,-1.6123,-1.676,-1.6908,-1.6908,-1.6908,-1.6908,-1.6908,-1.6908,-1.6908,-1.6908,-1.6908,-1.6908,-1.67,-1.6272,-1.6272,-1.5921,-1.5204,-1.5204,-1.4991,-1.4569,-1.4569,-1.3912,-1.29,-1.29,-1.2157,-1.1111,-1.1111,-1.1111,-1.1111,-1.1111,-1.1111,-1.1111,-1.1111,-1.1111,-1.1111,-1.1111,-1.1111,-1.1111,-1.1111,-1.1111,-1.1111,-1.1111,-1.1111,-1.1111,-1.1111,-1.1111,-1.1111,-1.1111,-1.1111,-1.1111,-1.1111,-1.1111,-1.1111,-1.1111,-1.1111,-1.1111,-1.1111,-1.1111,-1.1111,-1.1111,-1.1111,-1.1111,-1.1111,-1.1111,-1.1111,-1.1111,-1.1111,-1.1111,-1.1111,-1.1111,-1.1111,-1.1111,-1.1111,-1.1111,-1.1111,-1.1111,-1.1111,-1.1111,-1.1111,-1.1111,-1.1111,-1.1111,-1.1111,-1.1111,-1.1111,-1.1111,0.0,0.0,0.0,-1.0047,-1.0244,-1.0308,-1.0238,-1.0364,-1.0498,-1.0498,-1.0498,-1.0651,-1.1199,-1.1758,-1.2265,-1.2921,-1.4096,-1.5046,-1.533,-1.5754,-1.6114,-1.6114,-1.6114,-1.6184,-1.6473,-1.6482,-1.6621,-1.6908,-1.6908,-1.6908,-1.6908,-1.6908,-1.6908,-1.6908,-1.6908,-1.6908,-1.6908,-1.6908,-1.6839,-1.67,-1.6412,-1.6061,-1.5551,-1.5338,-1.4991,-1.4569,-1.4274,-1.3622,-1.29,-1.2452,-1.1855,-1.1111,-1.1111,-1.1111,-1.1111,-1.1111,-1.1111,-1.1111,-1.1111,-1.1111,-1.1111,-1.1111,-1.1111,-1.1111,-1.1111,-1.1111,-1.1111,-1.1111,-1.1111,-1.1111,-1.1111,-1.1111,-1.1111,-1.1111,-1.1111,-1.1111,-1.1111,-1.1111,-1.1111,-1.1111,-1.1111,-1.1111,-1.1111,-1.1111,-1.1111,-1.1111,-1.1111,-1.1111,-1.1111,-1.1111,-1.1111,-1.1111,-1.1111,-1.1111,-1.1111,-1.1111,-1.1111,-1.1111,-1.1111,-1.1111,-1.1111,-1.1111,-1.1111,-1.1111,-1.1111,-1.1111,-1.1111,-1.1111,-1.1111,-1.1111,-1.1111,-1.1111,-0.9709,0.0,0.0,0.0,0.0,-1.0371,-1.0371,-1.0498,-1.0624,-1.0624,-1.0744,-1.0989,-1.1421,-1.2364,-1.3134,-1.3359,-1.4616,-1.5722,-1.593,-1.654,-1.6908,-1.6908,-1.6908,-1.6908,-1.6908,-1.6908,-1.6908,-1.6908,-1.6908,-1.6908,-1.6908,-1.6908,-1.6908,-1.6908,-1.6908,-1.6908,-1.6908,-1.6908,-1.683,-1.67,-1.6551,-1.6263,-1.5762,-1.5551,-1.5204,-1.4776,-1.4122,-1.347,-1.2826,-1.2231,-1.1632,-1.1111,-1.1111,-1.1111,-1.1111,-1.1111,-1.1111,-1.1111,-1.1111,-1.1111,-1.1111,-1.1111,-1.1111,-1.1111,-1.1111,-1.1111,-1.1111,-1.1111,-1.1111,-1.1111,-1.1111,-1.1111,-1.1111,-1.1111,-1.1111,-1.1111,-1.1111,-1.1111,-1.1111,-1.1111,-1.1111,-1.1111,-1.1111,-1.1111,-1.1111,-1.1111,-1.1111,-1.1111,-1.1111,-1.1111,-1.1111,-1.1111,-1.1111,-1.1111,-1.1111,-1.1111,-1.1111,-1.1111,-1.1111,-1.1111,-1.1111,-1.1111,-1.1111,-1.1111,-1.1111,-1.1111,-1.1111,-1.1111,-1.1111,-1.1111,-1.1111,-1.1111,0.0,0.0,0.0,0.0,0.0,0.0,-1.0624,0.0,-1.0624,-1.0624,-1.1115,-1.1483,-1.1545,-1.2923,-1.4104,-1.4104,-1.4758,-1.5469,-1.616,-1.6633,-1.6872,-1.689,-1.689,-1.6899,-1.6908,-1.6908,-1.6908,-1.6908,-1.6908,-1.6908,-1.6908,-1.6908,-1.6908,-1.6908,-1.6908,-1.6908,-1.6908,-1.6908,-1.67,-1.6342,-1.6691,-1.6482,-1.5833,-1.5762,-1.5551,-1.5133,-1.4194,-1.3477,-1.2893,-1.2224,-1.1632,-1.1111,-1.1111,-1.1111,-1.1111,-1.1111,-1.1111,-1.1111,-1.1111,-1.1111,-1.1111,-1.1111,-1.1111,-1.1111,-1.1111,-1.1111,-1.1111,-1.1111,-1.1111,-1.1111,-1.1111,-1.1111,-1.1111,-1.1111,-1.1111,-1.1111,-1.1111,-1.1111,-1.1111,-1.1111,-1.1111,-1.1111,-1.1111,-1.1111,-1.1111,-1.1111,-1.1111,-1.1111,-1.1111,-1.1111,-1.1111,-1.1111,-1.1111,-1.1111,-1.1111,-1.1111,-1.1111,-1.1111,-1.1111,-1.1111,-1.1111,-1.1111,-1.1111,-1.1111,-1.1111,-1.1111,-1.1111,-1.1111,-1.1111,-1.1111,-1.1111,-1.1111,-1.0561,0.0,0.0,0.0,0.0,0.0,-1.1178,0.0,-1.0744,-1.1178,-1.1358,-1.1794,-1.2773,-1.3344,-1.3848,-1.43,-1.5079,-1.5658,-1.5863,-1.5955,-1.6138,-1.645,-1.6477,-1.6587,-1.6881,-1.6908,-1.6908,-1.6908,-1.6908,-1.6908,-1.6908,-1.6908,-1.6908,-1.6908,-1.6908,-1.6908,-1.6908,-1.6908,-1.6839,-1.67,-1.6333,-1.5974,-1.5762,-1.5204,-1.4848,-1.4705,-1.4049,-1.3688,-1.347,-1.2445,-1.1632,-1.1111,-1.1111,-1.1111,-1.1111,-1.1111,-1.1111,-1.1111,-1.1111,-1.1111,-1.1111,-1.1111,-1.1111,-1.1111,-1.1111,-1.1111,-1.1111,-1.1111,-1.1111,-1.1111,-1.1111,-1.1111,-1.1111,-1.1111,-1.1111,-1.1111,-1.1111,-1.1111,-1.1111,-1.1111,-1.1111,-1.1111,-1.1111,-1.1111,-1.1111,-1.1111,-1.1111,-1.1111,-1.1111,-1.1111,-1.1111,-1.1111,-1.1111,-1.1111,-1.1111,-1.1111,-1.1111,-1.1111,-1.1111,-1.1111,-1.1111,-1.1111,-1.1111,-1.1111,-1.1111,-1.1111,-1.1111,-1.1111,-1.1111,-1.1111,-1.1111,-1.1111,0.0,0.0,0.0,0.0,0.0,0.0,-1.1483,-1.1421,-1.1421,-1.1483,-1.1911,-1.2589,-1.3381,-1.3761,-1.407,-1.4455,-1.49,-1.5258,-1.5423,-1.5588,-1.578,-1.6028,-1.6056,-1.6147,-1.6376,-1.6395,-1.6395,-1.6395,-1.6395,-1.6477,-1.6652,-1.6817,-1.6908,-1.6908,-1.6908,-1.6908,-1.6908,-1.6908,-1.6908,-1.6908,-1.6473,-1.6263,-1.6263,-1.563,-1.5204,-1.5062,-1.4338,-1.3905,-1.376,-1.2739,-1.215,-1.1855,-1.1558,-1.1484,-1.1409,-1.1186,-1.1111,-1.1111,-1.1111,-1.1111,-1.1111,-1.1111,-1.1111,-1.1111,-1.1111,-1.1111,-1.1111,-1.1111,-1.1111,-1.1111,-1.1111,-1.1111,-1.1111,-1.1111,-1.1111,-1.1111,-1.1111,-1.1111,-1.1111,-1.1111,-1.1111,-1.1111,-1.1111,-1.1111,-1.1111,-1.1111,-1.1111,-1.1111,-1.1111,-1.1111,-1.1111,-1.1111,-1.1111,-1.1111,-1.1111,-1.1111,-1.1111,-1.1111,-1.1111,-1.1111,-1.1111,-1.1111,-1.1111,-1.1111,-1.1111,-1.1111,-1.1111,-1.1111,-1.1111,-1.1111,-1.1111,-1.1111,0.0,0.0,0.0,0.0,-1.2089,0.0,-1.1849,-1.2151,-1.2328,-1.1849,-1.265,-1.3511,-1.3571,-1.407,-1.4515,-1.4515,-1.4515,-1.4634,-1.4983,-1.5331,-1.5579,-1.5615,-1.5625,-1.5643,-1.5689,-1.5689,-1.5689,-1.5689,-1.5689,-1.5854,-1.623,-1.6578,-1.6771,-1.6771,-1.6817,-1.6844,-1.6844,-1.689,-1.6908,-1.6908,-1.6839,-1.683,-1.6839,-1.6412,-1.6053,-1.5762,-1.484,-1.4266,-1.3977,-1.3404,-1.3039,-1.2826,-1.2305,-1.2077,-1.2003,-1.1409,-1.1186,-1.1186,-1.1111,-1.1111,-1.1111,-1.1111,-1.1111,-1.1111,-1.1111,-1.1111,-1.1111,-1.1111,-1.1111,-1.1111,-1.1111,-1.1111,-1.1111,-1.1111,-1.1111,-1.1111,-1.1111,-1.1111,-1.1111,-1.1111,-1.1111,-1.1111,-1.1111,-1.1111,-1.1111,-1.1111,-1.1111,-1.1111,-1.1111,-1.1111,-1.1111,-1.1111,-1.1111,-1.1111,-1.1111,-1.1111,-1.1111,-1.1111,-1.1111,-1.1111,-1.1111,-1.1111,-1.1111,-1.1111,-1.1111,-1.1111,-1.1111,-1.1111,-1.1111,-1.1111,-1.1111,-1.1111,0.0,0.0,0.0,-1.2956,-1.2826,0.0,-1.3017,-1.2765,-1.2634,-1.3017,-1.3321,-1.3631,-1.4198,-1.4387,-1.4515,-1.4515,-1.4515,-1.4543,-1.4616,-1.4689,-1.4854,-1.5175,-1.5212,-1.534,-1.5661,-1.5689,-1.5689,-1.5689,-1.5689,-1.5725,-1.5808,-1.5881,-1.5927,-1.5927,-1.6257,-1.6431,-1.6431,-1.6743,-1.6908,-1.6908,-1.6551,-1.6412,-1.6421,-1.6053,-1.5833,-1.5762,-1.5267,-1.5196,-1.5401,-1.4911,-1.4049,-1.29,-1.2746,-1.2746,-1.2673,-1.2077,-1.1855,-1.1781,-1.126,-1.1111,-1.1111,-1.1111,-1.1111,-1.1111,-1.1111,-1.1111,-1.1111,-1.1111,-1.1111,-1.1111,-1.1111,-1.1111,-1.1111,-1.1111,-1.1111,-1.1111,-1.1111,-1.1111,-1.1111,-1.1111,-1.1111,-1.1111,-1.1111,-1.1111,-1.1111,-1.1111,-1.1111,-1.1111,-1.1111,-1.1111,-1.1111,-1.1111,-1.1111,-1.1111,-1.1111,-1.1111,-1.1111,-1.1111,-1.1111,-1.1111,-1.1111,-1.1111,-1.1111,-1.1111,-1.1111,-1.1111,-1.1111,-1.1111,-1.1111,-1.1111,-1.1111,-1.1111,-1.2512,-1.2757,-1.307,-1.3442,-1.3511,0.0,0.0,-1.3511,-1.3511,-1.3511,-1.3761,-1.407,-1.4446,-1.4515,-1.4515,-1.4515,-1.4515,-1.4515,-1.4515,-1.4515,-1.4588,-1.4781,-1.4808,-1.4882,-1.5084,-1.5102,-1.5102,-1.5102,-1.5285,-1.5395,-1.5395,-1.5579,-1.5689,-1.5689,-1.589,-1.6001,-1.6001,-1.6202,-1.6404,-1.6615,-1.6401,-1.6441,-1.6621,-1.6412,-1.6263,-1.6053,-1.5842,-1.5771,-1.5762,-1.5346,-1.4768,-1.4049,-1.3695,-1.3477,-1.3251,-1.2298,-1.2003,-1.1929,-1.1335,-1.1111,-1.1111,-1.1111,-1.1111,-1.1111,-1.1111,-1.1111,-1.1111,-1.1111,-1.1111,-1.1111,-1.1111,-1.1111,-1.1111,-1.1111,-1.1111,-1.1111,-1.1111,-1.1111,-1.1111,-1.1111,-1.1111,-1.1111,-1.1111,-1.1111,-1.1111,-1.1111,-1.1111,-1.1111,-1.1111,-1.1111,-1.1111,-1.1111,-1.1111,-1.1111,-1.1111,-1.1111,-1.1111,-1.1111,-1.1111,-1.1111,-1.1111,-1.1111,-1.1111,-1.1111,-1.1111,-1.1111,-1.1111,-1.1111,-1.1111,-1.1111,-1.1111,-1.1111,-1.3001,-1.3422,-1.3787,-1.3718,-1.407,-1.4387,0.0,0.0,0.0,-1.3821,-1.413,-1.4515,-1.4515,-1.4515,-1.4515,-1.4515,-1.4515,-1.4515,-1.4515,-1.4515,-1.4515,-1.4515,-1.4515,-1.4515,-1.4515,-1.4515,-1.4515,-1.4515,-1.4808,-1.4983,-1.4983,-1.5285,-1.546,-1.546,-1.5533,-1.5579,-1.5579,-1.5652,-1.5863,-1.6193,-1.6193,-1.6358,-1.667,-1.6762,-1.6582,-1.6305,-1.6315,-1.6202,-1.5974,-1.5559,-1.5417,-1.5346,-1.4633,-1.4201,-1.3833,-1.2732,-1.2298,-1.2077,-1.1484,-1.1186,-1.1111,-1.1111,-1.1111,-1.1111,-1.1111,-1.1111,-1.1111,-1.1111,-1.1111,-1.1111,-1.1111,-1.1111,-1.1111,-1.1111,-1.1111,-1.1111,-1.1111,-1.1111,-1.1111,-1.1111,-1.1111,-1.1111,-1.1111,-1.1111,-1.1111,-1.1111,-1.1111,-1.1111,-1.1111,-1.1111,-1.1111,-1.1111,-1.1111,-1.1111,-1.1111,-1.1111,-1.1111,-1.1111,-1.1111,-1.1111,-1.1111,-1.1111,-1.1111,-1.1111,-1.1111,-1.1111,-1.1111,-1.1111,-1.1111,-1.1111,-1.1111,-1.1111,-1.4925,-1.4834,-1.4823,-1.4478,-1.4446,-1.4455,-1.4387,0.0,-1.4455,-1.4387,0.0,-1.4515,-1.4515,0.0,0.0,-1.4515,-1.4515,-1.4515,-1.4515,-1.4515,-1.4515,-1.4515,-1.4515,-1.4515,-1.4515,-1.4515,-1.4515,-1.4515,-1.4552,-1.4579,-1.4579,-1.4616,-1.4643,-1.4643,-1.4983,-1.5166,-1.5166,-1.5515,-1.5716,-1.5762,-1.5762,-1.578,-1.5845,-1.6211,-1.6318,-1.6269,-1.6269,-1.6482,-1.676,-1.6342,-1.6202,-1.6061,-1.4991,-1.4569,-1.4418,-1.3833,-1.3251,-1.2673,-1.2077,-1.1558,-1.1111,-1.1111,-1.1111,-1.1111,-1.1111,-1.1111,-1.1111,-1.1111,-1.1111,-1.1111,-1.1111,-1.1111,-1.1111,-1.1111,-1.1111,-1.1111,-1.1111,-1.1111,-1.1111,-1.1111,-1.1111,-1.1111,-1.1111,-1.1111,-1.1111,-1.1111,-1.1111,-1.1111,-1.1111,-1.1111,-1.1111,-1.1111,-1.1111,-1.1111,-1.1111,-1.1111,-1.1111,-1.1111,-1.1111,-1.1111,-1.1111,-1.1111,-1.1111,-1.1111,-1.1111,-1.1111,-1.1111,-1.1111,-1.1111,-1.1111,-1.1111,-1.1111,-1.5487,-1.5276,-1.5065,-1.49,-1.468,-1.4515,-1.4515,-1.4515,-1.4515,-1.4515,0.0,0.0,0.0,0.0,0.0,0.0,-1.4515,-1.4515,-1.4515,-1.4515,-1.4515,-1.4515,-1.4515,-1.4515,-1.4515,-1.4515,-1.4515,-1.4515,-1.4515,-1.4515,-1.4515,-1.4515,-1.4515,-1.4515,-1.4671,-1.4753,-1.4753,-1.4928,-1.512,-1.5349,-1.5349,-1.5469,-1.5698,-1.5872,-1.5955,-1.5973,-1.6184,-1.6424,-1.651,-1.6392,-1.6272,-1.6202,-1.5559,-1.5267,-1.5196,-1.4617,-1.3897,-1.3171,-1.2579,-1.1768,-1.1111,-1.1111,-1.1111,-1.1111,-1.1111,-1.1111,-1.1111,-1.1111,-1.1111,-1.1111,-1.1111,-1.1111,-1.1111,-1.1111,-1.1111,-1.1111,-1.1111,-1.1111,-1.1111,-1.1111,-1.1111,-1.1111,-1.1111,-1.1111,-1.1111,-1.1111,-1.1111,-1.1111,-1.1111,-1.1111,-1.1111,-1.1111,-1.1111,-1.1111,-1.1111,-1.1111,-1.1111,-1.1111,-1.1111,-1.1111,-1.1111,-1.1111,-1.1111,-1.1111,-1.1111,-1.1111,-1.1111,-1.1111,-1.1111,-1.1111,-1.1111,-1.1111,-1.589,-1.5652,-1.5386,-1.5157,-1.4882,-1.4643,-1.4543,-1.4515,-1.4515,-1.4515,-1.4515,0.0,0.0,0.0,-1.4515,-1.4515,0.0,-1.4565,-1.4675,-1.4565,-1.4515,-1.4515,-1.4515,-1.4515,-1.4515,-1.4515,-1.4515,-1.4515,-1.4515,-1.4515,-1.4515,-1.4515,-1.4515,-1.4515,-1.4515,-1.4515,-1.4515,-1.4515,-1.4653,-1.4937,-1.4937,-1.5093,-1.5368,-1.5478,-1.5533,-1.5551,-1.5964,-1.6147,-1.6166,-1.6111,-1.6222,-1.626,-1.6035,-1.6027,-1.5974,-1.5267,-1.4474,-1.3608,-1.2945,-1.199,-1.1111,-1.1111,-1.1111,-1.1111,-1.1111,-1.1111,-1.1111,-1.1111,-1.1111,-1.1111,-1.1111,-1.1111,-1.1111,-1.1111,-1.1111,-1.1111,-1.1111,-1.1111,-1.1111,-1.1111,-1.1111,-1.1111,-1.1111,-1.1111,-1.1111,-1.1111,-1.1111,-1.1111,-1.1111,-1.1111,-1.1111,-1.1111,-1.1111,-1.1111,-1.1111,-1.1111,-1.1111,-1.1111,-1.1111,-1.1111,-1.1111,-1.1111,-1.1111,-1.1111,-1.1111,-1.1111,-1.1111,-1.1111,-1.1111,-1.1111,-1.1111,-1.1111,-1.6404,-1.6285,-1.6092,-1.5294,-1.5093,-1.4983,-1.4598,-1.4515,-1.4515,-1.4515,-1.4515,-1.4515,-1.4515,-1.4515,0.0,0.0,0.0,0.0,0.0,-1.4793,-1.4515,-1.4515,-1.4515,-1.4515,-1.4515,-1.4515,-1.4515,-1.4515,-1.4515,-1.4515,-1.4515,-1.4515,-1.4515,-1.4515,-1.4515,-1.4515,-1.4515,-1.4515,-1.4515,-1.4533,-1.4533,-1.4543,-1.4561,-1.4946,-1.512,-1.5139,-1.5533,-1.5707,-1.5707,-1.5725,-1.5964,-1.6273,-1.6273,-1.6501,-1.676,-1.563,-1.4768,-1.4122,-1.3185,-1.2077,-1.1111,-1.1111,-1.1111,-1.1111,-1.1111,-1.1111,-1.1111,-1.1111,-1.1111,-1.1111,-1.1111,-1.1111,-1.1111,-1.1111,-1.1111,-1.1111,-1.1111,-1.1111,-1.1111,-1.1111,-1.1111,-1.1111,-1.1111,-1.1111,-1.1111,-1.1111,-1.1111,-1.1111,-1.1111,-1.1111,-1.1111,-1.1111,-1.1111,-1.1111,-1.1111,-1.1111,-1.1111,-1.1111,-1.1111,-1.1111,-1.1111,-1.1111,-1.1111,-1.1111,-1.1111,-1.1111,-1.1111,-1.1111,-1.1111,-1.1111,-1.1111,-1.1111,-1.7735,-1.7559,-1.721,-1.6605,-1.6046,-1.5477,-1.4989,-1.4698,-1.4515,-1.4515,-1.4515,-1.4515,-1.4515,-1.4734,0.0,0.0,0.0,0.0,0.0,-1.5245,-1.4951,-1.4951,-1.4675,-1.4515,-1.4515,-1.4515,-1.4515,-1.4515,-1.4515,-1.4515,-1.4515,-1.4515,-1.4515,-1.4515,-1.4515,-1.4515,-1.4515,-1.4515,-1.4515,-1.4515,-1.4515,-1.4515,-1.4515,-1.4653,-1.4708,-1.4735,-1.5129,-1.5294,-1.5322,-1.5579,-1.5771,-1.59,-1.59,-1.5982,-1.6099,-1.6285,-1.5833,-1.4895,-1.323,-1.2291,-1.1632,-1.126,-1.1111,-1.1111,-1.1111,-1.1111,-1.1111,-1.1111,-1.1111,-1.1111,-1.1111,-1.1111,-1.1111,-1.1111,-1.1111,-1.1111,-1.1111,-1.1111,-1.1111,-1.1111,-1.1111,-1.1111,-1.1111,-1.1111,-1.1111,-1.1111,-1.1111,-1.1111,-1.1111,-1.1111,-1.1111,-1.1111,-1.1111,-1.1111,-1.1111,-1.1111,-1.1111,-1.1111,-1.1111,-1.1111,-1.1111,-1.1111,-1.1111,-1.1111,-1.1111,-1.1111,-1.1111,-1.1111,-1.1111,-1.1105,-1.093,-1.0852,-1.8442,-1.8298,-1.7991,-1.7514,-1.6988,-1.6373,-1.5581,-1.5196,-1.4971,-1.4762,-1.4625,-1.4625,-1.497,-1.5128,-1.5225,0.0,0.0,0.0,0.0,-1.57,-1.5468,-1.5294,-1.4784,-1.4565,-1.4734,-1.4625,-1.4565,-1.4734,-1.4565,-1.4515,-1.4515,-1.4515,-1.4515,-1.4515,-1.4515,-1.4515,-1.4515,-1.4515,-1.4515,-1.4515,-1.4515,-1.4515,-1.4515,-1.4515,-1.4515,-1.4524,-1.4781,-1.4891,-1.4909,-1.5166,-1.5349,-1.5478,-1.5478,-1.556,-1.5753,-1.6142,-1.579,-1.4857,-1.3404,-1.2579,-1.207,-1.1329,-1.1111,-1.1111,-1.1111,-1.1111,-1.1129,-1.1232,-1.119,-1.1135,-1.1232,-1.1184,-1.1111,-1.1111,-1.1111,-1.1186,-1.1335,-1.126,-1.1186,-1.1409,-1.126,-1.1111,-1.1111,-1.1111,-1.1111,-1.1111,-1.1111,-1.1111,-1.1111,-1.1111,-1.1111,-1.1111,-1.1111,-1.1111,-1.1111,-1.1111,-1.1111,-1.1111,-1.1111,-1.1111,-1.1111,-1.1111,-1.1111,-1.1111,-1.1111,-1.1111,-1.1111,-1.1111,-1.1063,-1.0966,-1.0797,-1.0622]},{"header":{"parameterUnit":"m.s-1","parameterCategory":1,"la1":30.6,"la2":29.2853,"lo1":-89.7004,"lo2":-87.6739,"dy":0.0162,"dx":0.0183,"nx":112,"ny":82,"refTime":"2023-09-08T18:00:00:Z","depth":0,"parameterNumber":3,"parameterNumberName":"V-component_of_WINDS"},"data":[0.0,0.0,0.0,0.0,0.0,0.0,0.0,0.0,0.0,0.0,0.0,0.0,0.0,0.0,0.0,0.0,0.0,0.0,0.0,0.0,0.0,0.0,0.0,0.0,0.0,0.0,0.0,0.0,0.0,0.0,0.0,0.0,0.0,0.0,0.0,0.0,0.0,0.0,0.0,0.0,0.0,0.0,0.0,0.0,0.0,0.0,0.0,0.0,0.0,0.0,0.0,0.0,0.0,0.0,0.0,0.0,0.0,0.0,0.0,0.0,0.0,0.0,0.0,0.0,0.0,0.0,0.0,0.0,0.0,0.0,0.0,0.0,0.0,0.0,0.0,0.0,0.0,0.0,0.0,0.0,0.0,0.0,0.0,0.0,0.0,0.0,0.0,0.0,0.0,0.0,-2.3976,-2.403,-2.3515,-2.3197,-2.3197,-2.3186,-2.2987,-2.2494,0.0,0.0,0.0,0.0,0.0,0.0,0.0,0.0,0.0,0.0,0.0,0.0,0.0,0.0,0.0,0.0,0.0,0.0,0.0,0.0,0.0,0.0,0.0,0.0,0.0,0.0,0.0,0.0,0.0,0.0,0.0,0.0,0.0,0.0,0.0,0.0,0.0,0.0,0.0,0.0,0.0,0.0,0.0,0.0,0.0,0.0,0.0,0.0,0.0,0.0,0.0,0.0,0.0,0.0,0.0,0.0,0.0,0.0,0.0,0.0,0.0,0.0,0.0,0.0,0.0,0.0,0.0,0.0,0.0,0.0,0.0,0.0,0.0,0.0,0.0,0.0,0.0,0.0,0.0,0.0,0.0,0.0,0.0,0.0,0.0,0.0,0.0,0.0,0.0,0.0,0.0,0.0,0.0,0.0,0.0,0.0,0.0,0.0,0.0,0.0,0.0,0.0,0.0,0.0,-2.4753,-2.5041,-2.4985,-2.4918,-2.4918,-2.4908,-2.4812,-2.4555,0.0,0.0,0.0,0.0,0.0,0.0,0.0,0.0,0.0,0.0,0.0,0.0,0.0,0.0,0.0,0.0,0.0,0.0,0.0,0.0,0.0,0.0,0.0,0.0,0.0,0.0,0.0,0.0,0.0,0.0,0.0,0.0,0.0,0.0,0.0,0.0,0.0,0.0,0.0,0.0,0.0,0.0,0.0,0.0,0.0,0.0,0.0,0.0,0.0,0.0,0.0,0.0,0.0,0.0,0.0,0.0,0.0,0.0,0.0,0.0,0.0,0.0,0.0,0.0,0.0,0.0,0.0,0.0,0.0,0.0,0.0,0.0,0.0,0.0,0.0,0.0,0.0,0.0,0.0,0.0,0.0,0.0,0.0,0.0,0.0,0.0,0.0,0.0,0.0,0.0,0.0,0.0,0.0,0.0,0.0,0.0,0.0,0.0,0.0,0.0,0.0,0.0,0.0,-2.4979,-2.5175,-2.5284,-2.534,-2.535,-2.5293,-2.5303,-2.5254,-2.5179,-2.4102,0.0,0.0,0.0,0.0,0.0,0.0,0.0,0.0,0.0,0.0,0.0,0.0,0.0,0.0,0.0,0.0,0.0,0.0,0.0,0.0,0.0,0.0,0.0,0.0,0.0,0.0,0.0,0.0,0.0,0.0,0.0,0.0,0.0,0.0,0.0,0.0,0.0,0.0,0.0,0.0,0.0,0.0,0.0,0.0,0.0,0.0,0.0,0.0,0.0,0.0,0.0,0.0,0.0,0.0,0.0,0.0,0.0,0.0,0.0,0.0,0.0,0.0,0.0,0.0,0.0,0.0,0.0,0.0,0.0,0.0,0.0,0.0,0.0,0.0,0.0,0.0,0.0,0.0,0.0,0.0,0.0,0.0,0.0,0.0,0.0,0.0,0.0,0.0,0.0,0.0,0.0,0.0,0.0,0.0,0.0,0.0,0.0,0.0,0.0,0.0,0.0,0.0,-2.5861,-2.5998,-2.5955,-2.5815,-2.5719,-2.5745,-2.5476,-2.5283,-2.5231,-2.5105,0.0,0.0,0.0,0.0,0.0,0.0,0.0,0.0,0.0,0.0,0.0,0.0,0.0,0.0,0.0,0.0,0.0,0.0,0.0,0.0,0.0,0.0,0.0,0.0,0.0,0.0,0.0,0.0,0.0,0.0,0.0,0.0,0.0,0.0,0.0,0.0,0.0,0.0,0.0,0.0,0.0,0.0,0.0,0.0,0.0,0.0,0.0,0.0,0.0,0.0,0.0,0.0,0.0,0.0,0.0,0.0,0.0,0.0,0.0,0.0,0.0,0.0,0.0,0.0,0.0,0.0,0.0,0.0,0.0,0.0,0.0,0.0,0.0,0.0,0.0,0.0,0.0,0.0,0.0,0.0,0.0,0.0,0.0,0.0,0.0,0.0,0.0,0.0,0.0,0.0,0.0,0.0,0.0,0.0,0.0,0.0,0.0,0.0,0.0,0.0,0.0,0.0,-2.7692,-2.7842,-2.7906,-2.712,-2.6726,-2.7036,-2.5976,-2.522,-2.5031,-2.5075,0.0,0.0,0.0,0.0,0.0,0.0,0.0,0.0,0.0,0.0,0.0,0.0,0.0,0.0,0.0,0.0,0.0,0.0,0.0,0.0,0.0,0.0,0.0,0.0,0.0,0.0,0.0,0.0,0.0,0.0,0.0,0.0,0.0,0.0,0.0,0.0,0.0,0.0,0.0,0.0,0.0,0.0,0.0,0.0,0.0,0.0,0.0,0.0,0.0,0.0,0.0,0.0,0.0,0.0,0.0,0.0,0.0,0.0,0.0,0.0,0.0,0.0,0.0,0.0,0.0,0.0,0.0,0.0,0.0,0.0,0.0,0.0,0.0,0.0,0.0,0.0,0.0,0.0,0.0,0.0,0.0,0.0,0.0,0.0,0.0,0.0,0.0,0.0,0.0,0.0,0.0,0.0,0.0,0.0,0.0,0.0,0.0,0.0,0.0,0.0,0.0,0.0,-2.7958,-2.8118,-2.8106,-2.7471,-2.7115,-2.7187,-2.668,-2.6525,-2.6901,0.0,0.0,0.0,0.0,0.0,0.0,0.0,0.0,0.0,0.0,0.0,0.0,0.0,0.0,0.0,0.0,0.0,0.0,0.0,0.0,0.0,0.0,0.0,0.0,0.0,0.0,0.0,0.0,0.0,0.0,0.0,0.0,0.0,0.0,0.0,0.0,0.0,0.0,0.0,0.0,0.0,0.0,0.0,0.0,0.0,0.0,0.0,0.0,0.0,0.0,0.0,0.0,0.0,0.0,0.0,0.0,0.0,0.0,0.0,0.0,0.0,0.0,0.0,0.0,0.0,0.0,0.0,0.0,0.0,0.0,0.0,0.0,0.0,0.0,0.0,0.0,0.0,0.0,0.0,0.0,0.0,0.0,0.0,0.0,0.0,0.0,0.0,0.0,0.0,0.0,0.0,0.0,0.0,0.0,0.0,0.0,0.0,0.0,0.0,0.0,0.0,0.0,-2.8579,-2.8851,-2.8972,-2.8958,-2.8383,-2.8087,-2.8329,-2.7738,-2.7613,-2.8227,0.0,0.0,0.0,0.0,0.0,0.0,0.0,0.0,0.0,0.0,0.0,0.0,0.0,0.0,0.0,0.0,0.0,0.0,0.0,0.0,0.0,0.0,0.0,0.0,0.0,0.0,0.0,0.0,0.0,0.0,0.0,0.0,0.0,0.0,0.0,0.0,0.0,0.0,0.0,0.0,0.0,0.0,0.0,0.0,0.0,0.0,0.0,0.0,0.0,0.0,0.0,0.0,0.0,0.0,0.0,0.0,0.0,0.0,0.0,0.0,0.0,0.0,0.0,0.0,0.0,0.0,0.0,0.0,0.0,0.0,0.0,0.0,0.0,0.0,0.0,0.0,0.0,0.0,0.0,0.0,0.0,0.0,0.0,0.0,0.0,0.0,0.0,0.0,0.0,0.0,0.0,0.0,0.0,0.0,0.0,0.0,0.0,0.0,0.0,0.0,0.0,0.0,-3.0471,-3.0664,-3.0728,-3.0799,-3.0037,-2.9862,-3.0724,-2.9157,-2.826,0.0,0.0,0.0,0.0,0.0,0.0,0.0,0.0,0.0,0.0,0.0,0.0,0.0,0.0,0.0,0.0,0.0,0.0,0.0,0.0,0.0,0.0,0.0,0.0,0.0,0.0,0.0,0.0,0.0,0.0,0.0,0.0,0.0,0.0,0.0,0.0,0.0,0.0,0.0,0.0,0.0,0.0,0.0,0.0,0.0,0.0,0.0,0.0,0.0,0.0,0.0,0.0,0.0,0.0,0.0,0.0,0.0,0.0,0.0,0.0,0.0,0.0,0.0,0.0,0.0,0.0,0.0,0.0,0.0,0.0,0.0,0.0,0.0,0.0,0.0,0.0,0.0,0.0,0.0,0.0,0.0,0.0,0.0,0.0,0.0,0.0,0.0,0.0,0.0,0.0,0.0,0.0,0.0,0.0,0.0,0.0,0.0,0.0,0.0,0.0,0.0,0.0,0.0,-3.0559,-3.0706,-3.0771,-3.0799,-3.056,-3.0537,-3.083,-3.0297,-2.9997,-3.0134,0.0,0.0,0.0,0.0,0.0,0.0,0.0,0.0,0.0,0.0,0.0,0.0,0.0,0.0,0.0,0.0,0.0,0.0,0.0,0.0,0.0,0.0,0.0,0.0,0.0,0.0,0.0,0.0,0.0,0.0,0.0,0.0,0.0,0.0,0.0,0.0,0.0,0.0,0.0,0.0,0.0,0.0,0.0,0.0,0.0,0.0,0.0,0.0,0.0,0.0,0.0,0.0,0.0,0.0,0.0,0.0,0.0,0.0,0.0,0.0,0.0,0.0,0.0,0.0,0.0,0.0,0.0,0.0,0.0,0.0,0.0,0.0,0.0,0.0,0.0,0.0,0.0,0.0,0.0,0.0,0.0,0.0,0.0,0.0,0.0,0.0,0.0,0.0,0.0,0.0,0.0,0.0,0.0,0.0,0.0,0.0,0.0,0.0,0.0,0.0,0.0,0.0,-3.0593,-3.0739,-3.0841,-3.0841,-3.0841,-3.086,-3.0899,-3.0824,-3.0774,-3.0762,0.0,0.0,0.0,0.0,0.0,0.0,0.0,0.0,0.0,0.0,0.0,0.0,0.0,0.0,0.0,0.0,0.0,0.0,0.0,0.0,0.0,0.0,0.0,0.0,0.0,0.0,0.0,0.0,0.0,0.0,0.0,0.0,0.0,0.0,0.0,0.0,0.0,0.0,0.0,0.0,0.0,0.0,0.0,0.0,0.0,0.0,0.0,0.0,0.0,0.0,0.0,0.0,0.0,0.0,0.0,0.0,0.0,0.0,0.0,0.0,0.0,0.0,0.0,0.0,0.0,0.0,0.0,0.0,0.0,0.0,0.0,0.0,0.0,0.0,0.0,0.0,0.0,0.0,0.0,0.0,0.0,0.0,0.0,0.0,0.0,0.0,0.0,0.0,0.0,0.0,0.0,0.0,0.0,0.0,0.0,0.0,0.0,0.0,0.0,0.0,0.0,0.0,-3.0607,-3.0778,-3.0899,-3.0899,-3.0899,-3.0899,-3.0899,-3.0909,-3.0855,-3.0719,0.0,0.0,0.0,0.0,0.0,0.0,0.0,0.0,0.0,0.0,0.0,0.0,0.0,0.0,0.0,0.0,0.0,0.0,0.0,0.0,0.0,0.0,0.0,0.0,0.0,0.0,0.0,0.0,0.0,0.0,0.0,0.0,0.0,0.0,0.0,0.0,0.0,0.0,0.0,0.0,0.0,0.0,0.0,0.0,0.0,0.0,0.0,0.0,0.0,0.0,0.0,0.0,0.0,0.0,0.0,0.0,0.0,0.0,0.0,0.0,-2.6866,-2.6756,0.0,0.0,0.0,0.0,0.0,0.0,0.0,0.0,0.0,0.0,0.0,0.0,0.0,0.0,0.0,0.0,0.0,0.0,0.0,0.0,0.0,0.0,0.0,0.0,0.0,0.0,0.0,0.0,0.0,0.0,0.0,0.0,0.0,0.0,0.0,0.0,0.0,0.0,0.0,0.0,-3.0667,-3.0758,-3.0841,-3.0899,-3.0899,-3.0899,-3.0899,-3.0901,-3.087,-3.0781,-3.0739,0.0,0.0,0.0,0.0,0.0,0.0,0.0,0.0,0.0,0.0,0.0,0.0,0.0,0.0,0.0,0.0,0.0,0.0,0.0,0.0,0.0,0.0,0.0,0.0,0.0,0.0,0.0,0.0,0.0,0.0,0.0,0.0,0.0,0.0,0.0,0.0,0.0,0.0,0.0,0.0,0.0,0.0,0.0,0.0,0.0,0.0,0.0,0.0,0.0,0.0,0.0,0.0,0.0,0.0,0.0,0.0,0.0,0.0,0.0,-2.8424,-2.8008,0.0,0.0,0.0,0.0,0.0,0.0,0.0,0.0,0.0,0.0,0.0,0.0,0.0,0.0,0.0,0.0,0.0,0.0,0.0,0.0,0.0,0.0,0.0,0.0,0.0,0.0,0.0,0.0,0.0,0.0,0.0,0.0,0.0,0.0,0.0,0.0,0.0,0.0,0.0,0.0,-3.1943,-3.1975,-3.1875,-3.1503,-3.1443,-3.1267,-3.0836,-3.0836,-3.0838,-3.0801,-3.0736,0.0,0.0,0.0,0.0,0.0,0.0,0.0,0.0,0.0,0.0,0.0,0.0,0.0,0.0,0.0,0.0,0.0,0.0,0.0,0.0,0.0,0.0,0.0,0.0,0.0,0.0,0.0,0.0,0.0,0.0,0.0,0.0,0.0,0.0,0.0,0.0,0.0,0.0,0.0,0.0,0.0,0.0,0.0,0.0,0.0,0.0,0.0,0.0,0.0,0.0,0.0,0.0,0.0,-3.0565,-3.0994,-3.108,-3.1092,-3.1125,-3.1083,-2.9654,-2.889,-2.8621,-2.8582,0.0,0.0,0.0,0.0,0.0,0.0,0.0,0.0,0.0,0.0,0.0,0.0,0.0,0.0,0.0,0.0,0.0,0.0,0.0,0.0,0.0,0.0,-2.9347,-2.924,-2.996,-3.0443,-2.956,0.0,0.0,0.0,0.0,0.0,0.0,0.0,0.0,0.0,0.0,0.0,-3.329,-3.3301,-3.3057,-3.2374,-3.2259,-3.1948,-3.1207,-3.1051,-3.1012,-3.1005,-3.0817,-3.0716,0.0,0.0,0.0,0.0,0.0,0.0,0.0,0.0,0.0,0.0,0.0,0.0,0.0,0.0,0.0,0.0,0.0,0.0,0.0,0.0,0.0,0.0,0.0,0.0,0.0,0.0,0.0,0.0,0.0,0.0,0.0,0.0,-2.4514,-2.5278,0.0,0.0,0.0,0.0,0.0,0.0,0.0,0.0,0.0,0.0,0.0,0.0,0.0,-3.0437,-3.0437,-3.056,-3.0989,-3.1728,-3.187,-3.2316,-3.3035,-3.3035,-3.3042,-3.3024,-3.2793,0.0,-3.0375,-3.0355,0.0,0.0,0.0,0.0,0.0,0.0,0.0,0.0,0.0,0.0,0.0,0.0,0.0,0.0,0.0,0.0,0.0,0.0,0.0,0.0,0.0,0.0,-3.0481,-3.0475,-3.1148,-3.1773,-3.1671,-3.097,-3.0383,-3.0506,-3.1158,-3.1707,0.0,0.0,0.0,0.0,0.0,0.0,-3.3297,-3.3298,-3.3254,-3.3147,-3.3134,-3.3076,-3.2967,-3.227,-3.1851,-3.1829,-3.1112,-3.0689,-3.0715,-3.0711,0.0,0.0,0.0,0.0,0.0,0.0,0.0,0.0,0.0,0.0,0.0,0.0,0.0,0.0,0.0,0.0,0.0,0.0,0.0,0.0,0.0,0.0,0.0,0.0,0.0,0.0,0.0,0.0,0.0,-2.5317,-2.6,-2.639,-2.719,-2.7737,0.0,0.0,0.0,0.0,0.0,0.0,0.0,0.0,0.0,-3.0997,-3.1358,-3.1771,-3.2261,-3.2264,-3.2441,-3.2832,-3.2832,-3.3008,-3.3339,-3.3336,-3.333,-3.3344,-3.3334,-3.2897,-3.2168,-3.2167,-3.2102,-3.2006,0.0,0.0,0.0,0.0,-3.0466,-3.0033,-2.9705,-2.9605,-2.9613,-2.965,0.0,0.0,0.0,0.0,0.0,0.0,0.0,-3.0732,-3.1259,-3.1448,-3.1605,-3.2101,-3.2516,-3.2787,-3.2814,-3.2402,-3.2041,-3.2109,-3.2404,-3.2801,-3.3323,-3.3672,0.0,0.0,0.0,-3.4664,-3.4706,-3.4664,-3.449,-3.401,-3.3932,-3.3712,-3.3228,-3.2841,-3.2619,-3.2668,-3.182,-3.1344,-3.1429,-3.0917,-3.0681,0.0,0.0,0.0,0.0,0.0,0.0,0.0,0.0,0.0,0.0,0.0,0.0,0.0,0.0,0.0,0.0,0.0,0.0,0.0,0.0,0.0,0.0,0.0,0.0,0.0,0.0,0.0,0.0,-2.678,-2.7327,-2.7327,-2.8108,-2.8635,0.0,0.0,0.0,0.0,0.0,0.0,-3.1125,-3.1342,-3.1752,-3.2416,-3.2421,-3.2734,-3.3398,-3.3608,-3.3816,-3.4031,-3.4266,-3.4454,-3.4596,-3.4592,-3.4597,-3.4589,-3.4598,-3.4573,-3.4508,-3.3652,-3.3243,-3.3149,-3.3204,-3.2803,-3.2185,-3.2179,-3.1789,-3.1292,-3.1348,-3.1361,-3.1378,-3.1425,-3.1445,-3.1433,-3.1374,0.0,0.0,0.0,0.0,-3.1521,-3.2226,-3.2419,-3.2576,-3.3222,-3.3535,-3.3684,-3.3691,-3.3826,-3.3802,-3.3385,-3.3434,-3.3746,-3.4443,-3.4687,0.0,-3.5736,-3.5802,-3.5762,-3.5779,-3.5729,-3.5474,-3.4874,-3.4756,-3.4466,-3.3828,-3.3557,-3.3441,-3.35,-3.2628,-3.2087,-3.1951,-3.1284,-3.083,-3.0675,0.0,0.0,0.0,0.0,0.0,0.0,0.0,0.0,0.0,0.0,0.0,0.0,0.0,0.0,0.0,0.0,0.0,0.0,0.0,0.0,0.0,0.0,0.0,0.0,0.0,0.0,0.0,0.0,0.0,-2.8225,-2.9006,0.0,0.0,0.0,0.0,-3.0739,-3.1542,-3.2031,-3.2027,-3.2827,-3.3296,-3.3335,-3.3333,-3.3353,-3.3392,-3.4159,-3.497,-3.577,-3.6609,-3.7418,-3.8142,-3.8132,-3.8149,-3.815,-3.8077,-3.8044,-3.7802,-3.4598,-3.3291,-3.3284,-3.3296,-3.3276,-3.3218,-3.3229,-3.32,-3.3161,-3.3171,-3.3165,-3.3166,-3.3181,-3.3161,-3.3166,-3.3166,-3.3166,0.0,0.0,-3.3166,-3.3186,-3.3229,-3.3229,-3.3249,-3.3298,-3.3891,-3.4432,-3.4429,-3.5085,-3.5195,-3.3601,-3.3916,-3.4456,-3.4489,0.0,-3.5722,-3.5716,-3.5717,-3.5706,-3.5706,-3.5695,-3.5676,-3.5646,-3.5646,-3.5626,-3.5568,-3.4814,-3.4331,-3.4341,-3.3518,-3.2657,-3.1835,-3.1758,-3.1391,-3.0617,-3.0607,0.0,0.0,0.0,0.0,0.0,0.0,0.0,0.0,0.0,0.0,0.0,0.0,0.0,0.0,0.0,0.0,0.0,0.0,0.0,0.0,0.0,0.0,0.0,0.0,0.0,0.0,0.0,0.0,-2.9142,-3.0353,0.0,-3.1211,-3.1983,-3.2478,-3.2479,-3.2754,-3.2925,-3.2875,-3.3738,-3.4461,-3.4981,-3.5542,-3.6098,-3.6614,-3.6893,-3.7176,-3.7442,-3.7753,-3.807,-3.835,-3.8341,-3.8306,-3.8277,-3.8246,-3.8244,-3.8136,-3.6948,-3.6125,-3.5621,-3.5618,-3.4958,-3.4011,-3.4021,-3.3654,-3.3179,-3.3218,-3.3239,-3.3236,-3.3285,-3.3304,-3.3304,-3.3304,-3.3304,-3.3304,-3.3304,-3.3304,-3.3421,-3.3934,-3.407,-3.4205,-3.4777,-3.5096,-3.5272,-3.527,-3.553,-3.5551,-3.4962,-3.5077,-3.5281,-3.533,-3.5553,-3.5736,-3.5708,-3.5697,-3.5704,-3.5704,-3.5704,-3.5704,-3.5704,-3.5704,-3.5704,-3.5704,-3.5414,-3.524,-3.524,-3.4427,-3.3808,-3.3479,-3.2938,-3.2242,-3.1391,-3.1371,-3.1139,0.0,0.0,0.0,0.0,0.0,0.0,0.0,0.0,0.0,0.0,0.0,0.0,0.0,0.0,0.0,0.0,0.0,0.0,0.0,0.0,0.0,0.0,0.0,0.0,0.0,0.0,-3.0446,-3.0446,-3.1676,-3.2535,-3.2535,-3.3066,-3.3515,-3.3826,-3.4092,-3.4329,-3.4573,-3.5444,-3.6181,-3.6684,-3.7264,-3.7831,-3.8358,-3.8638,-3.8751,-3.8714,-3.8996,-3.9141,-3.9127,-3.9129,-3.9262,-3.9475,-3.9475,-3.9649,-3.9901,-3.9611,-3.8972,-3.816,-3.758,-3.6651,-3.5684,-3.5684,-3.5317,-3.4784,-3.4533,-3.4455,-3.4417,-3.4193,-3.4105,-3.4105,-3.4105,-3.4105,-3.4105,-3.4105,-3.4105,-3.4232,-3.4784,-3.49,-3.5055,-3.5626,-3.5723,-3.5704,-3.5704,-3.5704,-3.5704,-3.5704,-3.5704,-3.5704,-3.5762,-3.5723,-3.5704,-3.5704,-3.5704,-3.5704,-3.5704,-3.5704,-3.5704,-3.5704,-3.5704,-3.5704,-3.5704,-3.5704,-3.5704,-3.5704,-3.5162,-3.4698,-3.4408,-3.3847,-3.3131,-3.2251,-3.1952,-3.1545,-3.1033,0.0,0.0,0.0,0.0,0.0,0.0,0.0,0.0,0.0,0.0,0.0,0.0,0.0,0.0,0.0,0.0,0.0,0.0,0.0,0.0,0.0,0.0,0.0,-2.9701,-3.1049,-3.2103,-3.2142,-3.2923,-3.3488,-3.3488,-3.3527,-3.3912,-3.4749,-3.5545,-3.6319,-3.7104,-3.7953,-3.8405,-3.8335,-3.8373,-3.8373,-3.8373,-3.918,-3.9575,-3.9594,-4.0458,-4.087,-4.088,-4.0881,-4.1296,-4.2048,-4.2048,-4.2512,-4.3227,-4.2396,-4.1583,-4.0694,-3.8934,-3.8218,-3.8199,-3.8199,-3.8199,-3.8083,-3.7232,-3.6942,-3.6806,-3.6033,-3.5781,-3.5781,-3.5781,-3.5781,-3.5781,-3.5781,-3.5781,-3.5781,-3.5781,-3.5781,-3.5781,-3.5781,-3.5781,-3.5781,-3.5781,-3.5781,-3.5762,-3.5742,-3.5742,-3.5723,-3.5704,-3.5704,-3.5704,-3.5704,-3.5704,0.0,-3.5704,-3.5704,-3.5704,-3.5704,-3.5704,-3.5704,-3.5704,-3.5704,-3.5704,-3.5704,-3.5704,-3.5317,-3.4466,-3.4427,-3.4021,-3.316,-3.227,-3.1865,-3.1893,0.0,0.0,0.0,0.0,0.0,0.0,0.0,0.0,0.0,0.0,0.0,0.0,0.0,0.0,0.0,0.0,0.0,0.0,0.0,0.0,0.0,0.0,-3.1605,-3.1417,-3.1791,-3.2337,-3.2962,-3.4367,-3.5284,-3.5284,-3.6336,-3.7136,-3.7422,-3.7572,-3.7743,-3.7953,-3.8808,-3.9247,-3.9248,-3.9859,-4.017,-4.0111,-4.0962,-4.1366,-4.1318,-4.2208,-4.2602,-4.2609,-4.2602,-4.2718,-4.2937,-4.2937,-4.3073,-4.3285,-4.3034,-4.2802,-4.2376,-4.0055,-3.876,-3.8199,-3.8199,-3.8199,-3.8179,-3.7928,-3.7851,-3.7812,-3.758,-3.7522,-3.7522,-3.7522,-3.7522,-3.7522,-3.7522,-3.7522,-3.7522,-3.7522,-3.7522,-3.7522,-3.7522,-3.7522,-3.7522,-3.7522,-3.7522,-3.7328,-3.669,-3.6574,-3.6381,-3.58,-3.5704,-3.5704,-3.5704,-3.5704,-3.5704,-3.5704,-3.5704,-3.5704,-3.5704,-3.5704,-3.5704,-3.5704,-3.5704,-3.5704,-3.5704,-3.5704,-3.5588,-3.5356,-3.5336,-3.493,-3.406,-3.3189,-3.2435,0.0,0.0,0.0,0.0,0.0,0.0,0.0,0.0,0.0,0.0,0.0,0.0,0.0,0.0,0.0,0.0,0.0,0.0,0.0,0.0,0.0,0.0,-3.2266,-3.3187,-3.3585,-3.3652,-3.3856,-3.4381,-3.5947,-3.6972,-3.7,-3.7837,-3.8533,-3.8922,-3.8899,-3.8995,-3.9326,-3.983,-4.0266,-4.0579,-4.1098,-4.1524,-4.1838,-4.2349,-4.2589,-4.255,-4.3053,-4.3305,-4.3305,-4.3305,-4.3452,-4.3704,-4.3704,-4.3901,-4.4164,-4.3798,-4.3644,-4.347,0.0,0.0,0.0,0.0,-3.9282,-3.9243,-3.8876,-3.874,-3.8682,-3.8315,-3.8199,-3.8199,-3.8199,-3.8199,-3.8199,-3.8199,-3.8199,-3.8199,-3.8199,-3.8199,-3.8199,-3.8199,-3.8199,-3.8199,-3.8199,-3.8199,-3.8063,-3.7541,-3.7444,0.0,-3.6826,-3.6168,-3.5704,-3.5704,-3.5704,-3.5704,-3.5704,-3.5704,-3.5704,-3.5704,-3.5704,-3.5704,-3.5704,-3.5651,0.0,0.0,0.0,-3.5651,-3.5704,-3.5704,0.0,0.0,0.0,-3.3402,-3.2899,-3.2561,0.0,0.0,-3.0806,-3.066,0.0,0.0,0.0,0.0,0.0,0.0,0.0,0.0,0.0,0.0,0.0,0.0,0.0,0.0,0.0,0.0,-3.3608,-3.4939,-3.5812,-3.6103,-3.6215,-3.6164,-3.7518,-3.8477,-3.8529,-3.8555,-3.8917,-3.9703,-3.9743,-4.0053,-4.0749,-4.0904,0.0,0.0,0.0,-4.2512,-4.3285,-4.3401,-4.346,-4.346,-4.3537,-4.3576,-4.3576,-4.3576,-4.3892,-4.4443,-4.4443,-4.4818,-4.5343,-4.4576,-4.425,-4.4173,-4.3505,-4.2795,-4.2054,-4.1319,-4.1068,-4.0965,-4.0075,0.0,0.0,-3.8779,-3.8489,-3.8489,-3.8489,-3.8489,-3.8489,-3.8489,-3.8489,-3.8489,-3.8489,-3.8489,-3.8489,-3.8489,-3.8489,-3.8489,-3.8489,-3.8489,-3.847,-3.8373,-3.8322,-3.8291,-3.8194,-3.6872,-3.5828,-3.5828,-3.572,-3.5651,-3.5651,-3.5651,-3.5651,-3.5651,-3.5651,0.0,-3.5651,-3.554,-3.5528,-3.5651,-3.5553,-3.5553,-3.5684,-3.5704,-3.5704,-3.5704,-3.493,-3.4505,-3.4389,-3.3615,-3.2803,-3.1932,-3.1178,-3.0733,0.0,0.0,0.0,0.0,0.0,0.0,0.0,0.0,0.0,0.0,0.0,0.0,0.0,0.0,0.0,-3.3837,-3.4797,-3.5766,-3.6649,-3.7926,-3.8548,-3.7905,-3.8774,-3.9416,-3.9362,-3.9937,-4.0412,-4.0635,-4.0593,-4.0637,-4.0787,-4.142,-4.1848,-4.199,-4.2686,-4.3131,-4.3305,-4.4001,-4.4349,-4.4369,-4.5007,0.0,-4.5316,-4.5316,-4.5336,-4.5346,-4.5346,-4.5374,-4.5381,-4.5208,-4.5151,-4.4998,-4.3481,-4.2876,-4.2873,-4.2718,-4.272,-4.2686,-4.1816,-4.1525,-4.1371,-4.0558,-4.0288,-4.0288,-4.0288,-4.0288,0.0,-4.0288,-4.0288,-4.0288,-4.0288,-4.0288,-4.0288,-4.0288,-4.0288,-4.0288,-4.0288,-4.0288,-4.0094,-3.9379,-3.9161,-3.8863,-3.8169,-3.7224,-3.6601,-3.6601,-3.5905,-3.5374,-3.5374,-3.5374,-3.5374,-3.5374,-3.5374,-3.5374,-3.5374,-3.536,-3.536,-3.5374,-3.5443,-3.5553,-3.5684,-3.5704,-3.5704,-3.5704,-3.553,-3.5104,-3.4389,-3.4234,-3.3692,-3.2831,-3.199,-3.1236,0.0,0.0,0.0,0.0,0.0,0.0,0.0,0.0,0.0,0.0,0.0,-3.2383,0.0,0.0,-3.4584,-3.4991,-3.6491,-3.7749,-3.8186,-3.9348,-3.9846,-3.9044,-3.9714,-4.0247,-4.0209,-4.0563,-4.0812,-4.0846,-4.1195,-4.1403,-4.14,-4.2196,-4.286,-4.3285,-4.373,-4.4136,-4.4543,-4.4987,-4.52,-4.52,-4.5606,-4.58,-4.58,-4.58,-4.5692,-4.5493,-4.5493,-4.5362,-4.5154,-4.5154,-4.5154,-4.5058,-4.4198,-4.3751,-4.3553,-4.3111,-4.2992,-4.2999,-4.2556,-4.2468,-4.2473,-4.1956,-4.1914,-4.1957,-4.1459,-4.1351,-4.1313,-4.0906,-4.079,-4.079,-4.079,-4.079,-4.079,-4.079,-4.079,-4.079,-4.079,-4.079,-4.0674,-4.023,-4.0095,-3.9888,-3.9336,-3.8522,-3.7651,-3.6786,-3.6228,-3.576,-3.5339,-3.5315,-3.5315,-3.5315,-3.5315,-3.5315,-3.5315,-3.5315,-3.5266,-3.5203,-3.5402,-3.5528,-3.5596,-3.5662,-3.5704,-3.5704,-3.5704,-3.5491,-3.5046,-3.5046,-3.4601,-3.375,-3.3305,-3.2648,0.0,0.0,0.0,0.0,0.0,0.0,0.0,0.0,-3.1755,-3.1891,-3.2692,-3.341,-3.3553,-3.4974,-3.6203,-3.6419,-3.816,-3.9623,-3.9939,-4.0587,-4.0865,-4.0383,-4.0591,-4.0808,-4.0804,-4.0808,-4.079,-4.079,-4.1545,-4.2009,-4.2009,-4.2995,-4.3866,-4.4581,-4.4755,-4.5142,-4.578,-4.58,-4.58,-4.58,-4.5766,-4.5752,-4.5752,-4.5723,-4.5596,-4.5361,-4.5321,-4.5154,-4.4895,-4.487,-4.4846,-4.4846,-4.4821,-4.4554,-4.4093,-4.3484,-4.3273,-4.3292,-4.3101,-4.3153,-4.3239,-4.2908,-4.2989,-4.3048,-4.2248,-4.2067,-4.2019,-4.1409,-4.1248,-4.1248,-4.1274,-4.1158,-4.1023,-4.1023,-4.0906,-4.079,-4.079,-4.079,-4.079,-4.0746,-4.0733,-4.064,-4.0466,-3.9761,-3.8718,-3.7204,-3.6788,-3.637,-3.5583,-3.5468,-3.5411,-3.5239,-3.5219,-3.5219,-3.5219,-3.5219,-3.5187,-3.5105,-3.5296,-3.5443,-3.5502,-3.5608,-3.5673,-3.5704,-3.5704,-3.5704,-3.5704,-3.5704,-3.5336,-3.464,-3.464,-3.4098,-2.8351,-2.9166,-2.9997,-3.0886,-3.1094,-3.1317,0.0,0.0,-3.2504,-3.2642,-3.3935,-3.5057,-3.5213,-3.6614,-3.8028,-3.8922,-3.9313,-4.0017,-4.1506,-4.1809,-4.2118,-4.2796,-4.1645,-4.0804,-4.0796,-4.0803,-4.079,-4.079,-4.1545,-4.2009,-4.2009,-4.3556,-4.4504,-4.4601,-4.5297,-4.5703,-4.58,-4.58,-4.58,-4.58,-4.5677,-4.5629,-4.5613,-4.5493,-4.5361,-4.5213,-4.5038,-4.4943,-4.4895,-4.477,-4.4719,-4.4712,-4.4578,-4.4522,-4.4489,-4.4813,-4.5013,-4.4998,-4.4231,-4.3962,-4.3866,-4.3062,-4.2813,-4.283,-4.2716,-4.2697,-4.2731,-4.281,-4.2842,-4.2873,-4.2988,-4.2454,-4.1874,-4.1874,-4.1313,-4.079,-4.079,-4.079,-4.0746,-4.0574,-4.045,-4.03,-4.0177,-3.9964,-3.9542,-3.8747,-3.7871,-3.7014,-3.6198,-3.6103,-3.5799,-3.504,-3.4945,-3.4945,-3.4945,-3.4945,-3.4982,-3.5088,-3.5138,-3.5251,-3.5483,-3.5496,-3.5584,-3.5704,-3.5704,-3.5704,-3.5704,-3.5704,-3.5646,-3.5549,-3.5549,-3.4679,-2.9169,-3.0002,0.0,0.0,-3.1553,-3.2007,-3.24,-3.3235,-3.3991,-3.4108,-3.5477,-3.6709,-3.6906,-3.7949,-3.8934,0.0,-3.9932,-4.05,-4.1197,-4.1699,-4.2144,-4.2492,-4.2363,-4.2054,-4.1545,-4.1061,-4.0984,-4.1467,-4.228,-4.2976,-4.3498,-4.4659,-4.5297,-4.5297,-4.5626,-4.58,-4.58,-4.58,-4.58,-4.58,-4.5661,-4.5866,-4.6367,-4.6186,-4.6296,-4.666,-4.6453,-4.6354,-4.6354,-4.6218,-4.5863,-4.5383,-4.5265,-4.4899,-4.4524,-4.4815,-4.4924,-4.4962,-4.4668,-4.4641,-4.4666,-4.4179,-4.4149,-4.4193,-4.3616,-4.3484,-4.3483,-4.3038,-4.294,-4.294,-4.2989,-4.2736,-4.2467,-4.2467,-4.2217,-4.1966,-4.1966,-4.1601,-4.1239,-4.1171,-4.0679,-4.0266,-4.012,-4.0041,-3.9886,-3.9542,-3.8721,-3.7675,-3.6367,-3.6196,-3.5874,-3.4984,-3.4908,-3.4908,-3.4908,-3.4908,-3.4908,-3.4982,-3.5053,-3.5155,-3.5266,-3.5416,-3.5528,-3.5584,-3.5662,-3.5704,-3.5704,-3.5704,-3.5704,-3.5704,-3.5704,-3.5317,-3.0097,0.0,0.0,-3.1838,-3.2501,-3.3145,-3.3392,-3.4567,-3.5628,-3.5702,-3.6918,-3.8037,-3.8266,-3.9018,-3.9687,-3.983,-4.0384,-4.0868,-4.11,-4.1835,-4.2454,-4.2686,-4.3266,-4.3421,-4.2783,-4.197,-4.1719,-4.2318,-4.3169,-4.3924,-4.4581,-4.5355,-4.5766,-4.5757,-4.5737,-4.5723,-4.5692,-4.5692,-4.5692,-4.5692,-4.5776,-4.6147,-4.6762,-4.6816,-4.7105,-4.7615,-4.7422,-4.7345,-4.7318,-4.7127,-4.6685,-4.6121,-4.5967,-4.5421,-4.4739,-4.4862,-4.4821,-4.4693,-4.4796,-4.4967,-4.5103,-4.4943,-4.5065,-4.5125,-4.4405,-4.4238,-4.419,-4.3618,-4.3446,-4.3465,-4.3503,-4.3349,-4.3177,-4.3177,-4.2967,-4.2794,-4.2794,-4.2335,-4.1856,-4.1589,-4.1034,-4.0481,-4.0118,-4.004,-4.0,-3.9911,-3.9399,-3.8509,-3.7068,-3.6481,-3.5874,-3.4984,-3.4908,-3.4908,-3.4908,-3.4908,-3.4908,-3.4908,-3.5018,-3.5122,-3.5155,-3.5388,-3.5528,-3.5553,-3.5651,-3.5704,-3.5704,-3.5704,-3.5704,-3.5704,-3.5704,-3.5704,-3.1156,0.0,-3.2577,-3.3411,-3.4226,-3.504,-3.5893,-3.6727,-3.7315,-3.7335,-3.8156,-3.8898,-3.9035,-3.9819,-4.0535,-4.0739,-4.0771,-4.1061,-4.1854,-4.2705,-4.3576,-4.4427,-4.4543,-4.4562,0.0,-4.373,-4.3227,-4.3266,-4.4078,-4.4581,-4.4601,-4.5355,-4.5737,-4.5613,-4.5613,-4.5545,-4.54,-4.5419,-4.5419,-4.5419,-4.6061,-4.6396,-4.6431,-4.7061,-4.7403,-4.7397,-4.7257,-4.7221,-4.7174,-4.6866,-4.6694,-4.6676,-4.6536,-4.5988,-4.5281,-4.545,-4.5143,-4.4712,-4.4693,-4.4815,-4.4895,-4.4895,-4.4895,-4.4919,-4.4876,-4.4857,-4.4905,-4.5071,-4.5115,-4.5159,-4.5285,-4.4691,-4.4058,-4.4058,-4.3407,-4.2794,-4.2794,-4.2775,-4.2489,-4.157,-4.1378,-4.1071,-4.0065,-3.9911,-3.9911,-3.9889,-3.987,-3.957,-3.8717,-3.7201,-3.5874,-3.4984,-3.4908,-3.4908,-3.4908,-3.4908,-3.4908,-3.4908,-3.5018,-3.5155,-3.53,-3.543,-3.5553,-3.5684,-3.5704,-3.5704,-3.5704,-3.5704,-3.5704,-3.5704,-3.5704,-3.5704,-3.1857,-3.2615,-3.3468,-3.4282,-3.5135,-3.5969,-3.6803,-3.7201,-3.739,-3.739,-3.7678,-3.7947,-3.8076,-3.8903,-3.9608,-3.9778,-4.0366,-4.0887,-4.1158,-4.2415,-4.3421,-4.3711,-4.4717,0.0,0.0,0.0,0.0,-4.4117,-4.4427,-4.4833,-4.5374,-4.5572,-4.5645,-4.5596,-4.551,-4.5457,-4.54,-4.54,-4.5669,-4.6225,-4.7452,-4.8019,-4.7954,-4.8693,-4.901,-4.8928,-4.8891,-4.8786,-4.8649,-4.8434,-4.8039,-4.7554,-4.7359,-4.6791,-4.603,-4.5536,-4.5301,-4.5171,-4.4711,-4.4605,-4.4659,-4.4738,-4.4789,-4.477,-4.487,-4.4895,-4.4919,-4.4967,-4.4991,-4.5014,-4.5042,-4.4855,-4.4627,-4.4627,-4.4395,-4.4186,-4.4186,-4.3767,-4.3311,-4.2978,-4.2028,-4.1171,-4.0821,-4.0268,-3.9889,-3.9889,-3.9456,-3.9001,-3.8717,-3.7239,-3.6083,-3.578,-3.5249,-3.4908,-3.4908,-3.4908,-3.4908,-3.4908,-3.4945,-3.5035,-3.5155,-3.5315,-3.543,-3.5553,-3.5662,-3.5704,-3.5704,-3.5704,-3.5704,-3.5704,-3.5704,-3.5704,-3.2728,-3.3714,-3.4718,-3.523,-3.6234,-3.7144,-3.7353,-3.7637,-3.7769,-3.7447,-3.7451,-3.749,-3.7565,-3.8216,-3.8742,-3.8816,-3.9683,-4.0326,-4.0326,-4.2048,-4.3305,-4.3305,-4.4775,-4.58,0.0,0.0,0.0,-4.4987,-4.5026,-4.5258,-4.5761,-4.5677,-4.558,-4.5528,-4.54,-4.5301,-4.522,-4.522,-4.5772,-4.6899,-4.8128,-4.8833,-4.9059,-4.9514,-4.9683,-4.9585,-4.9525,-4.9434,-4.9321,-4.9146,-4.8781,-4.8296,-4.8163,-4.7646,-4.6865,-4.6345,-4.5834,-4.5326,-4.4653,-4.4458,-4.4496,-4.4605,-4.4659,-4.4712,-4.4796,-4.4846,-4.4895,-4.4895,-4.4895,-4.4895,-4.4895,-4.4895,-4.4895,-4.4895,-4.4895,-4.4895,-4.4895,-4.4497,-4.4042,-4.3758,-4.2583,-4.1541,-4.1256,-4.0479,-3.9889,-3.9889,-3.9456,-3.902,-3.8757,-3.775,-3.686,-3.6253,-3.5704,-3.523,-3.4927,-3.4908,-3.4908,-3.4908,-3.4945,-3.5035,-3.5171,-3.5296,-3.543,-3.5584,-3.5662,-3.5704,-3.5704,-3.5704,-3.5704,-3.5704,-3.5704,-3.5704,-3.3752,-3.4946,-3.6196,-3.6253,-3.7447,-3.8435,-3.7637,-3.8035,-3.8338,-3.7504,-3.7395,-3.7469,0.0,0.0,-3.793,-3.793,-3.8814,-3.9507,-3.9507,-4.1661,-4.3247,0.0,0.0,0.0,0.0,0.0,0.0,-4.58,-4.58,-4.58,-4.58,-4.5661,-4.5528,-4.54,-4.5258,-4.5103,-4.4895,-4.499,-4.5818,-4.7446,-4.8126,-4.8871,-4.9663,-4.9476,-4.9415,-4.9384,-4.9244,-4.9179,-4.9179,-4.8978,-4.8909,-4.8909,-4.8909,-4.8426,-4.7757,-4.772,-4.6735,-4.5319,-4.4599,-4.441,-4.4487,-4.4487,-4.4578,-4.4685,-4.4712,-4.4796,-4.4895,-4.4895,-4.4895,-4.4895,-4.4895,-4.4895,-4.4895,-4.4895,-4.4895,-4.4895,-4.4895,-4.4895,-4.4668,-4.391,-4.3019,-4.2147,-4.1351,-4.0479,-3.9889,-3.9889,-3.9889,-3.9627,-3.885,-3.8738,-3.8073,-3.65,-3.6234,-3.5874,-3.504,-3.4927,-3.4908,-3.4908,-3.5018,-3.5155,-3.5281,-3.5416,-3.5572,-3.5704,-3.5704,-3.5704,-3.5704,-3.5704,-3.5704,-3.5704,-3.5704,-3.5704,-3.4434,-3.5382,-3.6329,-3.6936,-3.7409,-3.7826,-3.8262,-3.7561,-3.6765,-3.6538,-3.6027,-3.559,0.0,0.0,0.0,-3.6949,-3.8389,0.0,-3.9507,-4.1119,0.0,-4.3227,0.0,-4.5142,-4.5742,-4.58,0.0,0.0,-4.5645,-4.5645,-4.5645,-4.5438,-4.5279,-4.5237,-4.5061,-4.4943,-4.4895,-4.6044,-4.7089,-4.8031,-4.8762,-4.9269,-4.9476,-4.9415,-4.9352,-4.9244,-4.9211,-4.9113,-4.8978,-4.8909,-4.8909,-4.8909,-4.8909,-4.8779,-4.8519,-4.7924,-4.7441,-4.6884,-4.5536,-4.4637,-4.4158,-4.4296,-4.4458,-4.4551,-4.4685,-4.4796,-4.4895,-4.4895,-4.4895,-4.4895,-4.4895,-4.4895,-4.4895,-4.4895,-4.4895,-4.4895,-4.4895,-4.4895,-4.4838,-4.463,-4.3417,-4.2147,-4.1351,-4.0479,-3.9889,-3.9889,-3.9889,-3.9835,-3.9627,-3.9058,-3.8548,-3.8092,-3.6936,-3.6102,-3.5893,-3.5268,-3.4908,-3.4908,-3.4926,-3.5053,-3.5281,-3.5326,-3.5457,-3.5704,-3.5704,-3.5704,-3.5704,-3.5704,-3.5704,-3.5704,-3.5704,-3.5704,-3.4775,-3.5533,-3.631,-3.6746,-3.7125,-3.7428,-3.7561,-3.6879,-3.5988,-3.5249,-3.4699,0.0,-3.3957,-3.477,0.0,0.0,0.0,0.0,-3.8876,-4.0404,-4.1932,0.0,-4.4078,0.0,-4.5722,-4.5757,-4.5677,0.0,-4.5596,-4.558,-4.551,-4.5301,-4.5192,-4.5192,-4.4991,-4.5041,-4.5344,-4.6533,-4.7465,-4.8202,-4.8946,-4.9289,-4.9289,-4.9225,-4.9127,-4.9079,-4.9079,-4.9012,-4.8909,-4.8909,-4.8909,-4.8909,-4.8909,-4.8909,-4.8853,-4.8389,-4.7999,-4.7516,-4.6252,-4.5268,-4.4538,-4.4277,-4.4325,-4.4496,-4.4578,-4.4764,-4.4895,-4.4895,-4.4895,-4.4895,-4.4895,-4.4895,-4.4895,-4.4895,-4.4895,-4.4895,-4.4895,-4.4895,-4.48,-4.444,-4.3322,-4.2147,-4.1351,-4.0479,-3.9889,-3.9889,-3.9889,-3.9889,-3.9889,-3.9513,-3.9077,-3.8757,-3.7845,-3.6992,-3.6253,-3.5742,-3.5306,-3.4927,-3.4908,-3.5,-3.5203,-3.5266,-3.5402,-3.5608,-3.5662,-3.5704,-3.5704,-3.5704,-3.5704,-3.5704,-3.5704,-3.5704,-3.4908,-3.5533,-3.6196,-3.6196,-3.6708,-3.7049,-3.6348,-3.6026,-3.5457,-3.3998,0.0,-3.3333,-3.2676,-3.333,-3.3983,-3.4173,0.0,-3.7077,-3.8063,-3.9591,-4.1293,-4.3092,-4.3982,-4.4794,-4.5703,-4.5692,-4.5613,-4.558,-4.558,-4.551,-4.5381,-4.5237,-4.5148,-4.5148,-4.4967,-4.5249,-4.5988,-4.6646,-4.7402,-4.829,-4.8875,-4.9146,-4.9146,-4.8978,-4.8909,-4.8909,-4.8909,-4.8909,-4.8909,-4.8909,-4.8909,-4.8909,-4.8909,-4.8909,-4.8909,-4.8909,-4.8463,-4.7738,-4.694,-4.6122,-4.5287,-4.4321,-4.4218,-4.4487,-4.4487,-4.4659,-4.487,-4.487,-4.487,-4.4895,-4.4895,-4.4895,-4.4895,-4.4895,-4.4895,-4.4895,-4.4895,-4.4895,-4.4687,-4.3985,-4.3076,-4.2185,-4.1484,-4.0555,-3.9889,-3.9889,-3.9889,-3.9889,-3.9889,-3.9889,-3.9646,-3.8925,-3.8755,-3.8092,-3.6651,-3.6329,-3.5874,-3.5116,-3.4984,-3.4982,-3.5088,-3.5235,-3.5388,-3.5502,-3.562,-3.5704,-3.5704,-3.5704,-3.5704,-3.5704,-3.5704,-3.5704,-3.4908,-3.5533,-3.6196,-3.6196,-3.6291,-3.6367,-3.6215,-3.5135,0.0,0.0,-3.3126,-3.2596,-3.2443,-3.2772,-3.3264,-3.4002,-3.5116,-3.6439,-3.7986,-3.9069,-4.0597,0.0,-4.344,-4.4117,-4.5645,-4.5786,0.0,0.0,-4.5419,-4.5381,-4.5237,-4.5061,-4.4895,-4.477,-4.4745,-4.5321,-4.6532,-4.67,-4.7428,-4.8788,-4.8903,-4.8943,-4.8943,-4.8909,-4.8909,-4.8909,-4.8909,-4.8909,-4.8909,-4.8909,-4.8909,-4.8909,-4.8909,-4.8909,-4.8909,-4.8909,-4.8816,-4.8574,-4.7776,-4.6977,-4.603,-4.4506,-4.4147,-4.4344,-4.4344,-4.4524,-4.4719,-4.4719,-4.4796,-4.4895,-4.4895,-4.4895,-4.4895,-4.4895,-4.4895,-4.4895,-4.4895,-4.4895,-4.4857,-4.4724,-4.3455,-4.2375,-4.2223,-4.0934,-3.9889,-3.9889,-3.9889,-3.9889,-3.9889,-3.9889,-3.9832,-3.9721,-3.9096,-3.8586,-3.8302,-3.6992,-3.614,-3.5969,-3.5399,-3.507,-3.5105,-3.5345,-3.5489,-3.5502,-3.562,-3.5704,-3.5704,-3.5704,-3.5704,-3.5704,-3.5704,-3.5704,-3.4908,-3.5211,-3.5514,-3.5514,-3.5514,-3.5401,-3.4984,0.0,0.0,0.0,-3.2065,-3.1665,-3.1276,-3.1688,0.0,-3.3365,-3.4313,-3.5523,-3.7278,-3.8276,0.0,-4.1757,-4.2763,-4.3788,0.0,-4.5445,-4.551,-4.5322,-4.5135,-4.5019,-4.4943,-4.477,-4.4659,-4.4605,-4.4524,-4.5198,-4.6694,-4.6619,-4.7359,-4.8909,-4.8909,-4.8909,-4.8909,-4.8909,-4.8909,-4.8909,-4.8909,-4.8909,-4.8909,-4.8909,-4.8909,-4.8909,-4.8909,-4.8909,-4.8909,-4.8909,-4.8909,-4.8779,-4.798,-4.7163,-4.629,-4.5064,-4.4519,-4.4285,-4.4285,-4.4458,-4.4605,-4.4685,-4.4764,-4.4815,-4.4815,-4.4815,-4.4815,-4.4815,-4.4846,-4.4895,-4.4895,-4.4895,-4.4895,-4.4895,-4.3549,-4.2412,-4.2412,-4.1029,-3.9889,-3.9804,-3.9804,-3.9804,-3.9804,-3.9804,-3.9826,-3.9889,-3.9551,-3.9153,-3.8757,-3.7959,-3.7125,-3.6253,-3.5875,-3.5475,-3.5019,-3.5251,-3.5402,-3.5402,-3.5596,-3.5704,-3.5704,-3.5704,-3.5704,-3.5704,-3.5704,-3.5704,-3.4944,-3.4982,-3.4944,-3.4754,-3.4716,-3.4507,-3.369,-3.3367,0.0,-3.1542,-3.1143,-3.0817,-3.0208,-3.0839,-3.1728,0.0,-3.355,-3.4793,-3.6385,-3.753,-3.8856,0.0,-4.2106,0.0,-4.4443,-4.4927,0.0,-4.514,-4.4808,-4.4632,-4.4659,-4.457,-4.4487,-4.4458,-4.4344,-4.5069,-4.6632,-4.6541,-4.7311,-4.8909,-4.8909,-4.8909,-4.8909,-4.8909,-4.8909,-4.8909,-4.8909,-4.8909,-4.8909,-4.8909,-4.8909,-4.8909,-4.8909,-4.8909,-4.8909,-4.8909,-4.8909,-4.8779,-4.798,-4.7163,-4.6364,-4.5565,-4.4823,-4.4255,-4.4255,-4.4344,-4.4487,-4.4632,-4.4685,-4.4712,-4.4712,-4.4712,-4.4712,-4.4712,-4.477,-4.4846,-4.4846,-4.4821,-4.4796,-4.4796,-4.3478,-4.2366,-4.2323,-4.0942,-3.9804,-3.967,-3.967,-3.967,-3.967,-3.9693,-3.9739,-3.9867,-3.9889,-3.9646,-3.9001,-3.8793,-3.815,-3.6822,-3.6425,-3.5951,-3.5249,-3.5299,-3.5345,-3.5345,-3.5584,-3.5704,-3.5704,-3.5704,-3.5704,-3.5704,-3.5704,-3.5704,-3.5044,-3.5251,-3.5059,-3.4274,-3.4083,-3.3872,-3.3072,0.0,-3.167,-3.1498,-3.0885,-3.0335,-3.0123,-3.0963,-3.1635,-3.1556,0.0,-3.4665,-3.5514,-3.7107,-3.8856,-4.0578,0.0,0.0,-4.4187,-4.4366,-4.4556,-4.4886,-4.4549,-4.4401,-4.4515,-4.4515,-4.4458,-4.4314,-4.4314,-4.5009,-4.6508,-4.6494,-4.7311,-4.8909,-4.8909,-4.8909,-4.8909,-4.8909,-4.8909,-4.8909,-4.8909,-4.8909,-4.8909,-4.8909,-4.8909,-4.8909,-4.8909,-4.8909,-4.8909,-4.8909,-4.8909,-4.8779,-4.798,-4.7163,-4.6364,-4.5565,-4.4711,-4.4036,-4.4036,-4.4177,-4.4344,-4.4487,-4.4605,-4.4712,-4.4712,-4.4712,-4.4712,-4.4712,-4.4712,-4.4738,-4.4738,-4.4632,-4.4542,-4.4542,-4.3295,-4.2197,-4.2077,-4.0758,-3.967,-3.9551,-3.9526,-3.9526,-3.9526,-3.9604,-3.9717,-3.9717,-3.9826,-3.9851,-3.9816,-3.9115,-3.8643,-3.8491,-3.7167,-3.6365,-3.6269,-3.5748,-3.547,-3.547,-3.5639,-3.5704,-3.5704,-3.5704,-3.5704,-3.5704,-3.5704,-3.5704,-3.3695,-3.3806,-3.371,-3.3365,-3.3288,-3.3058,-3.2215,0.0,-3.1353,-3.0874,-3.0522,-3.0279,-3.024,-3.0976,-3.1757,-3.2282,-3.3441,0.0,-3.5485,-3.6648,-3.787,-3.9088,-4.0442,0.0,0.0,0.0,-4.4183,-4.4501,-4.4277,-4.4128,-4.4188,-4.4188,-4.4158,-4.4116,-4.4116,-4.4885,-4.6475,-4.6494,-4.7311,-4.8909,-4.8909,-4.8909,-4.8909,-4.8909,-4.8909,-4.8909,-4.8909,-4.8909,-4.8909,-4.8909,-4.8909,-4.8909,-4.8909,-4.8909,-4.8909,-4.8909,-4.8593,-4.8129,-4.7813,-4.6865,-4.5714,-4.5398,-4.4711,-4.4005,-4.4005,-4.4067,-4.4177,-4.4411,-4.4487,-4.4468,-4.4551,-4.4578,-4.4551,-4.4468,-4.4578,-4.4685,-4.4605,-4.4542,-4.4364,-4.3876,-4.2878,-4.1926,-4.1367,-4.0322,-3.9532,-3.9401,-3.9376,-3.9427,-3.9502,-3.9551,-3.9647,-3.9804,-3.9867,-3.9889,-3.9889,-3.9608,-3.921,-3.8738,-3.8115,-3.7376,-3.6441,-3.6205,-3.5916,-3.5502,-3.562,-3.5704,-3.5704,-3.5704,-3.5704,-3.5704,-3.5704,-3.5704,-3.243,-3.2692,-3.2827,-3.2577,-3.25,-3.2289,0.0,0.0,-3.1059,-3.0513,-3.0398,-3.0386,-3.0343,-3.1239,-3.2109,-3.248,0.0,-3.4755,-3.5195,-3.6223,-3.7208,0.0,0.0,-4.1065,0.0,-4.3611,-4.4096,-4.4288,-4.4097,-4.4005,-4.4005,-4.4005,-4.4005,-4.4005,-4.4005,-4.4804,-4.6475,-4.6494,-4.7311,-4.8909,-4.8909,-4.8909,-4.8909,-4.8909,-4.8909,-4.8909,-4.8909,-4.8909,-4.8909,-4.8909,-4.8909,-4.8909,-4.8909,-4.8909,-4.8872,-4.863,-4.8184,-4.7627,-4.7163,-4.6252,-4.5249,-4.4989,-4.4506,-4.4005,-4.4005,-4.4005,-4.4067,-4.4354,-4.4373,-4.4314,-4.443,-4.443,-4.443,-4.4314,-4.444,-4.4551,-4.4458,-4.4383,-4.4111,-4.3306,-4.25,-4.1657,-4.0825,-3.9989,-3.9401,-3.9272,-3.9245,-3.9298,-3.9408,-3.9477,-3.9599,-3.9804,-3.9889,-3.9889,-3.9889,-3.9889,-3.9665,-3.9077,-3.8812,-3.8116,-3.6803,-3.6597,-3.6185,-3.5502,-3.562,-3.5704,-3.5704,-3.5704,-3.5704,-3.5704,-3.5704,-3.5704,-3.1554,-3.2444,-3.2889,-3.2019,-3.1806,-3.1594,0.0,0.0,-3.0617,-3.0598,-3.0598,-3.055,-3.0409,-3.1868,-3.2744,-3.1693,-3.3807,0.0,-3.4334,-3.5765,-3.7192,0.0,0.0,-4.0239,-4.2389,-4.3641,-4.4314,-4.4285,-4.4097,-4.4005,-4.4005,-4.4005,-4.4005,-4.4005,-4.4005,-4.4804,-4.6475,-4.6494,-4.7311,-4.8909,-4.8909,-4.8909,-4.8909,-4.8909,-4.8909,-4.8909,-4.8909,-4.8909,-4.8909,-4.8909,-4.8909,-4.8909,-4.8909,-4.8909,-4.8797,-4.8017,-4.7701,-4.746,-4.5881,-4.5305,-4.5157,-4.4283,-4.4005,-4.4005,-4.4005,-4.4005,-4.4036,-4.4255,-4.4285,-4.4285,-4.4314,-4.4314,-4.4314,-4.4285,-4.4314,-4.4314,-4.4314,-4.4147,-4.3763,-4.2946,-4.2247,-4.1484,-4.056,-3.9796,-3.9245,-3.9129,-3.9101,-3.9137,-3.9298,-3.9427,-3.9532,-3.9693,-3.9826,-3.9889,-3.9889,-3.9889,-3.9889,-3.9889,-3.9134,-3.8382,-3.7622,-3.6903,-3.6185,-3.5502,-3.562,-3.5704,-3.5704,-3.5704,-3.5704,-3.5704,-3.5704,-3.5704,-2.9119,-2.9399,-2.9553,-2.9263,-2.966,-3.0028,-2.9777,-3.0144,-3.052,-3.053,-3.0579,-3.0559,-3.0479,-3.1899,-3.2971,-3.2594,-3.4248,0.0,0.0,0.0,0.0,-3.7926,-4.0159,-4.18,0.0,0.0,-4.4237,-4.4116,-4.4036,-4.4005,-4.4005,-4.4005,-4.4005,-4.4005,-4.4005,-4.4544,-4.5658,-4.6234,-4.7033,-4.8091,-4.8649,-4.8909,-4.8909,-4.8909,-4.8909,-4.8909,-4.8909,-4.8909,-4.8909,-4.8909,-4.8909,-4.8909,-4.8909,-4.8556,-4.8054,-4.7794,-4.6995,-4.5992,-4.5472,-4.4915,-4.4376,-4.4098,-4.4005,-4.4005,-4.4005,-4.4005,-4.4005,-4.4067,-4.4177,-4.4285,-4.4147,-4.4207,-4.4255,-4.4147,-4.4207,-4.4255,-4.4097,-4.4036,-4.3596,-4.224,-4.1805,-4.1202,-3.9751,-3.9323,-3.9156,-3.9101,-3.9101,-3.9156,-3.9272,-3.935,-3.9408,-3.9551,-3.9599,-3.9712,-3.9889,-3.9826,-3.9829,-4.002,-3.9713,-3.9014,-3.7913,-3.7655,-3.6906,-3.5596,-3.5601,-3.5643,-3.5643,-3.5673,-3.5704,-3.5704,-3.5704,-3.5704,0.0,-2.7755,-2.7995,-2.7995,-2.8665,0.0,0.0,-2.9912,-3.05,-3.0509,-3.053,-3.054,-3.0509,-3.1648,-3.267,-3.2949,-3.4183,0.0,0.0,0.0,0.0,-3.7723,0.0,0.0,0.0,-4.31,-4.3811,-4.3986,-4.4005,-4.4005,-4.4005,-4.4005,-4.4005,-4.4005,-4.4005,-4.4413,-4.5287,-4.5788,-4.6438,-4.7256,-4.8054,-4.8444,-4.8463,-4.876,-4.8909,-4.8909,-4.8909,-4.8909,0.0,-4.8909,-4.8723,-4.8444,-4.8444,-4.7961,-4.7218,-4.6903,-4.616,-4.5249,-4.4915,-4.4451,-4.4005,-4.4005,-4.4005,-4.4005,-4.4005,-4.4005,-4.4005,-4.4005,-4.4097,-4.4147,-4.4036,-4.4097,-4.4147,-4.4036,-4.4116,-4.4147,-4.4036,-4.4005,-4.3522,-4.1906,-4.159,-4.107,-3.938,-3.9101,-3.9101,-3.9101,-3.9101,-3.9156,-3.9272,-3.9298,-3.935,-3.9502,-3.9502,-3.9599,-3.9889,-3.9829,-3.9897,-4.0158,-4.0101,-3.9411,-3.7982,-3.7973,-3.7209,-3.5572,-3.557,-3.5612,-3.5643,-3.5673,-3.5704,-3.5704,-3.5704,-3.5704,0.0,-2.7194,-2.7813,-2.7813,0.0,0.0,0.0,0.0,0.0,-3.0499,-3.0499,-3.0499,-3.0499,-3.1152,-3.1989,-3.2841,-3.3677,0.0,0.0,-3.5599,0.0,0.0,-3.9677,0.0,-4.1781,-4.2416,-4.3113,-4.3856,-4.3968,-4.4005,-4.4005,-4.4005,-4.4005,-4.4005,-4.4005,-4.4395,-4.5194,-4.5268,-4.5677,-4.642,-4.7237,-4.7608,-4.7646,-4.8389,-4.8723,-4.8723,-4.8723,-4.8723,-4.8723,-4.8723,-4.8296,-4.7608,-4.7608,-4.7125,-4.6308,-4.5565,-4.5249,-4.5082,-4.4283,-4.4005,-4.4005,-4.4005,-4.4005,-4.4005,-4.4005,-4.4005,-4.4005,-4.4005,-4.4005,-4.4005,-4.4005,-4.4005,-4.4005,-4.4005,-4.4005,-4.4005,-4.4005,-4.4005,-4.3522,-4.1906,-4.159,-4.107,-3.938,-3.9101,-3.9101,-3.9101,-3.9101,-3.9137,-3.9272,-3.9298,-3.935,-3.9477,-3.9502,-3.9599,-3.9851,-3.9897,-4.0002,-4.0307,-4.0245,-3.9478,-3.789,-3.7871,-3.7137,-3.5443,-3.5534,-3.5643,-3.5704,-3.5704,-3.5704,-3.5704,-3.5704,-3.5704,-2.5663,0.0,-2.6091,-2.6091,-2.7179,-2.8222,0.0,0.0,0.0,0.0,0.0,0.0,0.0,0.0,-3.1977,-3.2781,0.0,-3.4501,-3.5386,0.0,0.0,-3.7871,-3.9795,-4.1135,-4.1279,-4.222,-4.2872,-4.3076,-4.3652,-4.4005,-4.4005,-4.4005,-4.4005,-4.4005,-4.4005,-4.4098,-4.4302,-4.4971,-4.5379,-4.5584,-4.6401,-4.6773,-4.6791,-4.6977,-4.7051,-4.7051,-4.7051,-4.7051,-4.7051,-4.7051,-4.694,-4.6773,-4.6773,-4.629,-4.5565,-4.5361,-4.4878,-4.4283,-4.4079,-4.4005,-4.4005,-4.4005,-4.4005,-4.4005,-4.4005,-4.4005,-4.4005,-4.4005,-4.4005,-4.4005,-4.4005,-4.4005,-4.4005,-4.4005,-4.4005,-4.4005,-4.4005,-4.4005,-4.3522,-4.1906,-4.159,-4.107,-3.938,-3.9101,-3.9101,-3.9101,-3.9101,-3.9129,-3.9137,-3.9156,-3.9156,-3.9192,-3.9376,-3.9526,-3.9599,-3.9675,-3.996,-4.0425,-3.9725,-3.8953,-3.815,-3.7462,-3.6614,-3.5579,-3.5577,-3.5643,-3.5704,-3.5704,-3.5704,-3.5704,-3.5704,-3.5704,-2.5453,-2.5456,-2.5456,-2.5448,-2.6688,-2.7903,0.0,0.0,0.0,0.0,0.0,0.0,0.0,0.0,0.0,0.0,-3.3295,0.0,0.0,0.0,-3.7909,-3.7708,-3.9353,-4.0579,-4.0754,-4.168,-4.2389,-4.276,-4.3559,-4.4005,-4.4005,-4.4005,-4.4005,-4.4005,-4.4005,-4.4005,-4.4005,-4.4469,-4.4692,-4.4711,-4.5547,-4.5955,-4.5955,-4.6327,-4.6494,-4.6494,-4.6494,-4.6494,-4.6494,-4.6494,-4.6271,-4.5955,-4.5955,-4.5435,-4.4692,-4.4692,-4.4413,-4.4005,-4.4005,-4.4005,-4.4005,-4.4005,-4.4005,-4.4005,-4.4005,-4.4005,-4.4005,-4.4005,-4.4005,-4.4005,-4.4005,-4.4005,-4.4005,-4.4005,-4.4005,-4.4005,-4.4005,-4.3708,-4.3076,-4.1832,-4.1293,-4.0624,-3.9324,-3.9101,-3.9101,-3.9101,-3.9101,-3.9101,-3.9101,-3.9101,-3.9101,-3.9101,-3.9219,-3.9408,-3.9632,-3.9683,-3.9922,-4.0336,-3.9618,-3.8854,-3.8176,-3.7282,-3.6415,-3.5611,-3.5608,-3.5601,-3.5608,-3.5608,-3.5584,-3.5515,-3.5584,-3.5608,-2.5505,-2.5461,-2.5418,-2.5404,-2.666,-2.7893,-2.7913,0.0,0.0,0.0,0.0,0.0,0.0,-3.0398,0.0,0.0,0.0,0.0,-3.5295,-3.6901,-3.7795,-3.7394,-3.8772,0.0,-4.0216,-4.095,-4.1739,-4.2556,-4.3355,-4.3875,-4.3986,-4.4005,-4.4005,-4.4005,-4.4005,-4.4005,-4.4005,-4.4005,-4.4005,-4.4005,-4.4748,-4.5101,-4.5119,-4.5807,-4.6122,-4.6122,-4.6122,-4.6122,-4.6122,-4.6122,-4.5714,-4.5101,-4.5101,-4.4655,-4.4005,-4.4005,-4.4005,-4.4005,-4.4005,-4.4005,-4.4005,-4.4005,-4.4005,-4.4005,-4.4005,-4.4005,-4.4005,-4.4005,-4.4005,-4.4005,-4.4005,-4.4005,-4.4005,-4.4005,-4.4005,-4.4005,-4.4005,-4.3373,-4.2556,-4.1757,-4.094,-4.0104,-3.925,-3.9101,-3.9101,-3.9101,-3.9101,-3.9101,-3.9101,-3.9101,-3.9101,-3.9101,-3.9165,-3.9338,-3.9664,-3.9819,-3.9907,-3.9947,-3.9473,-3.8728,-3.7737,-3.6986,-3.6299,-3.5611,-3.5577,-3.5565,-3.5515,-3.5515,-3.543,-3.5296,-3.5457,-3.5528,-2.5452,-2.5492,-2.5538,-2.5421,-2.6651,-2.7894,-2.7893,0.0,0.0,0.0,0.0,0.0,0.0,-3.0398,-3.0948,0.0,0.0,-3.5199,0.0,0.0,-3.7636,-3.7563,0.0,-3.9564,-3.9621,-4.0207,-4.0921,-4.172,-4.2519,-4.328,-4.3968,-4.4005,-4.4005,-4.4005,-4.4005,-4.4005,-4.4005,-4.4005,-4.4005,-4.4005,-4.4135,-4.4191,-4.4191,-4.4321,-4.4376,-4.4376,-4.4376,-4.4376,-4.4376,-4.4376,-4.4302,-4.4191,-4.4191,-4.4116,-4.4005,-4.4005,-4.4005,-4.4005,-4.4005,-4.4005,-4.4005,-4.4005,-4.4005,-4.4005,-4.4005,-4.4005,-4.4005,-4.4005,-4.4005,-4.4005,-4.4005,-4.4005,-4.4005,-4.4005,-4.4005,-4.4005,-4.4005,-4.3373,-4.2556,-4.1757,-4.094,-4.0104,-3.925,-3.9101,-3.9101,-3.9101,-3.9101,-3.9101,-3.9101,-3.9101,-3.9101,-3.9101,-3.9445,-3.9548,-3.9227,-3.9944,-3.9943,-3.8893,-3.8465,-3.7522,-3.5949,-3.5778,-3.5682,-3.5591,-3.5483,-3.5451,-3.5515,-3.5515,-3.543,-3.5315,-3.554,-3.5608,-2.5532,-2.5554,-2.5679,-2.6014,-2.7043,-2.8068,-2.8461,0.0,0.0,0.0,0.0,0.0,0.0,0.0,-3.0948,-3.2622,0.0,-3.5493,-3.5493,-3.6741,-3.7602,-3.7452,-3.8659,-3.9433,-3.9298,-3.9965,-4.055,-4.0921,-4.2092,-4.2965,-4.3336,-4.3763,-4.4005,-4.4005,-4.4005,-4.3923,-4.3795,-4.3795,-4.386,-4.4005,-4.4005,-4.3923,-4.3795,-4.3923,-4.3923,-4.3795,-4.3942,-4.4005,-4.4005,-4.3828,-4.386,-4.4005,-4.3828,-4.386,-4.4005,-4.4005,-4.3726,-4.3355,-4.3355,-4.3076,-4.276,-4.3206,-4.3355,-4.3429,-4.3875,-4.4005,-4.4005,-4.4005,-4.4005,-4.4005,-4.4005,-4.4005,-4.4005,-4.4005,-4.4005,-4.3875,-4.3448,-4.2723,-4.1906,-4.1107,-4.0271,-3.9565,-3.9175,-3.9101,-3.9101,-3.9101,-3.9101,-3.9101,-3.9101,-3.9101,-3.9101,-3.9101,-3.9287,-3.9445,-3.947,-3.9482,-3.9127,-3.8341,-3.7667,-3.6757,-3.5565,-3.5501,-3.5495,-3.5482,-3.5435,-3.5374,-3.5281,-3.5281,-3.5219,-3.5088,-3.536,-3.5416,-2.5613,-2.5764,-2.6101,-2.6819,0.0,-2.8164,-2.8931,0.0,0.0,0.0,0.0,0.0,0.0,-3.0717,0.0,-3.2699,-3.4326,-3.5432,-3.5432,-3.6661,-3.7451,-3.7249,-3.8517,-3.9324,-3.9129,-3.9695,-4.0178,-4.0383,-4.1534,-4.2314,-4.25,-4.3095,-4.3522,-4.3708,-4.3645,-4.361,-4.3579,-4.3529,-4.3597,-4.3795,-4.3795,-4.3697,-4.3529,-4.373,-4.3697,-4.3529,-4.373,-4.3795,-4.3795,-4.3597,-4.3664,-4.386,-4.3597,-4.3553,-4.3595,-4.3472,-4.3039,-4.2519,-4.2519,-4.211,-4.1702,-4.2314,-4.2519,-4.263,-4.3243,-4.3448,-4.3485,-4.367,-4.3726,-4.3763,-4.3949,-4.4005,-4.4005,-4.4005,-4.3856,-4.3559,-4.2927,-4.2017,-4.1126,-4.0513,-3.9695,-3.9101,-3.9101,-3.9101,-3.9101,-3.9101,-3.9101,-3.9101,-3.9101,-3.9101,-3.9129,-3.921,-3.9245,-3.937,-3.9658,-3.8816,-3.8099,-3.7644,-3.6814,-3.6065,-3.547,-3.5398,-3.5369,-3.5335,-3.532,-3.5239,-3.5105,-3.5105,-3.5035,-3.4908,-3.5171,-3.5219,-2.5613,-2.623,-2.7069,-2.7733,-2.7913,0.0,-2.892,-2.9775,0.0,-3.0398,0.0,0.0,0.0,-3.1679,-3.2756,-3.2872,-3.4208,-3.5226,-3.5226,-3.627,-3.7047,-3.7024,-3.8264,-3.9129,-3.9101,-3.9157,-3.9528,-4.0327,-4.0494,-4.0903,-4.1646,-4.1739,-4.211,-4.2853,-4.2636,-4.2857,-4.3579,-4.3356,-4.3232,-4.3268,-4.3268,-4.3232,-4.3232,-4.3232,-4.3232,-4.3232,-4.3232,-4.3268,-4.3268,-4.3232,-4.341,-4.3579,-4.3321,-4.2951,-4.2447,-4.1946,-4.1739,-4.1683,-4.1683,-4.1646,-4.1609,-4.1664,-4.1683,-4.1702,-4.1757,-4.1757,-4.1924,-4.2686,-4.289,-4.3058,-4.3819,-4.4005,-4.4005,-4.4005,-4.3429,-4.2872,-4.2816,-4.1571,-4.0457,-4.0401,-3.9695,-3.9101,-3.9101,-3.9101,-3.9101,-3.9101,-3.9101,-3.9101,-3.9101,-3.9101,-3.921,-3.9433,-3.9637,-3.9638,-3.9349,-3.8137,-3.7128,-3.6564,-3.5761,-3.5283,-3.5226,-3.5105,-3.5069,-3.5122,-3.5126,-3.5108,-3.5105,-3.5105,-3.5035,-3.4908,-3.5171,-3.5219,-2.6323,-2.6665,-2.7181,-2.8488,-2.8733,0.0,0.0,-3.016,-3.0398,-3.0398,-3.0398,0.0,0.0,0.0,-3.3083,-3.3622,-3.4553,-3.5209,-3.5209,-3.5815,-3.6437,-3.6944,-3.7809,-3.8544,-3.9045,-3.9101,-3.9231,-3.9565,-4.0085,-4.0513,-4.0828,-4.133,-4.1661,-4.1785,-4.1709,-4.1644,-4.1613,-4.1488,-4.1342,-4.1155,-4.2523,-4.3087,-4.292,-4.3123,-4.2832,-4.2213,-4.2359,-4.2174,-4.1699,-4.1524,-4.1613,-4.187,-4.1922,-4.1936,-4.1878,-4.1672,-4.1274,-4.0847,-4.0847,-4.0494,-4.0123,-4.068,-4.0847,-4.094,-4.1441,-4.159,-4.1664,-4.1962,-4.2054,-4.2352,-4.3652,-4.3633,-4.3243,-4.3243,-4.263,-4.1924,-4.1423,-4.0828,-4.0234,-3.9695,-3.9324,-3.9101,-3.9101,-3.9101,-3.9101,-3.9101,-3.9101,-3.9101,-3.9101,-3.9101,-3.9192,-3.9458,-3.934,-3.8994,-3.8353,-3.7333,-3.6422,-3.5706,-3.5381,-3.5141,-3.5019,-3.4999,-3.4999,-3.4982,-3.4982,-3.4964,-3.4908,-3.4908,-3.4888,-3.4849,-3.507,-3.5105,-2.6808,-2.7264,-2.7861,0.0,0.0,0.0,-3.0275,-3.0398,-3.0398,-3.0398,-3.0609,0.0,-3.1583,0.0,0.0,0.0,-3.4668,-3.5089,-3.5019,-3.5407,-3.5914,-3.6451,-3.7105,-3.7838,-3.8637,-3.8711,-3.8822,-3.9082,-3.964,-3.9974,-3.9974,-4.0513,-4.0815,-4.0812,-4.0717,-4.0583,-4.0384,-4.031,-4.0105,-3.9932,-4.1429,-4.2047,-4.18,-4.2047,-4.1776,-4.1083,-4.127,-4.1017,-4.0509,-4.0329,-4.0347,-4.0544,-4.0744,-4.0861,-4.0935,-4.0826,-4.0457,-3.9974,-3.9974,-3.9602,-3.9194,-3.9788,-3.9974,-4.0085,-4.0643,-4.081,-4.0866,-4.1126,-4.1219,-4.1534,-4.289,-4.2835,-4.2407,-4.2407,-4.1813,-4.107,-4.0513,-4.0178,-3.9807,-3.9212,-3.9101,-3.9101,-3.9101,-3.9101,-3.9101,-3.9101,-3.9101,-3.9101,-3.9101,-3.9101,-3.9125,-3.9199,-3.9029,-3.8476,-3.737,-3.6686,-3.5929,-3.5076,-3.5019,-3.4964,-3.4811,-3.4812,-3.4812,-3.4811,-3.4811,-3.4791,-3.4788,-3.4788,-3.4788,-3.4809,-3.4964,-3.4982,-2.6918,-2.8085,0.0,0.0,0.0,0.0,-3.0414,-3.0398,-3.0398,-3.0398,-3.1102,-3.1698,-3.1718,-3.3064,0.0,-3.3941,-3.4466,-3.4831,-3.4645,-3.5109,-3.5479,-3.5497,-3.6185,-3.7002,-3.7801,-3.7894,-3.8209,-3.9027,-3.9082,-3.9082,-3.9101,-3.9101,-3.9359,-3.9964,-3.9648,-3.9763,-4.0347,-4.005,-3.9896,-3.9896,-3.9896,-3.9896,-3.9914,-3.9914,-3.9914,-3.9896,-3.9896,-3.9896,-3.9896,-3.9896,-3.9896,-3.9884,-3.9977,-3.9777,-3.9473,-3.9209,-3.9101,-3.9101,-3.9101,-3.9101,-3.9101,-3.9101,-3.9101,-3.9101,-3.9101,-3.9101,-3.9287,-4.0141,-4.0383,-4.0568,-4.1367,-4.1571,-4.1571,-4.159,-4.0958,-4.0383,-4.0383,-3.9714,-3.9101,-3.9101,-3.9101,-3.9101,-3.9101,-3.9101,-3.9101,-3.9101,-3.9101,-3.9101,-3.9082,-3.9082,-3.8962,-3.8615,-3.8766,-3.8209,-3.6528,-3.6198,-3.5661,-3.4661,-3.4602,-3.4602,-3.4602,-3.4473,-3.4473,-3.4602,-3.4602,-3.4666,-3.4788,-3.4788,-3.4788,-3.4788,-3.487,-3.485,-2.7593,-2.8461,0.0,-2.9979,0.0,0.0,0.0,-3.0398,0.0,0.0,-3.0976,-3.1675,-3.223,-3.3134,0.0,-3.4507,-3.466,-3.4668,-3.4623,-3.4587,-3.481,-3.5423,-3.5702,-3.6166,-3.6965,-3.7013,-3.7312,-3.8127,-3.8127,-3.8358,-3.8913,-3.8688,-3.8546,-3.8525,-3.8325,-3.8223,-3.8216,-3.8272,-3.8272,-3.8272,-3.8272,-3.8843,-3.9914,-3.9914,-3.9629,-3.9147,-3.9147,-3.8808,-3.8272,-3.8272,-3.8383,-3.8581,-3.8787,-3.8939,-3.9026,-3.9081,-3.9101,-3.9101,-3.9101,-3.9101,-3.9101,-3.9101,-3.9101,-3.9101,-3.9101,-3.9101,-3.9157,-3.9417,-3.9491,-3.9547,-3.977,-3.9844,-3.9993,-4.0606,-4.0104,-3.9491,-3.9491,-3.9287,-3.9101,-3.9101,-3.9101,-3.9101,-3.9101,-3.9101,-3.9101,-3.9101,-3.9101,-3.8933,-3.852,-3.8625,-3.8467,-3.7768,-3.7375,-3.6877,-3.6235,-3.5491,-3.491,-3.4602,-3.4409,-3.4316,-3.4316,-3.4473,-3.4517,-3.4473,-3.4539,-3.4561,-3.4517,-3.4623,-3.4666,-3.4666,-3.4769,-3.4829,-2.8415,0.0,0.0,-3.0335,-3.0436,-3.0367,-3.0299,0.0,0.0,0.0,-3.1125,-3.2012,-3.2441,-3.3389,-3.4264,-3.4696,-3.4668,-3.4561,-3.4473,-3.4293,-3.4401,-3.4878,-3.4952,-3.5243,-3.6051,-3.6144,-3.6451,-3.7239,-3.7137,-3.7253,-3.7702,-3.7411,-3.7054,-3.6804,-3.6701,-3.6542,-3.6247,-3.6395,-3.6505,-3.6559,-3.6559,-3.7076,-3.8058,-3.8701,-3.8736,-3.8326,-3.8326,-3.8041,-3.7631,-3.7721,-3.7845,-3.8052,-3.8415,-3.8652,-3.8803,-3.9017,-3.9101,-3.9101,-3.9101,-3.9101,-3.9101,-3.9101,-3.9101,-3.9101,-3.9101,-3.9101,-3.9101,-3.9101,-3.9101,-3.9101,-3.9101,-3.9101,-3.9231,-3.9751,-3.9472,-3.9101,-3.9101,-3.9101,-3.9101,-3.9101,-3.9101,-3.9008,-3.8674,-3.8618,-3.8507,-3.8191,-3.8154,-3.8021,-3.7654,-3.7826,-3.7643,-3.6793,-3.6464,-3.6064,-3.5568,-3.495,-3.4539,-3.445,-3.4293,-3.4197,-3.4197,-3.434,-3.4427,-3.4386,-3.4427,-3.4427,-3.4386,-3.4539,-3.4561,-3.4517,-3.4708,-3.4747,-2.9178,0.0,0.0,-3.0398,-3.0398,0.0,-3.0136,-3.0241,-3.0299,-3.0122,0.0,-3.2521,-3.2406,-3.3734,-3.4772,-3.4583,-3.4561,-3.4473,-3.4221,-3.4197,-3.4173,-3.4099,-3.4099,-3.437,-3.5114,-3.524,-3.5547,-3.6261,-3.6101,-3.5956,-3.5927,-3.5612,-3.5319,-3.5065,-3.503,-3.4907,-3.4689,-3.4689,-3.478,-3.4978,-3.4995,-3.5084,-3.5223,-3.672,-3.7362,-3.7362,-3.7362,-3.7362,-3.7399,-3.7664,-3.7767,-3.7835,-3.837,-3.8552,-3.8601,-3.8795,-3.8878,-3.8878,-3.8878,-3.8878,-3.8878,-3.8878,-3.8878,-3.8878,-3.8878,-3.8934,-3.899,-3.899,-3.9045,-3.9101,-3.9101,-3.9101,-3.9101,-3.9101,-3.9101,-3.9101,-3.9101,-3.9045,-3.899,-3.899,-3.8934,-3.8655,-3.7912,-3.7782,-3.7541,-3.6798,-3.6686,-3.6694,-3.6619,-3.6793,-3.6596,-3.5784,-3.5847,-3.5567,-3.4639,-3.4561,-3.4473,-3.4221,-3.4197,-3.4197,-3.4197,-3.4221,-3.4269,-3.4363,-3.4269,-3.4269,-3.4386,-3.4517,-3.4517,-3.4404,-3.4645,-3.4645,-2.9147,-2.9748,0.0,0.0,-3.0267,-3.015,-3.0109,-3.0052,-2.9996,-2.9965,-3.1143,-3.2203,-3.2183,-3.3353,-3.434,-3.4293,-3.4245,-3.4197,-3.4124,-3.4124,-3.4099,-3.4023,-3.4074,-3.4148,-3.4257,-3.4249,-3.443,-3.4976,-3.4902,-3.5005,-3.5349,-3.5065,-3.4853,-3.4781,-3.4616,-3.4521,-3.4463,-3.4616,-3.4726,-3.478,-3.4906,-3.5031,-3.5066,-3.5509,-3.5721,-3.5721,-3.5721,-3.5721,-3.5721,-3.5993,-3.6125,-3.6158,-3.6637,-3.684,-3.6869,-3.7108,-3.7206,-3.7206,-3.7206,-3.7206,-3.7206,-3.7206,-3.7206,-3.7206,-3.7206,-3.7652,-3.8154,-3.8154,-3.8599,-3.9101,-3.9101,-3.9101,-3.9101,-3.9101,-3.9101,-3.9101,-3.9101,-3.8599,-3.8154,-3.8154,-3.7652,-3.7151,-3.6983,-3.6946,-3.6891,-3.6723,-3.6686,-3.6521,-3.6045,-3.6021,-3.5747,-3.494,-3.4889,-3.4752,-3.4311,-3.4293,-3.4269,-3.4197,-3.4197,-3.4197,-3.4197,-3.4293,-3.4316,-3.4245,-3.4316,-3.4316,-3.4245,-3.4381,-3.4427,-3.4386,-3.4473,-3.4473,-2.9729,0.0,0.0,-3.0267,0.0,-2.9977,-2.988,-2.9801,-2.9734,-2.9626,-3.0602,-3.1575,-3.1862,-3.2832,-3.3703,-3.4068,-3.4074,-3.4049,-3.4049,-3.4049,-3.4023,-3.3947,-3.3972,-3.3972,-3.3895,-3.3743,-3.3743,-3.3971,-3.3687,-3.358,-3.3807,-3.3476,-3.3293,-3.3293,-3.3199,-3.3179,-3.3179,-3.3273,-3.3366,-3.3439,-3.3635,-3.381,-3.4017,-3.4848,-3.5204,-3.5204,-3.5204,-3.5272,-3.5406,-3.5666,-3.5854,-3.5957,-3.6353,-3.6509,-3.6509,-3.666,-3.6686,-3.6686,-3.6686,-3.6686,-3.6686,-3.6686,-3.6686,-3.6686,-3.6686,-3.6983,-3.7318,-3.7318,-3.7634,-3.7949,-3.7949,-3.7949,-3.7949,-3.7949,-3.8247,-3.8525,-3.8525,-3.7894,-3.7318,-3.7318,-3.6983,-3.6575,-3.6185,-3.5776,-3.5497,-3.5497,-3.5497,-3.538,-3.5077,-3.5021,-3.4853,-3.4465,-3.4427,-3.434,-3.4221,-3.4197,-3.4197,-3.4197,-3.4197,-3.4197,-3.4197,-3.4269,-3.4269,-3.4197,-3.4269,-3.4269,-3.4197,-3.434,-3.4381,-3.4293,-3.4363,-3.4381,-3.0367,0.0,-3.0235,-3.0095,-2.9946,0.0,-2.9644,-2.957,-2.9493,-2.9326,-3.0085,-3.0951,-3.1566,-3.2358,-3.313,-3.3894,-3.3998,-3.3972,-3.3972,-3.3972,-3.3947,-3.3895,-3.3895,-3.3842,-3.3734,-3.3522,-3.3302,-3.3124,-3.2666,-3.2335,-3.2214,-3.1965,-3.18,-3.18,-3.18,-3.18,-3.18,-3.18,-3.1856,-3.2037,-3.2232,-3.2488,-3.2888,-3.4222,-3.4811,-3.4811,-3.4811,-3.4945,-3.5205,-3.5484,-3.5703,-3.5901,-3.6163,-3.6259,-3.6259,-3.6259,-3.6259,-3.6259,-3.6259,-3.6259,-3.6259,-3.6259,-3.6259,-3.6259,-3.6259,-3.637,-3.6482,-3.6482,-3.6575,-3.6686,-3.6686,-3.6686,-3.6686,-3.6686,-3.7095,-3.7522,-3.7652,-3.7058,-3.6482,-3.6482,-3.637,-3.6055,-3.5386,-3.468,-3.4197,-3.4197,-3.4197,-3.4197,-3.4197,-3.4197,-3.4197,-3.4197,-3.4197,-3.4197,-3.4197,-3.4197,-3.4197,-3.4197,-3.4197,-3.4197,-3.4197,-3.4197,-3.4197,-3.4197,-3.4197,-3.4197,-3.4197,-3.4316,-3.4316,-3.4197,-3.4316,-3.4293,0.0,0.0,-3.0095,0.0,-2.975,-2.9551,0.0,0.0,-2.9326,0.0,-3.0018,-3.0816,-3.1496,-3.231,-3.313,-3.3894,-3.3947,-3.3921,-3.3921,-3.3921,-3.3895,-3.3815,-3.3868,-3.3762,-3.3408,-3.3332,-3.3063,-3.247,-3.2352,-3.2179,-3.1893,-3.1837,-3.18,-3.18,-3.18,-3.18,-3.18,-3.18,-3.18,-3.1819,-3.2161,-3.242,-3.2639,-3.3016,-3.3205,-3.3205,-3.3205,-3.3347,-3.3545,-3.3829,-3.4037,-3.4252,-3.4457,-3.4531,-3.4531,-3.4531,-3.4531,-3.4531,-3.4531,-3.4531,-3.4531,-3.4531,-3.4531,-3.4531,-3.4531,-3.5052,-3.5646,-3.5646,-3.6147,-3.6686,-3.6686,-3.6686,-3.6686,-3.6686,-3.624,-3.5999,-3.6705,-3.6222,-3.5646,-3.5646,-3.5052,-3.4494,-3.4383,-3.4271,-3.4197,-3.4197,-3.4197,-3.4197,-3.4197,-3.4197,-3.4197,-3.4197,-3.4197,-3.4197,-3.4197,-3.4197,-3.4197,-3.4197,-3.4197,-3.4197,-3.4197,-3.4197,-3.4197,-3.4197,-3.4197,-3.4197,-3.4197,-3.4221,-3.4221,-3.4197,-3.4221,-3.4221,-3.0095,-3.0022,-2.988,0.0,-2.9532,-2.9412,-2.9433,0.0,-2.924,-2.9197,-2.9518,-3.0169,-3.1328,-3.1844,-3.249,-3.3692,-3.3707,-3.3578,-3.3578,-3.339,-3.3255,-3.3225,-3.3273,-3.3196,-3.3032,-3.2844,-3.2636,-3.2318,-3.2126,-3.1965,-3.18,-3.18,-3.18,-3.18,-3.18,-3.18,-3.18,-3.18,-3.1873,-3.1965,-3.2108,-3.2335,-3.2588,-3.2705,-3.2802,-3.2916,-3.3024,-3.319,-3.3444,-3.3652,-3.3895,-3.4074,-3.4173,-3.4197,-3.4197,-3.4197,-3.4197,-3.4197,-3.4197,-3.4197,-3.4197,-3.4197,-3.4197,-3.4197,-3.4197,-3.4457,-3.4773,-3.4773,-3.5014,-3.5293,-3.5293,-3.5293,-3.5293,-3.5293,-3.5014,-3.4866,-3.5219,-3.5014,-3.4773,-3.4773,-3.4457,-3.4197,-3.4197,-3.4197,-3.4197,-3.4197,-3.4197,-3.4197,-3.4197,-3.4197,-3.4197,-3.4197,-3.4197,-3.4197,-3.4197,-3.4197,-3.4197,-3.4197,-3.4197,-3.4197,-3.4197,-3.4197,-3.4197,-3.4197,-3.4197,-3.4197,-3.4197,-3.4197,-3.4197,-3.4197,-3.4197,-3.4197,0.0,0.0,-2.9643,-2.9475,-2.9351,-2.924,0.0,0.0,-2.9156,0.0,-2.9134,-2.9576,-3.0925,-3.1348,-3.1912,-3.3176,-3.3338,-3.3262,-3.3184,-3.297,-3.2795,-3.2795,-3.2795,-3.2763,-3.2684,-3.2437,-3.2249,-3.2197,-3.1929,-3.18,-3.18,-3.18,-3.18,-3.18,-3.18,-3.18,-3.18,-3.18,-3.191,-3.2108,-3.2108,-3.2284,-3.2606,-3.2606,-3.2705,-3.2916,-3.3055,-3.3309,-3.3605,-3.378,-3.3972,-3.4197,-3.4197,-3.4197,-3.4197,-3.4197,-3.4197,-3.4197,-3.4197,-3.4197,-3.4197,-3.4197,-3.4197,-3.4197,-3.4197,-3.4197,-3.4197,-3.4197,-3.4197,-3.4197,-3.4197,-3.4197,-3.4197,-3.4197,-3.4197,-3.4197,-3.4197,-3.4197,-3.4197,-3.4197,-3.4197,-3.4197,-3.4197,-3.4197,-3.4197,-3.4197,-3.4197,-3.4197,-3.4197,-3.4197,-3.4197,-3.4197,-3.4197,-3.4197,-3.4197,-3.4197,-3.4197,-3.4197,-3.4197,-3.4197,-3.4197,-3.4197,-3.4197,-3.4197,-3.4197,-3.4197,-3.4197,-3.4197,-3.4197,-3.4197,-3.4197,-3.4197,0.0,-2.9416,0.0,-2.9246,-2.9156,0.0,0.0,0.0,-2.9089,-2.9089,-2.9089,-2.9324,-3.0123,-3.0937,-3.1653,-3.2119,-3.2814,-3.3184,-3.2858,-3.2795,-3.2795,-3.2795,-3.2795,-3.2684,-3.2352,-3.2318,-3.2161,-3.1856,-3.18,-3.18,-3.18,-3.18,-3.18,-3.18,-3.18,-3.18,-3.18,-3.18,-3.191,-3.2108,-3.2108,-3.2284,-3.2606,-3.2606,-3.2705,-3.2916,-3.2916,-3.3178,-3.3605,-3.3605,-3.386,-3.4197,-3.4197,-3.4197,-3.4197,-3.4197,-3.4197,-3.4197,-3.4197,-3.4197,-3.4197,-3.4197,-3.4197,-3.4197,-3.4197,-3.4197,-3.4197,-3.4197,-3.4197,-3.4197,-3.4197,-3.4197,-3.4197,-3.4197,-3.4197,-3.4197,-3.4197,-3.4197,-3.4197,-3.4197,-3.4197,-3.4197,-3.4197,-3.4197,-3.4197,-3.4197,-3.4197,-3.4197,-3.4197,-3.4197,-3.4197,-3.4197,-3.4197,-3.4197,-3.4197,-3.4197,-3.4197,-3.4197,-3.4197,-3.4197,-3.4197,-3.4197,-3.4197,-3.4197,-3.4197,-3.4197,-3.4197,-3.4197,-3.4197,-3.4197,-3.4197,-3.4197,0.0,0.0,0.0,-2.9178,-2.913,-2.9108,-2.9112,-2.9067,-2.904,-2.904,-2.904,-2.9067,-2.9174,-3.0236,-3.1337,-3.1981,-3.2419,-3.2636,-3.2504,-3.23,-3.2144,-3.2144,-3.2144,-3.2109,-3.1984,-3.2001,-3.1929,-3.18,-3.18,-3.18,-3.18,-3.18,-3.18,-3.18,-3.18,-3.18,-3.18,-3.18,-3.1837,-3.191,-3.2037,-3.2214,-3.242,-3.2521,-3.2705,-3.2916,-3.3024,-3.3298,-3.3605,-3.3753,-3.3947,-3.4197,-3.4197,-3.4197,-3.4197,-3.4197,-3.4197,-3.4197,-3.4197,-3.4197,-3.4197,-3.4197,-3.4197,-3.4197,-3.4197,-3.4197,-3.4197,-3.4197,-3.4197,-3.4197,-3.4197,-3.4197,-3.4197,-3.4197,-3.4197,-3.4197,-3.4197,-3.4197,-3.4197,-3.4197,-3.4197,-3.4197,-3.4197,-3.4197,-3.4197,-3.4197,-3.4197,-3.4197,-3.4197,-3.4197,-3.4197,-3.4197,-3.4197,-3.4197,-3.4197,-3.4197,-3.4197,-3.4197,-3.4197,-3.4197,-3.4197,-3.4197,-3.4197,-3.4197,-3.4197,-3.4197,-3.4197,-3.4197,-3.4197,-3.4197,-3.4197,-3.4197,-2.923,0.0,0.0,0.0,0.0,-2.9085,-2.9085,-2.904,-2.8994,-2.8994,-2.8929,-2.8815,-2.8626,-2.9485,-3.0388,-3.0908,-3.1523,-3.1881,-3.1777,-3.1773,-3.18,-3.18,-3.18,-3.18,-3.18,-3.18,-3.18,-3.18,-3.18,-3.18,-3.18,-3.18,-3.18,-3.18,-3.18,-3.18,-3.18,-3.18,-3.1819,-3.191,-3.1965,-3.2091,-3.2318,-3.242,-3.2606,-3.2802,-3.3068,-3.3339,-3.3633,-3.3834,-3.4023,-3.4197,-3.4197,-3.4197,-3.4197,-3.4197,-3.4197,-3.4197,-3.4197,-3.4197,-3.4197,-3.4197,-3.4197,-3.4197,-3.4197,-3.4197,-3.4197,-3.4197,-3.4197,-3.4197,-3.4197,-3.4197,-3.4197,-3.4197,-3.4197,-3.4197,-3.4197,-3.4197,-3.4197,-3.4197,-3.4197,-3.4197,-3.4197,-3.4197,-3.4197,-3.4197,-3.4197,-3.4197,-3.4197,-3.4197,-3.4197,-3.4197,-3.4197,-3.4197,-3.4197,-3.4197,-3.4197,-3.4197,-3.4197,-3.4197,-3.4197,-3.4197,-3.4197,-3.4197,-3.4197,-3.4197,-3.4197,-3.4197,-3.4197,-3.4197,-3.4197,-3.4197,0.0,0.0,0.0,0.0,0.0,0.0,-2.8994,0.0,-2.8994,-2.8994,-2.8767,-2.8601,-2.8576,-2.8688,-2.8759,-2.8759,-3.0091,-3.1025,-3.0715,-3.1282,-3.1731,-3.1765,-3.1765,-3.1783,-3.18,-3.18,-3.18,-3.18,-3.18,-3.18,-3.18,-3.18,-3.18,-3.18,-3.18,-3.18,-3.18,-3.18,-3.191,-3.2073,-3.1893,-3.2001,-3.2283,-3.2318,-3.242,-3.2639,-3.3037,-3.3357,-3.3587,-3.3815,-3.4023,-3.4197,-3.4197,-3.4197,-3.4197,-3.4197,-3.4197,-3.4197,-3.4197,-3.4197,-3.4197,-3.4197,-3.4197,-3.4197,-3.4197,-3.4197,-3.4197,-3.4197,-3.4197,-3.4197,-3.4197,-3.4197,-3.4197,-3.4197,-3.4197,-3.4197,-3.4197,-3.4197,-3.4197,-3.4197,-3.4197,-3.4197,-3.4197,-3.4197,-3.4197,-3.4197,-3.4197,-3.4197,-3.4197,-3.4197,-3.4197,-3.4197,-3.4197,-3.4197,-3.4197,-3.4197,-3.4197,-3.4197,-3.4197,-3.4197,-3.4197,-3.4197,-3.4197,-3.4197,-3.4197,-3.4197,-3.4197,-3.4197,-3.4197,-3.4197,-3.4197,-3.4197,-2.9017,0.0,0.0,0.0,0.0,0.0,-2.8743,0.0,-2.8929,-2.8743,-2.8651,-2.8474,-2.8027,-2.7977,-2.7927,-2.7764,-2.8966,-2.992,-2.9834,-3.0006,-3.0351,-3.0938,-3.0989,-3.1196,-3.1748,-3.18,-3.18,-3.18,-3.18,-3.18,-3.18,-3.18,-3.18,-3.18,-3.18,-3.18,-3.18,-3.18,-3.1837,-3.191,-3.2055,-3.2214,-3.2318,-3.2606,-3.277,-3.2834,-3.3099,-3.325,-3.3339,-3.3734,-3.4023,-3.4197,-3.4197,-3.4197,-3.4197,-3.4197,-3.4197,-3.4197,-3.4197,-3.4197,-3.4197,-3.4197,-3.4197,-3.4197,-3.4197,-3.4197,-3.4197,-3.4197,-3.4197,-3.4197,-3.4197,-3.4197,-3.4197,-3.4197,-3.4197,-3.4197,-3.4197,-3.4197,-3.4197,-3.4197,-3.4197,-3.4197,-3.4197,-3.4197,-3.4197,-3.4197,-3.4197,-3.4197,-3.4197,-3.4197,-3.4197,-3.4197,-3.4197,-3.4197,-3.4197,-3.4197,-3.4197,-3.4197,-3.4197,-3.4197,-3.4197,-3.4197,-3.4197,-3.4197,-3.4197,-3.4197,-3.4197,-3.4197,-3.4197,-3.4197,-3.4197,-3.4197,0.0,0.0,0.0,0.0,0.0,0.0,-2.8601,-2.8626,-2.8626,-2.8601,-2.8404,-2.811,-2.7742,-2.76,-2.7465,-2.733,-2.8023,-2.8696,-2.9006,-2.9317,-2.9679,-3.0144,-3.0196,-3.0368,-3.08,-3.0834,-3.0834,-3.0834,-3.0834,-3.0989,-3.1317,-3.1627,-3.18,-3.18,-3.18,-3.18,-3.18,-3.18,-3.18,-3.18,-3.1984,-3.2091,-3.2091,-3.2404,-3.2606,-3.2672,-3.2975,-3.316,-3.322,-3.3625,-3.3842,-3.3947,-3.4049,-3.4074,-3.4099,-3.4173,-3.4197,-3.4197,-3.4197,-3.4197,-3.4197,-3.4197,-3.4197,-3.4197,-3.4197,-3.4197,-3.4197,-3.4197,-3.4197,-3.4197,-3.4197,-3.4197,-3.4197,-3.4197,-3.4197,-3.4197,-3.4197,-3.4197,-3.4197,-3.4197,-3.4197,-3.4197,-3.4197,-3.4197,-3.4197,-3.4197,-3.4197,-3.4197,-3.4197,-3.4197,-3.4197,-3.4197,-3.4197,-3.4197,-3.4197,-3.4197,-3.4197,-3.4197,-3.4197,-3.4197,-3.4197,-3.4197,-3.4197,-3.4197,-3.4197,-3.4197,-3.4197,-3.4197,-3.4197,-3.4197,-3.4197,-3.4197,0.0,0.0,0.0,0.0,-2.8308,0.0,-2.843,-2.8281,-2.8183,-2.843,-2.8083,-2.7701,-2.7672,-2.7465,-2.7299,-2.7299,-2.7299,-2.7523,-2.8178,-2.8834,-2.9299,-2.9368,-2.9386,-2.942,-2.9506,-2.9506,-2.9506,-2.9506,-2.9506,-2.9817,-3.0524,-3.1179,-3.1541,-3.1541,-3.1627,-3.1679,-3.1679,-3.1765,-3.18,-3.18,-3.1837,-3.1819,-3.1837,-3.2037,-3.2197,-3.2318,-3.2752,-3.3006,-3.3129,-3.3386,-3.353,-3.3633,-3.3807,-3.3868,-3.3895,-3.4099,-3.4173,-3.4173,-3.4197,-3.4197,-3.4197,-3.4197,-3.4197,-3.4197,-3.4197,-3.4197,-3.4197,-3.4197,-3.4197,-3.4197,-3.4197,-3.4197,-3.4197,-3.4197,-3.4197,-3.4197,-3.4197,-3.4197,-3.4197,-3.4197,-3.4197,-3.4197,-3.4197,-3.4197,-3.4197,-3.4197,-3.4197,-3.4197,-3.4197,-3.4197,-3.4197,-3.4197,-3.4197,-3.4197,-3.4197,-3.4197,-3.4197,-3.4197,-3.4197,-3.4197,-3.4197,-3.4197,-3.4197,-3.4197,-3.4197,-3.4197,-3.4197,-3.4197,-3.4197,-3.4197,-3.4197,-3.4197,0.0,0.0,0.0,-2.7943,-2.7982,0.0,-2.7915,-2.801,-2.8047,-2.7915,-2.7771,-2.7642,-2.7421,-2.7345,-2.7299,-2.7299,-2.7299,-2.7351,-2.7489,-2.7627,-2.7937,-2.8541,-2.861,-2.8851,-2.9455,-2.9506,-2.9506,-2.9506,-2.9506,-2.9575,-2.973,-2.9868,-2.9955,-2.9955,-3.0575,-3.0903,-3.0903,-3.1489,-3.18,-3.18,-3.1965,-3.2037,-3.2054,-3.2197,-3.2283,-3.2318,-3.2555,-3.2588,-3.247,-3.2719,-3.3099,-3.3605,-3.3643,-3.3643,-3.3671,-3.3868,-3.3947,-3.3972,-3.4148,-3.4197,-3.4197,-3.4197,-3.4197,-3.4197,-3.4197,-3.4197,-3.4197,-3.4197,-3.4197,-3.4197,-3.4197,-3.4197,-3.4197,-3.4197,-3.4197,-3.4197,-3.4197,-3.4197,-3.4197,-3.4197,-3.4197,-3.4197,-3.4197,-3.4197,-3.4197,-3.4197,-3.4197,-3.4197,-3.4197,-3.4197,-3.4197,-3.4197,-3.4197,-3.4197,-3.4197,-3.4197,-3.4197,-3.4197,-3.4197,-3.4197,-3.4197,-3.4197,-3.4197,-3.4197,-3.4197,-3.4197,-3.4197,-3.4197,-3.4197,-3.4197,-3.4197,-3.4197,-2.8102,-2.7992,-2.7869,-2.7713,-2.7701,0.0,0.0,-2.7701,-2.7701,-2.7701,-2.76,-2.7465,-2.7313,-2.7299,-2.7299,-2.7299,-2.7299,-2.7299,-2.7299,-2.7299,-2.7437,-2.7799,-2.7851,-2.7989,-2.8368,-2.8403,-2.8403,-2.8403,-2.8747,-2.8954,-2.8954,-2.9299,-2.9506,-2.9506,-2.9886,-3.0093,-3.0093,-3.0472,-3.0851,-3.1248,-3.1339,-3.1582,-3.1929,-3.2037,-3.2091,-3.2197,-3.2301,-3.2335,-3.2318,-3.2539,-3.2784,-3.3099,-3.3268,-3.3357,-3.3426,-3.3788,-3.3895,-3.3921,-3.4124,-3.4197,-3.4197,-3.4197,-3.4197,-3.4197,-3.4197,-3.4197,-3.4197,-3.4197,-3.4197,-3.4197,-3.4197,-3.4197,-3.4197,-3.4197,-3.4197,-3.4197,-3.4197,-3.4197,-3.4197,-3.4197,-3.4197,-3.4197,-3.4197,-3.4197,-3.4197,-3.4197,-3.4197,-3.4197,-3.4197,-3.4197,-3.4197,-3.4197,-3.4197,-3.4197,-3.4197,-3.4197,-3.4197,-3.4197,-3.4197,-3.4197,-3.4197,-3.4197,-3.4197,-3.4197,-3.4197,-3.4197,-3.4197,-3.4197,-3.4197,-3.4197,-3.4197,-3.4197,-2.8202,-2.7983,-2.7805,-2.7665,-2.7465,-2.7345,0.0,0.0,0.0,-2.7569,-2.7434,-2.7299,-2.7299,-2.7299,-2.7299,-2.7299,-2.7299,-2.7299,-2.7299,-2.7299,-2.7299,-2.7299,-2.7299,-2.7299,-2.7299,-2.7299,-2.7299,-2.7299,-2.7851,-2.8178,-2.8178,-2.8747,-2.9075,-2.9075,-2.9213,-2.9299,-2.9299,-2.9437,-2.9834,-3.0455,-3.0455,-3.0765,-3.1351,-3.1524,-3.1685,-3.1828,-3.202,-3.2144,-3.2214,-3.2438,-3.2506,-3.2539,-3.2866,-3.3055,-3.319,-3.3606,-3.3788,-3.3868,-3.4074,-3.4173,-3.4197,-3.4197,-3.4197,-3.4197,-3.4197,-3.4197,-3.4197,-3.4197,-3.4197,-3.4197,-3.4197,-3.4197,-3.4197,-3.4197,-3.4197,-3.4197,-3.4197,-3.4197,-3.4197,-3.4197,-3.4197,-3.4197,-3.4197,-3.4197,-3.4197,-3.4197,-3.4197,-3.4197,-3.4197,-3.4197,-3.4197,-3.4197,-3.4197,-3.4197,-3.4197,-3.4197,-3.4197,-3.4197,-3.4197,-3.4197,-3.4197,-3.4197,-3.4197,-3.4197,-3.4197,-3.4197,-3.4197,-3.4197,-3.4197,-3.4197,-3.4197,-3.4197,-2.8518,-2.8345,-2.8174,-2.7518,-2.7313,-2.733,-2.7345,0.0,-2.733,-2.7345,0.0,-2.7299,-2.7299,0.0,0.0,-2.7299,-2.7299,-2.7299,-2.7299,-2.7299,-2.7299,-2.7299,-2.7299,-2.7299,-2.7299,-2.7299,-2.7299,-2.7299,-2.7368,-2.742,-2.742,-2.7489,-2.754,-2.754,-2.8178,-2.8523,-2.8523,-2.9179,-2.9558,-2.9644,-2.9644,-2.9679,-2.9799,-3.0489,-3.0853,-3.0923,-3.1759,-3.2001,-3.1856,-3.2073,-3.2144,-3.2214,-3.2705,-3.2916,-3.2961,-3.319,-3.3426,-3.3671,-3.3868,-3.4049,-3.4197,-3.4197,-3.4197,-3.4197,-3.4197,-3.4197,-3.4197,-3.4197,-3.4197,-3.4197,-3.4197,-3.4197,-3.4197,-3.4197,-3.4197,-3.4197,-3.4197,-3.4197,-3.4197,-3.4197,-3.4197,-3.4197,-3.4197,-3.4197,-3.4197,-3.4197,-3.4197,-3.4197,-3.4197,-3.4197,-3.4197,-3.4197,-3.4197,-3.4197,-3.4197,-3.4197,-3.4197,-3.4197,-3.4197,-3.4197,-3.4197,-3.4197,-3.4197,-3.4197,-3.4197,-3.4197,-3.4197,-3.4197,-3.4197,-3.4197,-3.4197,-3.4197,-2.9127,-2.873,-2.8334,-2.8023,-2.7609,-2.7299,-2.7299,-2.7299,-2.7299,-2.7299,0.0,0.0,0.0,0.0,0.0,0.0,-2.7299,-2.7299,-2.7299,-2.7299,-2.7299,-2.7299,-2.7299,-2.7299,-2.7299,-2.7299,-2.7299,-2.7299,-2.7299,-2.7299,-2.7299,-2.7299,-2.7299,-2.7299,-2.7592,-2.7747,-2.7747,-2.8075,-2.8437,-2.8868,-2.8868,-2.9092,-2.9523,-2.9851,-3.0006,-3.0041,-3.0923,-3.1216,-3.1215,-3.1827,-3.2108,-3.2144,-3.2438,-3.2555,-3.2588,-3.283,-3.3142,-3.3437,-3.3643,-3.3935,-3.4197,-3.4197,-3.4197,-3.4197,-3.4197,-3.4197,-3.4197,-3.4197,-3.4197,-3.4197,-3.4197,-3.4197,-3.4197,-3.4197,-3.4197,-3.4197,-3.4197,-3.4197,-3.4197,-3.4197,-3.4197,-3.4197,-3.4197,-3.4197,-3.4197,-3.4197,-3.4197,-3.4197,-3.4197,-3.4197,-3.4197,-3.4197,-3.4197,-3.4197,-3.4197,-3.4197,-3.4197,-3.4197,-3.4197,-3.4197,-3.4197,-3.4197,-3.4197,-3.4197,-3.4197,-3.4197,-3.4197,-3.4197,-3.4197,-3.4197,-3.4197,-3.4197,-2.9886,-2.9437,-2.8937,-2.8506,-2.7989,-2.754,-2.7351,-2.7299,-2.7299,-2.7299,-2.7299,0.0,0.0,0.0,-2.7299,-2.7299,0.0,-2.725,-2.7169,-2.725,-2.7299,-2.7299,-2.7299,-2.7299,-2.7299,-2.7299,-2.7299,-2.7299,-2.7299,-2.7299,-2.7299,-2.7299,-2.7299,-2.7299,-2.7299,-2.7299,-2.7299,-2.7299,-2.7558,-2.8092,-2.8092,-2.8385,-2.8903,-2.911,-2.9213,-2.9248,-3.0024,-3.0368,-3.0403,-3.1115,-3.1498,-3.1741,-3.1812,-3.1969,-3.2214,-3.2555,-3.2894,-3.3262,-3.3504,-3.3858,-3.4197,-3.4197,-3.4197,-3.4197,-3.4197,-3.4197,-3.4197,-3.4197,-3.4197,-3.4197,-3.4197,-3.4197,-3.4197,-3.4197,-3.4197,-3.4197,-3.4197,-3.4197,-3.4197,-3.4197,-3.4197,-3.4197,-3.4197,-3.4197,-3.4197,-3.4197,-3.4197,-3.4197,-3.4197,-3.4197,-3.4197,-3.4197,-3.4197,-3.4197,-3.4197,-3.4197,-3.4197,-3.4197,-3.4197,-3.4197,-3.4197,-3.4197,-3.4197,-3.4197,-3.4197,-3.4197,-3.4197,-3.4197,-3.4197,-3.4197,-3.4197,-3.4197,-3.0851,-3.0627,-3.0265,-2.8765,-2.8385,-2.8178,-2.7454,-2.7299,-2.7299,-2.7299,-2.7299,-2.7299,-2.7299,-2.7299,0.0,0.0,0.0,0.0,0.0,-2.7105,-2.7299,-2.7299,-2.7299,-2.7299,-2.7299,-2.7299,-2.7299,-2.7299,-2.7299,-2.7299,-2.7299,-2.7299,-2.7299,-2.7299,-2.7299,-2.7299,-2.7299,-2.7299,-2.7299,-2.7333,-2.7333,-2.7351,-2.7385,-2.8109,-2.8437,-2.8472,-2.9213,-2.9541,-2.9541,-2.9575,-3.0024,-3.0766,-3.0766,-3.1198,-3.1856,-3.2404,-3.2784,-3.3068,-3.3473,-3.3868,-3.4197,-3.4197,-3.4197,-3.4197,-3.4197,-3.4197,-3.4197,-3.4197,-3.4197,-3.4197,-3.4197,-3.4197,-3.4197,-3.4197,-3.4197,-3.4197,-3.4197,-3.4197,-3.4197,-3.4197,-3.4197,-3.4197,-3.4197,-3.4197,-3.4197,-3.4197,-3.4197,-3.4197,-3.4197,-3.4197,-3.4197,-3.4197,-3.4197,-3.4197,-3.4197,-3.4197,-3.4197,-3.4197,-3.4197,-3.4197,-3.4197,-3.4197,-3.4197,-3.4197,-3.4197,-3.4197,-3.4197,-3.4197,-3.4197,-3.4197,-3.4197,-3.4197,-3.0874,-3.0412,-2.9959,-2.9651,-2.88,-2.8066,-2.8042,-2.7644,-2.7299,-2.7299,-2.7299,-2.7299,-2.7299,-2.7137,0.0,0.0,0.0,0.0,0.0,-2.6808,-2.6973,-2.6973,-2.7169,-2.7299,-2.7299,-2.7299,-2.7299,-2.7299,-2.7299,-2.7299,-2.7299,-2.7299,-2.7299,-2.7299,-2.7299,-2.7299,-2.7299,-2.7299,-2.7299,-2.7299,-2.7299,-2.7299,-2.7299,-2.7558,-2.7661,-2.7713,-2.8454,-2.8765,-2.8816,-2.9299,-2.9661,-2.9903,-2.9903,-3.0058,-3.0438,-3.1619,-3.2283,-3.2684,-3.3372,-3.377,-3.4023,-3.4148,-3.4197,-3.4197,-3.4197,-3.4197,-3.4197,-3.4197,-3.4197,-3.4197,-3.4197,-3.4197,-3.4197,-3.4197,-3.4197,-3.4197,-3.4197,-3.4197,-3.4197,-3.4197,-3.4197,-3.4197,-3.4197,-3.4197,-3.4197,-3.4197,-3.4197,-3.4197,-3.4197,-3.4197,-3.4197,-3.4197,-3.4197,-3.4197,-3.4197,-3.4197,-3.4197,-3.4197,-3.4197,-3.4197,-3.4197,-3.4197,-3.4197,-3.4197,-3.4197,-3.4197,-3.4197,-3.4197,-3.4197,-3.4179,-3.364,-3.3398,-3.0845,-3.0453,-3.009,-3.0032,-2.9276,-2.8503,-2.8254,-2.7842,-2.743,-2.7188,-2.7218,-2.7218,-2.7007,-2.6875,-2.6774,0.0,0.0,0.0,0.0,-2.6521,-2.6657,-2.6758,-2.7087,-2.725,-2.7137,-2.7218,-2.725,-2.7137,-2.725,-2.7299,-2.7299,-2.7299,-2.7299,-2.7299,-2.7299,-2.7299,-2.7299,-2.7299,-2.7299,-2.7299,-2.7299,-2.7299,-2.7299,-2.7299,-2.7299,-2.7316,-2.7799,-2.8006,-2.804,-2.8523,-2.8868,-2.911,-2.911,-2.9265,-2.9627,-3.0681,-3.1498,-3.2228,-3.3176,-3.3643,-3.385,-3.4105,-3.4197,-3.4197,-3.4197,-3.4197,-3.4253,-3.4569,-3.4439,-3.4271,-3.4569,-3.442,-3.4197,-3.4197,-3.4197,-3.4173,-3.4124,-3.4148,-3.4173,-3.4099,-3.4148,-3.4197,-3.4197,-3.4197,-3.4197,-3.4197,-3.4197,-3.4197,-3.4197,-3.4197,-3.4197,-3.4197,-3.4197,-3.4197,-3.4197,-3.4197,-3.4197,-3.4197,-3.4197,-3.4197,-3.4197,-3.4197,-3.4197,-3.4197,-3.4197,-3.4197,-3.4197,-3.4197,-3.4048,-3.3751,-3.3231,-3.2692]}]]